<?xml version="1.0" encoding="UTF-8" standalone="no" ?>
<gpx xmlns="http://www.topografix.com/GPX/1/1" xmlns:xsi="http://www.w3.org/2001/XMLSchema-instance" xsi:schemaLocation="http://www.topografix.com/GPX/1/1 http://www.topografix.com/GPX/1/1/gpx.xsd" version="1.1" creator="VisuGPX - https://www.visugpx.com">
  <metadata>
    <name>rando des vendanges 2013</name>
    <desc><![CDATA[rando ludique 
pour découvrir le vignoble de l\'anjou ]]></desc>
  </metadata>
  <trk>
    <name><![CDATA[20-OCT-13 11:55:50]]></name>
    <trkseg>
      <trkpt lat="47.3556" lon="-0.66605">
        <ele>36.19</ele>
        <time>2013-10-20T06:33:58Z</time>
      </trkpt>
      <trkpt lat="47.35563" lon="-0.66606">
        <ele>36.67</ele>
        <time>2013-10-20T06:34:00Z</time>
      </trkpt>
      <trkpt lat="47.35562" lon="-0.66606">
        <ele>37.15</ele>
        <time>2013-10-20T06:34:06Z</time>
      </trkpt>
      <trkpt lat="47.35562" lon="-0.66604">
        <ele>31.86</ele>
        <time>2013-10-20T06:34:16Z</time>
      </trkpt>
      <trkpt lat="47.35562" lon="-0.66604">
        <ele>32.34</ele>
        <time>2013-10-20T06:34:17Z</time>
      </trkpt>
      <trkpt lat="47.35562" lon="-0.66604">
        <ele>30.9</ele>
        <time>2013-10-20T06:34:20Z</time>
      </trkpt>
      <trkpt lat="47.35562" lon="-0.66604">
        <ele>28.02</ele>
        <time>2013-10-20T06:34:23Z</time>
      </trkpt>
      <trkpt lat="47.35562" lon="-0.66603">
        <ele>31.86</ele>
        <time>2013-10-20T06:34:25Z</time>
      </trkpt>
      <trkpt lat="47.35562" lon="-0.66602">
        <ele>27.53</ele>
        <time>2013-10-20T06:34:27Z</time>
      </trkpt>
      <trkpt lat="47.35562" lon="-0.66601">
        <ele>27.53</ele>
        <time>2013-10-20T06:34:28Z</time>
      </trkpt>
      <trkpt lat="47.35562" lon="-0.66599">
        <ele>24.17</ele>
        <time>2013-10-20T06:34:39Z</time>
      </trkpt>
      <trkpt lat="47.35562" lon="-0.66602">
        <ele>21.29</ele>
        <time>2013-10-20T06:34:55Z</time>
      </trkpt>
      <trkpt lat="47.35561" lon="-0.66601">
        <ele>20.32</ele>
        <time>2013-10-20T06:35:13Z</time>
      </trkpt>
      <trkpt lat="47.35563" lon="-0.666">
        <ele>20.32</ele>
        <time>2013-10-20T06:35:31Z</time>
      </trkpt>
      <trkpt lat="47.35563" lon="-0.66602">
        <ele>20.32</ele>
        <time>2013-10-20T06:35:45Z</time>
      </trkpt>
      <trkpt lat="47.35563" lon="-0.66602">
        <ele>20.32</ele>
        <time>2013-10-20T06:36:00Z</time>
      </trkpt>
      <trkpt lat="47.35563" lon="-0.66602">
        <ele>20.32</ele>
        <time>2013-10-20T06:36:14Z</time>
      </trkpt>
      <trkpt lat="47.35563" lon="-0.66602">
        <ele>19.84</ele>
        <time>2013-10-20T06:36:31Z</time>
      </trkpt>
      <trkpt lat="47.35563" lon="-0.66602">
        <ele>19.84</ele>
        <time>2013-10-20T06:36:47Z</time>
      </trkpt>
      <trkpt lat="47.35563" lon="-0.66601">
        <ele>19.84</ele>
        <time>2013-10-20T06:37:02Z</time>
      </trkpt>
      <trkpt lat="47.35563" lon="-0.66601">
        <ele>19.36</ele>
        <time>2013-10-20T06:37:14Z</time>
      </trkpt>
      <trkpt lat="47.35565" lon="-0.666">
        <ele>19.84</ele>
        <time>2013-10-20T06:37:19Z</time>
      </trkpt>
      <trkpt lat="47.35565" lon="-0.66589">
        <ele>19.36</ele>
        <time>2013-10-20T06:37:22Z</time>
      </trkpt>
      <trkpt lat="47.35555" lon="-0.66574">
        <ele>13.12</ele>
        <time>2013-10-20T06:37:27Z</time>
      </trkpt>
      <trkpt lat="47.35548" lon="-0.66569">
        <ele>19.84</ele>
        <time>2013-10-20T06:37:29Z</time>
      </trkpt>
      <trkpt lat="47.3553" lon="-0.66572">
        <ele>19.36</ele>
        <time>2013-10-20T06:37:33Z</time>
      </trkpt>
      <trkpt lat="47.3551" lon="-0.66579">
        <ele>18.88</ele>
        <time>2013-10-20T06:37:39Z</time>
      </trkpt>
      <trkpt lat="47.35501" lon="-0.66564">
        <ele>19.36</ele>
        <time>2013-10-20T06:37:43Z</time>
      </trkpt>
      <trkpt lat="47.35497" lon="-0.66559">
        <ele>18.88</ele>
        <time>2013-10-20T06:37:44Z</time>
      </trkpt>
      <trkpt lat="47.35467" lon="-0.66519">
        <ele>21.29</ele>
        <time>2013-10-20T06:37:51Z</time>
      </trkpt>
      <trkpt lat="47.35463" lon="-0.66514">
        <ele>21.29</ele>
        <time>2013-10-20T06:37:52Z</time>
      </trkpt>
      <trkpt lat="47.35438" lon="-0.6649">
        <ele>23.21</ele>
        <time>2013-10-20T06:37:58Z</time>
      </trkpt>
      <trkpt lat="47.35406" lon="-0.66478">
        <ele>23.21</ele>
        <time>2013-10-20T06:38:06Z</time>
      </trkpt>
      <trkpt lat="47.354" lon="-0.66476">
        <ele>23.21</ele>
        <time>2013-10-20T06:38:08Z</time>
      </trkpt>
      <trkpt lat="47.35394" lon="-0.66467">
        <ele>22.73</ele>
        <time>2013-10-20T06:38:13Z</time>
      </trkpt>
      <trkpt lat="47.35393" lon="-0.66466">
        <ele>22.73</ele>
        <time>2013-10-20T06:38:16Z</time>
      </trkpt>
      <trkpt lat="47.35388" lon="-0.66461">
        <ele>23.21</ele>
        <time>2013-10-20T06:38:23Z</time>
      </trkpt>
      <trkpt lat="47.35383" lon="-0.66462">
        <ele>22.73</ele>
        <time>2013-10-20T06:38:29Z</time>
      </trkpt>
      <trkpt lat="47.35379" lon="-0.66466">
        <ele>22.73</ele>
        <time>2013-10-20T06:38:35Z</time>
      </trkpt>
      <trkpt lat="47.35379" lon="-0.66467">
        <ele>22.73</ele>
        <time>2013-10-20T06:38:42Z</time>
      </trkpt>
      <trkpt lat="47.35379" lon="-0.66468">
        <ele>22.73</ele>
        <time>2013-10-20T06:38:53Z</time>
      </trkpt>
      <trkpt lat="47.35379" lon="-0.66469">
        <ele>23.21</ele>
        <time>2013-10-20T06:39:02Z</time>
      </trkpt>
      <trkpt lat="47.35377" lon="-0.6647">
        <ele>22.73</ele>
        <time>2013-10-20T06:39:08Z</time>
      </trkpt>
      <trkpt lat="47.35377" lon="-0.6647">
        <ele>22.73</ele>
        <time>2013-10-20T06:39:14Z</time>
      </trkpt>
      <trkpt lat="47.35376" lon="-0.6647">
        <ele>24.17</ele>
        <time>2013-10-20T06:39:23Z</time>
      </trkpt>
      <trkpt lat="47.35377" lon="-0.66471">
        <ele>16</ele>
        <time>2013-10-20T06:39:29Z</time>
      </trkpt>
      <trkpt lat="47.35377" lon="-0.66471">
        <ele>25.13</ele>
        <time>2013-10-20T06:39:30Z</time>
      </trkpt>
      <trkpt lat="47.35376" lon="-0.6647">
        <ele>22.25</ele>
        <time>2013-10-20T06:39:39Z</time>
      </trkpt>
      <trkpt lat="47.35376" lon="-0.66469">
        <ele>22.25</ele>
        <time>2013-10-20T06:39:44Z</time>
      </trkpt>
      <trkpt lat="47.35373" lon="-0.66467">
        <ele>22.25</ele>
        <time>2013-10-20T06:39:53Z</time>
      </trkpt>
      <trkpt lat="47.35369" lon="-0.66471">
        <ele>22.73</ele>
        <time>2013-10-20T06:40:03Z</time>
      </trkpt>
      <trkpt lat="47.35369" lon="-0.66473">
        <ele>22.25</ele>
        <time>2013-10-20T06:40:13Z</time>
      </trkpt>
      <trkpt lat="47.35369" lon="-0.66475">
        <ele>22.73</ele>
        <time>2013-10-20T06:40:22Z</time>
      </trkpt>
      <trkpt lat="47.3537" lon="-0.66477">
        <ele>22.73</ele>
        <time>2013-10-20T06:40:29Z</time>
      </trkpt>
      <trkpt lat="47.35375" lon="-0.66476">
        <ele>22.25</ele>
        <time>2013-10-20T06:40:36Z</time>
      </trkpt>
      <trkpt lat="47.35375" lon="-0.66476">
        <ele>22.73</ele>
        <time>2013-10-20T06:40:48Z</time>
      </trkpt>
      <trkpt lat="47.35375" lon="-0.66476">
        <ele>21.77</ele>
        <time>2013-10-20T06:41:02Z</time>
      </trkpt>
      <trkpt lat="47.35375" lon="-0.66476">
        <ele>22.73</ele>
        <time>2013-10-20T06:41:14Z</time>
      </trkpt>
      <trkpt lat="47.35375" lon="-0.66476">
        <ele>22.73</ele>
        <time>2013-10-20T06:41:29Z</time>
      </trkpt>
      <trkpt lat="47.35375" lon="-0.66476">
        <ele>22.25</ele>
        <time>2013-10-20T06:41:41Z</time>
      </trkpt>
      <trkpt lat="47.35376" lon="-0.66476">
        <ele>22.73</ele>
        <time>2013-10-20T06:41:50Z</time>
      </trkpt>
      <trkpt lat="47.3538" lon="-0.66475">
        <ele>22.25</ele>
        <time>2013-10-20T06:41:59Z</time>
      </trkpt>
      <trkpt lat="47.35378" lon="-0.66473">
        <ele>20.32</ele>
        <time>2013-10-20T06:42:06Z</time>
      </trkpt>
      <trkpt lat="47.35378" lon="-0.66472">
        <ele>29.46</ele>
        <time>2013-10-20T06:42:07Z</time>
      </trkpt>
      <trkpt lat="47.35378" lon="-0.66473">
        <ele>17.44</ele>
        <time>2013-10-20T06:42:08Z</time>
      </trkpt>
      <trkpt lat="47.35378" lon="-0.66473">
        <ele>12.63</ele>
        <time>2013-10-20T06:42:09Z</time>
      </trkpt>
      <trkpt lat="47.35378" lon="-0.66472">
        <ele>26.57</ele>
        <time>2013-10-20T06:42:10Z</time>
      </trkpt>
      <trkpt lat="47.35378" lon="-0.66472">
        <ele>22.25</ele>
        <time>2013-10-20T06:42:11Z</time>
      </trkpt>
      <trkpt lat="47.35377" lon="-0.6647">
        <ele>22.73</ele>
        <time>2013-10-20T06:42:19Z</time>
      </trkpt>
      <trkpt lat="47.35377" lon="-0.6647">
        <ele>22.25</ele>
        <time>2013-10-20T06:42:22Z</time>
      </trkpt>
      <trkpt lat="47.35378" lon="-0.6647">
        <ele>22.73</ele>
        <time>2013-10-20T06:42:29Z</time>
      </trkpt>
      <trkpt lat="47.35378" lon="-0.6647">
        <ele>22.25</ele>
        <time>2013-10-20T06:42:39Z</time>
      </trkpt>
      <trkpt lat="47.35378" lon="-0.6647">
        <ele>22.25</ele>
        <time>2013-10-20T06:42:41Z</time>
      </trkpt>
      <trkpt lat="47.35377" lon="-0.66469">
        <ele>22.25</ele>
        <time>2013-10-20T06:42:53Z</time>
      </trkpt>
      <trkpt lat="47.35377" lon="-0.6647">
        <ele>22.25</ele>
        <time>2013-10-20T06:43:02Z</time>
      </trkpt>
      <trkpt lat="47.35376" lon="-0.6647">
        <ele>22.73</ele>
        <time>2013-10-20T06:43:13Z</time>
      </trkpt>
      <trkpt lat="47.35377" lon="-0.66469">
        <ele>22.25</ele>
        <time>2013-10-20T06:43:21Z</time>
      </trkpt>
      <trkpt lat="47.35377" lon="-0.66469">
        <ele>22.25</ele>
        <time>2013-10-20T06:43:26Z</time>
      </trkpt>
      <trkpt lat="47.35381" lon="-0.66473">
        <ele>21.77</ele>
        <time>2013-10-20T06:43:32Z</time>
      </trkpt>
      <trkpt lat="47.35383" lon="-0.66474">
        <ele>21.77</ele>
        <time>2013-10-20T06:43:34Z</time>
      </trkpt>
      <trkpt lat="47.35386" lon="-0.66478">
        <ele>22.25</ele>
        <time>2013-10-20T06:43:37Z</time>
      </trkpt>
      <trkpt lat="47.35394" lon="-0.66472">
        <ele>21.77</ele>
        <time>2013-10-20T06:43:43Z</time>
      </trkpt>
      <trkpt lat="47.35397" lon="-0.66465">
        <ele>22.25</ele>
        <time>2013-10-20T06:43:48Z</time>
      </trkpt>
      <trkpt lat="47.35397" lon="-0.6646">
        <ele>22.25</ele>
        <time>2013-10-20T06:43:55Z</time>
      </trkpt>
      <trkpt lat="47.35396" lon="-0.66456">
        <ele>22.25</ele>
        <time>2013-10-20T06:44:03Z</time>
      </trkpt>
      <trkpt lat="47.35397" lon="-0.6645">
        <ele>22.25</ele>
        <time>2013-10-20T06:44:05Z</time>
      </trkpt>
      <trkpt lat="47.35398" lon="-0.66426">
        <ele>23.21</ele>
        <time>2013-10-20T06:44:13Z</time>
      </trkpt>
      <trkpt lat="47.35403" lon="-0.66408">
        <ele>23.21</ele>
        <time>2013-10-20T06:44:19Z</time>
      </trkpt>
      <trkpt lat="47.35406" lon="-0.6639">
        <ele>23.21</ele>
        <time>2013-10-20T06:44:26Z</time>
      </trkpt>
      <trkpt lat="47.35417" lon="-0.66378">
        <ele>23.69</ele>
        <time>2013-10-20T06:44:31Z</time>
      </trkpt>
      <trkpt lat="47.35437" lon="-0.66365">
        <ele>23.21</ele>
        <time>2013-10-20T06:44:38Z</time>
      </trkpt>
      <trkpt lat="47.3546" lon="-0.66351">
        <ele>23.21</ele>
        <time>2013-10-20T06:44:46Z</time>
      </trkpt>
      <trkpt lat="47.35481" lon="-0.66331">
        <ele>22.73</ele>
        <time>2013-10-20T06:44:53Z</time>
      </trkpt>
      <trkpt lat="47.35492" lon="-0.66318">
        <ele>22.73</ele>
        <time>2013-10-20T06:44:57Z</time>
      </trkpt>
      <trkpt lat="47.35489" lon="-0.66301">
        <ele>22.73</ele>
        <time>2013-10-20T06:45:01Z</time>
      </trkpt>
      <trkpt lat="47.35483" lon="-0.66295">
        <ele>23.21</ele>
        <time>2013-10-20T06:45:03Z</time>
      </trkpt>
      <trkpt lat="47.35473" lon="-0.66285">
        <ele>23.21</ele>
        <time>2013-10-20T06:45:06Z</time>
      </trkpt>
      <trkpt lat="47.35467" lon="-0.66263">
        <ele>24.17</ele>
        <time>2013-10-20T06:45:10Z</time>
      </trkpt>
      <trkpt lat="47.35469" lon="-0.66236">
        <ele>24.17</ele>
        <time>2013-10-20T06:45:15Z</time>
      </trkpt>
      <trkpt lat="47.35481" lon="-0.66207">
        <ele>24.17</ele>
        <time>2013-10-20T06:45:21Z</time>
      </trkpt>
      <trkpt lat="47.35478" lon="-0.66199">
        <ele>24.17</ele>
        <time>2013-10-20T06:45:23Z</time>
      </trkpt>
      <trkpt lat="47.35464" lon="-0.66181">
        <ele>25.61</ele>
        <time>2013-10-20T06:45:30Z</time>
      </trkpt>
      <trkpt lat="47.35459" lon="-0.66152">
        <ele>27.05</ele>
        <time>2013-10-20T06:45:37Z</time>
      </trkpt>
      <trkpt lat="47.3545" lon="-0.66137">
        <ele>27.05</ele>
        <time>2013-10-20T06:45:42Z</time>
      </trkpt>
      <trkpt lat="47.35428" lon="-0.66123">
        <ele>28.98</ele>
        <time>2013-10-20T06:45:50Z</time>
      </trkpt>
      <trkpt lat="47.35427" lon="-0.66105">
        <ele>29.46</ele>
        <time>2013-10-20T06:45:55Z</time>
      </trkpt>
      <trkpt lat="47.3544" lon="-0.66061">
        <ele>29.94</ele>
        <time>2013-10-20T06:46:05Z</time>
      </trkpt>
      <trkpt lat="47.35449" lon="-0.66015">
        <ele>29.94</ele>
        <time>2013-10-20T06:46:14Z</time>
      </trkpt>
      <trkpt lat="47.35452" lon="-0.65999">
        <ele>30.42</ele>
        <time>2013-10-20T06:46:17Z</time>
      </trkpt>
      <trkpt lat="47.35462" lon="-0.6598">
        <ele>29.94</ele>
        <time>2013-10-20T06:46:21Z</time>
      </trkpt>
      <trkpt lat="47.35476" lon="-0.65957">
        <ele>30.42</ele>
        <time>2013-10-20T06:46:26Z</time>
      </trkpt>
      <trkpt lat="47.35493" lon="-0.65904">
        <ele>29.94</ele>
        <time>2013-10-20T06:46:35Z</time>
      </trkpt>
      <trkpt lat="47.35494" lon="-0.65897">
        <ele>29.94</ele>
        <time>2013-10-20T06:46:36Z</time>
      </trkpt>
      <trkpt lat="47.35502" lon="-0.65874">
        <ele>29.46</ele>
        <time>2013-10-20T06:46:40Z</time>
      </trkpt>
      <trkpt lat="47.35511" lon="-0.65853">
        <ele>29.46</ele>
        <time>2013-10-20T06:46:44Z</time>
      </trkpt>
      <trkpt lat="47.35528" lon="-0.65805">
        <ele>30.9</ele>
        <time>2013-10-20T06:46:53Z</time>
      </trkpt>
      <trkpt lat="47.3553" lon="-0.65796">
        <ele>31.38</ele>
        <time>2013-10-20T06:46:55Z</time>
      </trkpt>
      <trkpt lat="47.35522" lon="-0.65786">
        <ele>31.38</ele>
        <time>2013-10-20T06:46:59Z</time>
      </trkpt>
      <trkpt lat="47.35504" lon="-0.6577">
        <ele>32.82</ele>
        <time>2013-10-20T06:47:05Z</time>
      </trkpt>
      <trkpt lat="47.35489" lon="-0.65777">
        <ele>32.82</ele>
        <time>2013-10-20T06:47:10Z</time>
      </trkpt>
      <trkpt lat="47.35468" lon="-0.65772">
        <ele>33.3</ele>
        <time>2013-10-20T06:47:16Z</time>
      </trkpt>
      <trkpt lat="47.35444" lon="-0.65758">
        <ele>34.74</ele>
        <time>2013-10-20T06:47:23Z</time>
      </trkpt>
      <trkpt lat="47.35422" lon="-0.65744">
        <ele>36.67</ele>
        <time>2013-10-20T06:47:30Z</time>
      </trkpt>
      <trkpt lat="47.35417" lon="-0.65725">
        <ele>37.63</ele>
        <time>2013-10-20T06:47:34Z</time>
      </trkpt>
      <trkpt lat="47.35417" lon="-0.65676">
        <ele>38.11</ele>
        <time>2013-10-20T06:47:43Z</time>
      </trkpt>
      <trkpt lat="47.35425" lon="-0.65631">
        <ele>38.59</ele>
        <time>2013-10-20T06:47:52Z</time>
      </trkpt>
      <trkpt lat="47.35432" lon="-0.656">
        <ele>38.59</ele>
        <time>2013-10-20T06:47:59Z</time>
      </trkpt>
      <trkpt lat="47.35439" lon="-0.65568">
        <ele>38.11</ele>
        <time>2013-10-20T06:48:05Z</time>
      </trkpt>
      <trkpt lat="47.35443" lon="-0.65536">
        <ele>38.11</ele>
        <time>2013-10-20T06:48:11Z</time>
      </trkpt>
      <trkpt lat="47.35435" lon="-0.65519">
        <ele>39.55</ele>
        <time>2013-10-20T06:48:15Z</time>
      </trkpt>
      <trkpt lat="47.35432" lon="-0.65518">
        <ele>39.55</ele>
        <time>2013-10-20T06:48:16Z</time>
      </trkpt>
      <trkpt lat="47.35414" lon="-0.65517">
        <ele>41.47</ele>
        <time>2013-10-20T06:48:21Z</time>
      </trkpt>
      <trkpt lat="47.35406" lon="-0.65516">
        <ele>42.92</ele>
        <time>2013-10-20T06:48:23Z</time>
      </trkpt>
      <trkpt lat="47.35387" lon="-0.65499">
        <ele>44.84</ele>
        <time>2013-10-20T06:48:29Z</time>
      </trkpt>
      <trkpt lat="47.35387" lon="-0.65493">
        <ele>45.32</ele>
        <time>2013-10-20T06:48:30Z</time>
      </trkpt>
      <trkpt lat="47.35387" lon="-0.6546">
        <ele>47.72</ele>
        <time>2013-10-20T06:48:36Z</time>
      </trkpt>
      <trkpt lat="47.35377" lon="-0.65452">
        <ele>47.72</ele>
        <time>2013-10-20T06:48:40Z</time>
      </trkpt>
      <trkpt lat="47.35355" lon="-0.65454">
        <ele>49.16</ele>
        <time>2013-10-20T06:48:47Z</time>
      </trkpt>
      <trkpt lat="47.35338" lon="-0.65466">
        <ele>49.65</ele>
        <time>2013-10-20T06:48:53Z</time>
      </trkpt>
      <trkpt lat="47.35319" lon="-0.65492">
        <ele>51.57</ele>
        <time>2013-10-20T06:49:01Z</time>
      </trkpt>
      <trkpt lat="47.35293" lon="-0.65513">
        <ele>54.45</ele>
        <time>2013-10-20T06:49:11Z</time>
      </trkpt>
      <trkpt lat="47.35274" lon="-0.65541">
        <ele>56.37</ele>
        <time>2013-10-20T06:49:20Z</time>
      </trkpt>
      <trkpt lat="47.35259" lon="-0.65568">
        <ele>58.3</ele>
        <time>2013-10-20T06:49:28Z</time>
      </trkpt>
      <trkpt lat="47.35248" lon="-0.65603">
        <ele>58.78</ele>
        <time>2013-10-20T06:49:36Z</time>
      </trkpt>
      <trkpt lat="47.35241" lon="-0.65616">
        <ele>59.26</ele>
        <time>2013-10-20T06:49:40Z</time>
      </trkpt>
      <trkpt lat="47.3523" lon="-0.65612">
        <ele>59.26</ele>
        <time>2013-10-20T06:49:44Z</time>
      </trkpt>
      <trkpt lat="47.35206" lon="-0.65594">
        <ele>60.7</ele>
        <time>2013-10-20T06:49:52Z</time>
      </trkpt>
      <trkpt lat="47.35193" lon="-0.65576">
        <ele>62.14</ele>
        <time>2013-10-20T06:49:58Z</time>
      </trkpt>
      <trkpt lat="47.35195" lon="-0.65551">
        <ele>62.62</ele>
        <time>2013-10-20T06:50:03Z</time>
      </trkpt>
      <trkpt lat="47.35199" lon="-0.65514">
        <ele>62.62</ele>
        <time>2013-10-20T06:50:10Z</time>
      </trkpt>
      <trkpt lat="47.3519" lon="-0.65497">
        <ele>63.58</ele>
        <time>2013-10-20T06:50:14Z</time>
      </trkpt>
      <trkpt lat="47.35163" lon="-0.65474">
        <ele>64.07</ele>
        <time>2013-10-20T06:50:22Z</time>
      </trkpt>
      <trkpt lat="47.35135" lon="-0.65445">
        <ele>65.51</ele>
        <time>2013-10-20T06:50:32Z</time>
      </trkpt>
      <trkpt lat="47.35115" lon="-0.65426">
        <ele>66.95</ele>
        <time>2013-10-20T06:50:39Z</time>
      </trkpt>
      <trkpt lat="47.35113" lon="-0.65423">
        <ele>66.95</ele>
        <time>2013-10-20T06:50:40Z</time>
      </trkpt>
      <trkpt lat="47.35116" lon="-0.654">
        <ele>66.95</ele>
        <time>2013-10-20T06:50:45Z</time>
      </trkpt>
      <trkpt lat="47.35122" lon="-0.6538">
        <ele>66.95</ele>
        <time>2013-10-20T06:50:49Z</time>
      </trkpt>
      <trkpt lat="47.35112" lon="-0.65361">
        <ele>67.91</ele>
        <time>2013-10-20T06:50:54Z</time>
      </trkpt>
      <trkpt lat="47.35088" lon="-0.65332">
        <ele>69.35</ele>
        <time>2013-10-20T06:51:03Z</time>
      </trkpt>
      <trkpt lat="47.35071" lon="-0.65303">
        <ele>70.31</ele>
        <time>2013-10-20T06:51:11Z</time>
      </trkpt>
      <trkpt lat="47.35074" lon="-0.65277">
        <ele>71.76</ele>
        <time>2013-10-20T06:51:17Z</time>
      </trkpt>
      <trkpt lat="47.35081" lon="-0.65251">
        <ele>72.24</ele>
        <time>2013-10-20T06:51:24Z</time>
      </trkpt>
      <trkpt lat="47.35083" lon="-0.65242">
        <ele>71.76</ele>
        <time>2013-10-20T06:51:26Z</time>
      </trkpt>
      <trkpt lat="47.35099" lon="-0.65237">
        <ele>70.79</ele>
        <time>2013-10-20T06:51:31Z</time>
      </trkpt>
      <trkpt lat="47.35114" lon="-0.65229">
        <ele>69.35</ele>
        <time>2013-10-20T06:51:36Z</time>
      </trkpt>
      <trkpt lat="47.35113" lon="-0.65207">
        <ele>70.31</ele>
        <time>2013-10-20T06:51:40Z</time>
      </trkpt>
      <trkpt lat="47.35107" lon="-0.65168">
        <ele>71.76</ele>
        <time>2013-10-20T06:51:47Z</time>
      </trkpt>
      <trkpt lat="47.351" lon="-0.65127">
        <ele>73.68</ele>
        <time>2013-10-20T06:51:55Z</time>
      </trkpt>
      <trkpt lat="47.35094" lon="-0.65097">
        <ele>75.12</ele>
        <time>2013-10-20T06:52:01Z</time>
      </trkpt>
      <trkpt lat="47.35083" lon="-0.65059">
        <ele>77.52</ele>
        <time>2013-10-20T06:52:09Z</time>
      </trkpt>
      <trkpt lat="47.35072" lon="-0.65029">
        <ele>78.97</ele>
        <time>2013-10-20T06:52:16Z</time>
      </trkpt>
      <trkpt lat="47.35061" lon="-0.64989">
        <ele>79.45</ele>
        <time>2013-10-20T06:52:24Z</time>
      </trkpt>
      <trkpt lat="47.35052" lon="-0.6494">
        <ele>77.52</ele>
        <time>2013-10-20T06:52:31Z</time>
      </trkpt>
      <trkpt lat="47.35049" lon="-0.64917">
        <ele>77.52</ele>
        <time>2013-10-20T06:52:34Z</time>
      </trkpt>
      <trkpt lat="47.35057" lon="-0.64902">
        <ele>76.56</ele>
        <time>2013-10-20T06:52:38Z</time>
      </trkpt>
      <trkpt lat="47.35084" lon="-0.64911">
        <ele>77.04</ele>
        <time>2013-10-20T06:52:44Z</time>
      </trkpt>
      <trkpt lat="47.35093" lon="-0.64915">
        <ele>84.73</ele>
        <time>2013-10-20T06:52:46Z</time>
      </trkpt>
      <trkpt lat="47.35098" lon="-0.64916">
        <ele>77.52</ele>
        <time>2013-10-20T06:52:47Z</time>
      </trkpt>
      <trkpt lat="47.35126" lon="-0.64929">
        <ele>73.2</ele>
        <time>2013-10-20T06:52:53Z</time>
      </trkpt>
      <trkpt lat="47.35131" lon="-0.64931">
        <ele>78.97</ele>
        <time>2013-10-20T06:52:54Z</time>
      </trkpt>
      <trkpt lat="47.3514" lon="-0.64936">
        <ele>77.52</ele>
        <time>2013-10-20T06:52:56Z</time>
      </trkpt>
      <trkpt lat="47.35169" lon="-0.64956">
        <ele>76.08</ele>
        <time>2013-10-20T06:53:02Z</time>
      </trkpt>
      <trkpt lat="47.35174" lon="-0.64959">
        <ele>75.6</ele>
        <time>2013-10-20T06:53:03Z</time>
      </trkpt>
      <trkpt lat="47.3519" lon="-0.64951">
        <ele>75.6</ele>
        <time>2013-10-20T06:53:07Z</time>
      </trkpt>
      <trkpt lat="47.35191" lon="-0.64944">
        <ele>75.6</ele>
        <time>2013-10-20T06:53:08Z</time>
      </trkpt>
      <trkpt lat="47.35198" lon="-0.64869">
        <ele>74.16</ele>
        <time>2013-10-20T06:53:17Z</time>
      </trkpt>
      <trkpt lat="47.35208" lon="-0.64795">
        <ele>74.16</ele>
        <time>2013-10-20T06:53:26Z</time>
      </trkpt>
      <trkpt lat="47.35214" lon="-0.64764">
        <ele>74.16</ele>
        <time>2013-10-20T06:53:30Z</time>
      </trkpt>
      <trkpt lat="47.35217" lon="-0.64749">
        <ele>74.64</ele>
        <time>2013-10-20T06:53:32Z</time>
      </trkpt>
      <trkpt lat="47.35239" lon="-0.64704">
        <ele>74.16</ele>
        <time>2013-10-20T06:53:39Z</time>
      </trkpt>
      <trkpt lat="47.35251" lon="-0.64658">
        <ele>73.68</ele>
        <time>2013-10-20T06:53:45Z</time>
      </trkpt>
      <trkpt lat="47.35252" lon="-0.64612">
        <ele>72.24</ele>
        <time>2013-10-20T06:53:50Z</time>
      </trkpt>
      <trkpt lat="47.3526" lon="-0.64556">
        <ele>71.76</ele>
        <time>2013-10-20T06:53:56Z</time>
      </trkpt>
      <trkpt lat="47.3528" lon="-0.64517">
        <ele>70.31</ele>
        <time>2013-10-20T06:54:01Z</time>
      </trkpt>
      <trkpt lat="47.35302" lon="-0.64495">
        <ele>68.87</ele>
        <time>2013-10-20T06:54:05Z</time>
      </trkpt>
      <trkpt lat="47.35319" lon="-0.64476">
        <ele>67.91</ele>
        <time>2013-10-20T06:54:09Z</time>
      </trkpt>
      <trkpt lat="47.35342" lon="-0.64429">
        <ele>65.99</ele>
        <time>2013-10-20T06:54:15Z</time>
      </trkpt>
      <trkpt lat="47.35352" lon="-0.64411">
        <ele>64.07</ele>
        <time>2013-10-20T06:54:17Z</time>
      </trkpt>
      <trkpt lat="47.35385" lon="-0.6438">
        <ele>61.66</ele>
        <time>2013-10-20T06:54:21Z</time>
      </trkpt>
      <trkpt lat="47.35404" lon="-0.6437">
        <ele>60.22</ele>
        <time>2013-10-20T06:54:23Z</time>
      </trkpt>
      <trkpt lat="47.35447" lon="-0.64351">
        <ele>56.86</ele>
        <time>2013-10-20T06:54:27Z</time>
      </trkpt>
      <trkpt lat="47.35469" lon="-0.64343">
        <ele>55.41</ele>
        <time>2013-10-20T06:54:29Z</time>
      </trkpt>
      <trkpt lat="47.3552" lon="-0.64347">
        <ele>51.57</ele>
        <time>2013-10-20T06:54:34Z</time>
      </trkpt>
      <trkpt lat="47.35532" lon="-0.64351">
        <ele>50.13</ele>
        <time>2013-10-20T06:54:36Z</time>
      </trkpt>
      <trkpt lat="47.3555" lon="-0.64348">
        <ele>48.68</ele>
        <time>2013-10-20T06:54:41Z</time>
      </trkpt>
      <trkpt lat="47.35555" lon="-0.64323">
        <ele>49.16</ele>
        <time>2013-10-20T06:54:45Z</time>
      </trkpt>
      <trkpt lat="47.35569" lon="-0.64274">
        <ele>48.68</ele>
        <time>2013-10-20T06:54:52Z</time>
      </trkpt>
      <trkpt lat="47.35573" lon="-0.64255">
        <ele>47.24</ele>
        <time>2013-10-20T06:54:55Z</time>
      </trkpt>
      <trkpt lat="47.35582" lon="-0.64239">
        <ele>46.76</ele>
        <time>2013-10-20T06:54:58Z</time>
      </trkpt>
      <trkpt lat="47.35598" lon="-0.64196">
        <ele>45.8</ele>
        <time>2013-10-20T06:55:04Z</time>
      </trkpt>
      <trkpt lat="47.356" lon="-0.64189">
        <ele>45.8</ele>
        <time>2013-10-20T06:55:05Z</time>
      </trkpt>
      <trkpt lat="47.35611" lon="-0.64166">
        <ele>45.32</ele>
        <time>2013-10-20T06:55:09Z</time>
      </trkpt>
      <trkpt lat="47.35608" lon="-0.64144">
        <ele>45.32</ele>
        <time>2013-10-20T06:55:13Z</time>
      </trkpt>
      <trkpt lat="47.35603" lon="-0.64119">
        <ele>43.88</ele>
        <time>2013-10-20T06:55:17Z</time>
      </trkpt>
      <trkpt lat="47.35608" lon="-0.64111">
        <ele>43.4</ele>
        <time>2013-10-20T06:55:19Z</time>
      </trkpt>
      <trkpt lat="47.35616" lon="-0.64105">
        <ele>43.4</ele>
        <time>2013-10-20T06:55:21Z</time>
      </trkpt>
      <trkpt lat="47.35644" lon="-0.64071">
        <ele>42.44</ele>
        <time>2013-10-20T06:55:28Z</time>
      </trkpt>
      <trkpt lat="47.35663" lon="-0.64067">
        <ele>41.47</ele>
        <time>2013-10-20T06:55:32Z</time>
      </trkpt>
      <trkpt lat="47.35673" lon="-0.64076">
        <ele>40.99</ele>
        <time>2013-10-20T06:55:34Z</time>
      </trkpt>
      <trkpt lat="47.35706" lon="-0.64109">
        <ele>40.51</ele>
        <time>2013-10-20T06:55:41Z</time>
      </trkpt>
      <trkpt lat="47.35713" lon="-0.64117">
        <ele>40.03</ele>
        <time>2013-10-20T06:55:43Z</time>
      </trkpt>
      <trkpt lat="47.35725" lon="-0.64104">
        <ele>39.07</ele>
        <time>2013-10-20T06:55:47Z</time>
      </trkpt>
      <trkpt lat="47.35742" lon="-0.6406">
        <ele>38.11</ele>
        <time>2013-10-20T06:55:53Z</time>
      </trkpt>
      <trkpt lat="47.35771" lon="-0.63989">
        <ele>35.23</ele>
        <time>2013-10-20T06:56:01Z</time>
      </trkpt>
      <trkpt lat="47.35784" lon="-0.63961">
        <ele>33.3</ele>
        <time>2013-10-20T06:56:04Z</time>
      </trkpt>
      <trkpt lat="47.358" lon="-0.6393">
        <ele>31.38</ele>
        <time>2013-10-20T06:56:08Z</time>
      </trkpt>
      <trkpt lat="47.35823" lon="-0.63887">
        <ele>29.94</ele>
        <time>2013-10-20T06:56:15Z</time>
      </trkpt>
      <trkpt lat="47.35848" lon="-0.63837">
        <ele>27.53</ele>
        <time>2013-10-20T06:56:21Z</time>
      </trkpt>
      <trkpt lat="47.35871" lon="-0.638">
        <ele>25.13</ele>
        <time>2013-10-20T06:56:25Z</time>
      </trkpt>
      <trkpt lat="47.35899" lon="-0.63751">
        <ele>22.25</ele>
        <time>2013-10-20T06:56:30Z</time>
      </trkpt>
      <trkpt lat="47.35904" lon="-0.63743">
        <ele>20.32</ele>
        <time>2013-10-20T06:56:31Z</time>
      </trkpt>
      <trkpt lat="47.3591" lon="-0.63728">
        <ele>18.88</ele>
        <time>2013-10-20T06:56:33Z</time>
      </trkpt>
      <trkpt lat="47.35904" lon="-0.63708">
        <ele>18.88</ele>
        <time>2013-10-20T06:56:36Z</time>
      </trkpt>
      <trkpt lat="47.35897" lon="-0.63695">
        <ele>18.88</ele>
        <time>2013-10-20T06:56:38Z</time>
      </trkpt>
      <trkpt lat="47.35879" lon="-0.63673">
        <ele>18.88</ele>
        <time>2013-10-20T06:56:42Z</time>
      </trkpt>
      <trkpt lat="47.35852" lon="-0.63658">
        <ele>17.92</ele>
        <time>2013-10-20T06:56:48Z</time>
      </trkpt>
      <trkpt lat="47.35844" lon="-0.63639">
        <ele>16.96</ele>
        <time>2013-10-20T06:56:53Z</time>
      </trkpt>
      <trkpt lat="47.35843" lon="-0.63626">
        <ele>16.96</ele>
        <time>2013-10-20T06:56:57Z</time>
      </trkpt>
      <trkpt lat="47.35843" lon="-0.63621">
        <ele>16.96</ele>
        <time>2013-10-20T06:56:59Z</time>
      </trkpt>
      <trkpt lat="47.35845" lon="-0.63605">
        <ele>17.44</ele>
        <time>2013-10-20T06:57:04Z</time>
      </trkpt>
      <trkpt lat="47.35848" lon="-0.63596">
        <ele>17.44</ele>
        <time>2013-10-20T06:57:07Z</time>
      </trkpt>
      <trkpt lat="47.35856" lon="-0.636">
        <ele>16.96</ele>
        <time>2013-10-20T06:57:12Z</time>
      </trkpt>
      <trkpt lat="47.3587" lon="-0.63603">
        <ele>17.44</ele>
        <time>2013-10-20T06:57:17Z</time>
      </trkpt>
      <trkpt lat="47.35876" lon="-0.63604">
        <ele>17.44</ele>
        <time>2013-10-20T06:57:20Z</time>
      </trkpt>
      <trkpt lat="47.35894" lon="-0.6361">
        <ele>16.96</ele>
        <time>2013-10-20T06:57:27Z</time>
      </trkpt>
      <trkpt lat="47.359" lon="-0.63613">
        <ele>16.96</ele>
        <time>2013-10-20T06:57:30Z</time>
      </trkpt>
      <trkpt lat="47.35913" lon="-0.63613">
        <ele>16.96</ele>
        <time>2013-10-20T06:57:37Z</time>
      </trkpt>
      <trkpt lat="47.35919" lon="-0.63618">
        <ele>16.96</ele>
        <time>2013-10-20T06:57:40Z</time>
      </trkpt>
      <trkpt lat="47.35927" lon="-0.63614">
        <ele>18.4</ele>
        <time>2013-10-20T06:57:45Z</time>
      </trkpt>
      <trkpt lat="47.35929" lon="-0.63614">
        <ele>18.4</ele>
        <time>2013-10-20T06:57:51Z</time>
      </trkpt>
      <trkpt lat="47.35937" lon="-0.63614">
        <ele>19.84</ele>
        <time>2013-10-20T06:57:57Z</time>
      </trkpt>
      <trkpt lat="47.3594" lon="-0.63615">
        <ele>20.32</ele>
        <time>2013-10-20T06:57:59Z</time>
      </trkpt>
      <trkpt lat="47.35946" lon="-0.63618">
        <ele>20.32</ele>
        <time>2013-10-20T06:58:03Z</time>
      </trkpt>
      <trkpt lat="47.35957" lon="-0.63621">
        <ele>21.77</ele>
        <time>2013-10-20T06:58:07Z</time>
      </trkpt>
      <trkpt lat="47.35964" lon="-0.63623">
        <ele>22.73</ele>
        <time>2013-10-20T06:58:10Z</time>
      </trkpt>
      <trkpt lat="47.35977" lon="-0.63625">
        <ele>24.65</ele>
        <time>2013-10-20T06:58:17Z</time>
      </trkpt>
      <trkpt lat="47.35989" lon="-0.63628">
        <ele>26.09</ele>
        <time>2013-10-20T06:58:25Z</time>
      </trkpt>
      <trkpt lat="47.35995" lon="-0.63628">
        <ele>27.53</ele>
        <time>2013-10-20T06:58:32Z</time>
      </trkpt>
      <trkpt lat="47.36002" lon="-0.63629">
        <ele>29.94</ele>
        <time>2013-10-20T06:58:40Z</time>
      </trkpt>
      <trkpt lat="47.3601" lon="-0.63629">
        <ele>32.34</ele>
        <time>2013-10-20T06:58:48Z</time>
      </trkpt>
      <trkpt lat="47.36011" lon="-0.63632">
        <ele>32.34</ele>
        <time>2013-10-20T06:58:51Z</time>
      </trkpt>
      <trkpt lat="47.36014" lon="-0.63638">
        <ele>33.3</ele>
        <time>2013-10-20T06:58:56Z</time>
      </trkpt>
      <trkpt lat="47.36016" lon="-0.63645">
        <ele>34.26</ele>
        <time>2013-10-20T06:59:00Z</time>
      </trkpt>
      <trkpt lat="47.3602" lon="-0.63649">
        <ele>36.19</ele>
        <time>2013-10-20T06:59:09Z</time>
      </trkpt>
      <trkpt lat="47.36023" lon="-0.63645">
        <ele>37.15</ele>
        <time>2013-10-20T06:59:14Z</time>
      </trkpt>
      <trkpt lat="47.3603" lon="-0.63643">
        <ele>37.15</ele>
        <time>2013-10-20T06:59:21Z</time>
      </trkpt>
      <trkpt lat="47.36035" lon="-0.63632">
        <ele>37.63</ele>
        <time>2013-10-20T06:59:28Z</time>
      </trkpt>
      <trkpt lat="47.36044" lon="-0.63611">
        <ele>38.11</ele>
        <time>2013-10-20T06:59:35Z</time>
      </trkpt>
      <trkpt lat="47.36048" lon="-0.63605">
        <ele>38.11</ele>
        <time>2013-10-20T06:59:41Z</time>
      </trkpt>
      <trkpt lat="47.36049" lon="-0.63606">
        <ele>37.63</ele>
        <time>2013-10-20T06:59:47Z</time>
      </trkpt>
      <trkpt lat="47.36049" lon="-0.63606">
        <ele>37.63</ele>
        <time>2013-10-20T07:00:02Z</time>
      </trkpt>
      <trkpt lat="47.36049" lon="-0.63606">
        <ele>37.63</ele>
        <time>2013-10-20T07:00:21Z</time>
      </trkpt>
      <trkpt lat="47.36049" lon="-0.63606">
        <ele>37.63</ele>
        <time>2013-10-20T07:00:39Z</time>
      </trkpt>
      <trkpt lat="47.36049" lon="-0.63606">
        <ele>38.11</ele>
        <time>2013-10-20T07:00:53Z</time>
      </trkpt>
      <trkpt lat="47.36049" lon="-0.63606">
        <ele>37.63</ele>
        <time>2013-10-20T07:01:10Z</time>
      </trkpt>
      <trkpt lat="47.36049" lon="-0.63606">
        <ele>37.63</ele>
        <time>2013-10-20T07:01:27Z</time>
      </trkpt>
      <trkpt lat="47.36049" lon="-0.63606">
        <ele>37.15</ele>
        <time>2013-10-20T07:01:47Z</time>
      </trkpt>
      <trkpt lat="47.36049" lon="-0.63606">
        <ele>37.63</ele>
        <time>2013-10-20T07:02:03Z</time>
      </trkpt>
      <trkpt lat="47.36049" lon="-0.63606">
        <ele>37.15</ele>
        <time>2013-10-20T07:02:23Z</time>
      </trkpt>
      <trkpt lat="47.36049" lon="-0.63606">
        <ele>37.63</ele>
        <time>2013-10-20T07:02:42Z</time>
      </trkpt>
      <trkpt lat="47.36049" lon="-0.63606">
        <ele>37.63</ele>
        <time>2013-10-20T07:03:01Z</time>
      </trkpt>
      <trkpt lat="47.36049" lon="-0.63607">
        <ele>37.15</ele>
        <time>2013-10-20T07:03:19Z</time>
      </trkpt>
      <trkpt lat="47.36049" lon="-0.63607">
        <ele>37.15</ele>
        <time>2013-10-20T07:03:33Z</time>
      </trkpt>
      <trkpt lat="47.36049" lon="-0.63605">
        <ele>37.63</ele>
        <time>2013-10-20T07:03:42Z</time>
      </trkpt>
      <trkpt lat="47.36053" lon="-0.63588">
        <ele>37.63</ele>
        <time>2013-10-20T07:03:49Z</time>
      </trkpt>
      <trkpt lat="47.36053" lon="-0.63586">
        <ele>37.63</ele>
        <time>2013-10-20T07:03:50Z</time>
      </trkpt>
      <trkpt lat="47.3605" lon="-0.6357">
        <ele>38.11</ele>
        <time>2013-10-20T07:03:58Z</time>
      </trkpt>
      <trkpt lat="47.36047" lon="-0.63548">
        <ele>38.11</ele>
        <time>2013-10-20T07:04:07Z</time>
      </trkpt>
      <trkpt lat="47.36047" lon="-0.6352">
        <ele>39.07</ele>
        <time>2013-10-20T07:04:15Z</time>
      </trkpt>
      <trkpt lat="47.36051" lon="-0.63501">
        <ele>40.03</ele>
        <time>2013-10-20T07:04:20Z</time>
      </trkpt>
      <trkpt lat="47.36064" lon="-0.63486">
        <ele>40.51</ele>
        <time>2013-10-20T07:04:25Z</time>
      </trkpt>
      <trkpt lat="47.36087" lon="-0.63453">
        <ele>40.51</ele>
        <time>2013-10-20T07:04:33Z</time>
      </trkpt>
      <trkpt lat="47.36099" lon="-0.63428">
        <ele>39.55</ele>
        <time>2013-10-20T07:04:39Z</time>
      </trkpt>
      <trkpt lat="47.36077" lon="-0.63404">
        <ele>41.95</ele>
        <time>2013-10-20T07:04:47Z</time>
      </trkpt>
      <trkpt lat="47.36084" lon="-0.63377">
        <ele>42.92</ele>
        <time>2013-10-20T07:04:53Z</time>
      </trkpt>
      <trkpt lat="47.36101" lon="-0.63335">
        <ele>43.4</ele>
        <time>2013-10-20T07:05:02Z</time>
      </trkpt>
      <trkpt lat="47.36108" lon="-0.63318">
        <ele>43.4</ele>
        <time>2013-10-20T07:05:06Z</time>
      </trkpt>
      <trkpt lat="47.36103" lon="-0.63301">
        <ele>44.84</ele>
        <time>2013-10-20T07:05:11Z</time>
      </trkpt>
      <trkpt lat="47.36112" lon="-0.63272">
        <ele>44.84</ele>
        <time>2013-10-20T07:05:18Z</time>
      </trkpt>
      <trkpt lat="47.36116" lon="-0.63262">
        <ele>45.32</ele>
        <time>2013-10-20T07:05:20Z</time>
      </trkpt>
      <trkpt lat="47.36131" lon="-0.63238">
        <ele>44.36</ele>
        <time>2013-10-20T07:05:25Z</time>
      </trkpt>
      <trkpt lat="47.36142" lon="-0.63217">
        <ele>43.88</ele>
        <time>2013-10-20T07:05:29Z</time>
      </trkpt>
      <trkpt lat="47.36153" lon="-0.63189">
        <ele>43.4</ele>
        <time>2013-10-20T07:05:34Z</time>
      </trkpt>
      <trkpt lat="47.36164" lon="-0.63153">
        <ele>43.4</ele>
        <time>2013-10-20T07:05:40Z</time>
      </trkpt>
      <trkpt lat="47.36168" lon="-0.63137">
        <ele>43.88</ele>
        <time>2013-10-20T07:05:43Z</time>
      </trkpt>
      <trkpt lat="47.36182" lon="-0.631">
        <ele>43.88</ele>
        <time>2013-10-20T07:05:50Z</time>
      </trkpt>
      <trkpt lat="47.36196" lon="-0.63105">
        <ele>43.4</ele>
        <time>2013-10-20T07:05:54Z</time>
      </trkpt>
      <trkpt lat="47.362" lon="-0.63108">
        <ele>42.92</ele>
        <time>2013-10-20T07:05:55Z</time>
      </trkpt>
      <trkpt lat="47.36234" lon="-0.63143">
        <ele>40.03</ele>
        <time>2013-10-20T07:06:02Z</time>
      </trkpt>
      <trkpt lat="47.36276" lon="-0.63187">
        <ele>37.63</ele>
        <time>2013-10-20T07:06:10Z</time>
      </trkpt>
      <trkpt lat="47.36294" lon="-0.63182">
        <ele>37.15</ele>
        <time>2013-10-20T07:06:14Z</time>
      </trkpt>
      <trkpt lat="47.36318" lon="-0.63163">
        <ele>36.67</ele>
        <time>2013-10-20T07:06:19Z</time>
      </trkpt>
      <trkpt lat="47.36332" lon="-0.63146">
        <ele>36.67</ele>
        <time>2013-10-20T07:06:22Z</time>
      </trkpt>
      <trkpt lat="47.36345" lon="-0.63127">
        <ele>35.71</ele>
        <time>2013-10-20T07:06:25Z</time>
      </trkpt>
      <trkpt lat="47.36365" lon="-0.63087">
        <ele>35.71</ele>
        <time>2013-10-20T07:06:31Z</time>
      </trkpt>
      <trkpt lat="47.36376" lon="-0.63085">
        <ele>35.71</ele>
        <time>2013-10-20T07:06:35Z</time>
      </trkpt>
      <trkpt lat="47.36378" lon="-0.6309">
        <ele>36.19</ele>
        <time>2013-10-20T07:06:36Z</time>
      </trkpt>
      <trkpt lat="47.36381" lon="-0.63102">
        <ele>36.19</ele>
        <time>2013-10-20T07:06:38Z</time>
      </trkpt>
      <trkpt lat="47.36408" lon="-0.6317">
        <ele>34.26</ele>
        <time>2013-10-20T07:06:47Z</time>
      </trkpt>
      <trkpt lat="47.3643" lon="-0.63223">
        <ele>32.82</ele>
        <time>2013-10-20T07:06:54Z</time>
      </trkpt>
      <trkpt lat="47.36442" lon="-0.63237">
        <ele>31.38</ele>
        <time>2013-10-20T07:06:59Z</time>
      </trkpt>
      <trkpt lat="47.36454" lon="-0.63235">
        <ele>31.86</ele>
        <time>2013-10-20T07:07:03Z</time>
      </trkpt>
      <trkpt lat="47.36471" lon="-0.6324">
        <ele>30.9</ele>
        <time>2013-10-20T07:07:07Z</time>
      </trkpt>
      <trkpt lat="47.36514" lon="-0.63233">
        <ele>29.46</ele>
        <time>2013-10-20T07:07:14Z</time>
      </trkpt>
      <trkpt lat="47.36554" lon="-0.63225">
        <ele>30.42</ele>
        <time>2013-10-20T07:07:21Z</time>
      </trkpt>
      <trkpt lat="47.3657" lon="-0.63222">
        <ele>29.94</ele>
        <time>2013-10-20T07:07:24Z</time>
      </trkpt>
      <trkpt lat="47.36591" lon="-0.63226">
        <ele>30.42</ele>
        <time>2013-10-20T07:07:28Z</time>
      </trkpt>
      <trkpt lat="47.36615" lon="-0.63235">
        <ele>29.46</ele>
        <time>2013-10-20T07:07:32Z</time>
      </trkpt>
      <trkpt lat="47.36663" lon="-0.63264">
        <ele>28.02</ele>
        <time>2013-10-20T07:07:40Z</time>
      </trkpt>
      <trkpt lat="47.36674" lon="-0.63272">
        <ele>28.5</ele>
        <time>2013-10-20T07:07:42Z</time>
      </trkpt>
      <trkpt lat="47.36715" lon="-0.63314">
        <ele>28.02</ele>
        <time>2013-10-20T07:07:50Z</time>
      </trkpt>
      <trkpt lat="47.36744" lon="-0.63355">
        <ele>27.05</ele>
        <time>2013-10-20T07:07:56Z</time>
      </trkpt>
      <trkpt lat="47.36761" lon="-0.63365">
        <ele>25.13</ele>
        <time>2013-10-20T07:08:00Z</time>
      </trkpt>
      <trkpt lat="47.36764" lon="-0.63351">
        <ele>25.13</ele>
        <time>2013-10-20T07:08:03Z</time>
      </trkpt>
      <trkpt lat="47.36771" lon="-0.63342">
        <ele>25.13</ele>
        <time>2013-10-20T07:08:05Z</time>
      </trkpt>
      <trkpt lat="47.36806" lon="-0.63302">
        <ele>23.69</ele>
        <time>2013-10-20T07:08:12Z</time>
      </trkpt>
      <trkpt lat="47.36815" lon="-0.63274">
        <ele>21.77</ele>
        <time>2013-10-20T07:08:16Z</time>
      </trkpt>
      <trkpt lat="47.36804" lon="-0.63261">
        <ele>22.73</ele>
        <time>2013-10-20T07:08:19Z</time>
      </trkpt>
      <trkpt lat="47.368" lon="-0.63257">
        <ele>22.73</ele>
        <time>2013-10-20T07:08:20Z</time>
      </trkpt>
      <trkpt lat="47.36788" lon="-0.63245">
        <ele>23.69</ele>
        <time>2013-10-20T07:08:23Z</time>
      </trkpt>
      <trkpt lat="47.36781" lon="-0.6322">
        <ele>24.17</ele>
        <time>2013-10-20T07:08:28Z</time>
      </trkpt>
      <trkpt lat="47.36794" lon="-0.632">
        <ele>23.69</ele>
        <time>2013-10-20T07:08:32Z</time>
      </trkpt>
      <trkpt lat="47.36809" lon="-0.63176">
        <ele>23.21</ele>
        <time>2013-10-20T07:08:36Z</time>
      </trkpt>
      <trkpt lat="47.36844" lon="-0.63138">
        <ele>24.17</ele>
        <time>2013-10-20T07:08:44Z</time>
      </trkpt>
      <trkpt lat="47.36848" lon="-0.63132">
        <ele>23.69</ele>
        <time>2013-10-20T07:08:45Z</time>
      </trkpt>
      <trkpt lat="47.36879" lon="-0.63082">
        <ele>26.09</ele>
        <time>2013-10-20T07:08:54Z</time>
      </trkpt>
      <trkpt lat="47.36886" lon="-0.63072">
        <ele>25.61</ele>
        <time>2013-10-20T07:08:56Z</time>
      </trkpt>
      <trkpt lat="47.36916" lon="-0.63017">
        <ele>28.02</ele>
        <time>2013-10-20T07:09:06Z</time>
      </trkpt>
      <trkpt lat="47.36919" lon="-0.63012">
        <ele>28.02</ele>
        <time>2013-10-20T07:09:07Z</time>
      </trkpt>
      <trkpt lat="47.36923" lon="-0.63001">
        <ele>28.5</ele>
        <time>2013-10-20T07:09:09Z</time>
      </trkpt>
      <trkpt lat="47.3693" lon="-0.62975">
        <ele>28.5</ele>
        <time>2013-10-20T07:09:13Z</time>
      </trkpt>
      <trkpt lat="47.36937" lon="-0.62955">
        <ele>28.98</ele>
        <time>2013-10-20T07:09:16Z</time>
      </trkpt>
      <trkpt lat="47.3694" lon="-0.62942">
        <ele>28.98</ele>
        <time>2013-10-20T07:09:18Z</time>
      </trkpt>
      <trkpt lat="47.36963" lon="-0.62894">
        <ele>29.46</ele>
        <time>2013-10-20T07:09:26Z</time>
      </trkpt>
      <trkpt lat="47.36981" lon="-0.62863">
        <ele>28.5</ele>
        <time>2013-10-20T07:09:31Z</time>
      </trkpt>
      <trkpt lat="47.37009" lon="-0.62814">
        <ele>28.98</ele>
        <time>2013-10-20T07:09:39Z</time>
      </trkpt>
      <trkpt lat="47.37013" lon="-0.62808">
        <ele>28.98</ele>
        <time>2013-10-20T07:09:40Z</time>
      </trkpt>
      <trkpt lat="47.3704" lon="-0.62762">
        <ele>27.05</ele>
        <time>2013-10-20T07:09:48Z</time>
      </trkpt>
      <trkpt lat="47.37057" lon="-0.62763">
        <ele>26.57</ele>
        <time>2013-10-20T07:09:52Z</time>
      </trkpt>
      <trkpt lat="47.37066" lon="-0.62771">
        <ele>27.05</ele>
        <time>2013-10-20T07:09:54Z</time>
      </trkpt>
      <trkpt lat="47.37082" lon="-0.62768">
        <ele>27.05</ele>
        <time>2013-10-20T07:09:58Z</time>
      </trkpt>
      <trkpt lat="47.37107" lon="-0.62729">
        <ele>29.94</ele>
        <time>2013-10-20T07:10:06Z</time>
      </trkpt>
      <trkpt lat="47.37124" lon="-0.62702">
        <ele>29.94</ele>
        <time>2013-10-20T07:10:12Z</time>
      </trkpt>
      <trkpt lat="47.37152" lon="-0.62655">
        <ele>31.38</ele>
        <time>2013-10-20T07:10:21Z</time>
      </trkpt>
      <trkpt lat="47.3718" lon="-0.62609">
        <ele>30.42</ele>
        <time>2013-10-20T07:10:29Z</time>
      </trkpt>
      <trkpt lat="47.37206" lon="-0.62566">
        <ele>30.42</ele>
        <time>2013-10-20T07:10:37Z</time>
      </trkpt>
      <trkpt lat="47.37231" lon="-0.62524">
        <ele>30.42</ele>
        <time>2013-10-20T07:10:45Z</time>
      </trkpt>
      <trkpt lat="47.37265" lon="-0.62467">
        <ele>30.42</ele>
        <time>2013-10-20T07:10:55Z</time>
      </trkpt>
      <trkpt lat="47.37272" lon="-0.62455">
        <ele>30.42</ele>
        <time>2013-10-20T07:10:57Z</time>
      </trkpt>
      <trkpt lat="47.37298" lon="-0.62409">
        <ele>30.42</ele>
        <time>2013-10-20T07:11:05Z</time>
      </trkpt>
      <trkpt lat="47.37302" lon="-0.62403">
        <ele>29.94</ele>
        <time>2013-10-20T07:11:06Z</time>
      </trkpt>
      <trkpt lat="47.37316" lon="-0.62399">
        <ele>29.46</ele>
        <time>2013-10-20T07:11:10Z</time>
      </trkpt>
      <trkpt lat="47.37319" lon="-0.6241">
        <ele>29.94</ele>
        <time>2013-10-20T07:11:12Z</time>
      </trkpt>
      <trkpt lat="47.37324" lon="-0.62435">
        <ele>29.94</ele>
        <time>2013-10-20T07:11:16Z</time>
      </trkpt>
      <trkpt lat="47.37329" lon="-0.62454">
        <ele>29.94</ele>
        <time>2013-10-20T07:11:19Z</time>
      </trkpt>
      <trkpt lat="47.37338" lon="-0.6247">
        <ele>29.94</ele>
        <time>2013-10-20T07:11:22Z</time>
      </trkpt>
      <trkpt lat="47.3737" lon="-0.62513">
        <ele>29.46</ele>
        <time>2013-10-20T07:11:31Z</time>
      </trkpt>
      <trkpt lat="47.37395" lon="-0.62546">
        <ele>29.46</ele>
        <time>2013-10-20T07:11:37Z</time>
      </trkpt>
      <trkpt lat="47.37432" lon="-0.62595">
        <ele>28.98</ele>
        <time>2013-10-20T07:11:45Z</time>
      </trkpt>
      <trkpt lat="47.3745" lon="-0.62621">
        <ele>28.5</ele>
        <time>2013-10-20T07:11:49Z</time>
      </trkpt>
      <trkpt lat="47.3747" lon="-0.62659">
        <ele>28.02</ele>
        <time>2013-10-20T07:11:55Z</time>
      </trkpt>
      <trkpt lat="47.37472" lon="-0.62665">
        <ele>28.02</ele>
        <time>2013-10-20T07:11:56Z</time>
      </trkpt>
      <trkpt lat="47.37481" lon="-0.62682">
        <ele>27.05</ele>
        <time>2013-10-20T07:11:59Z</time>
      </trkpt>
      <trkpt lat="47.37485" lon="-0.62686">
        <ele>27.05</ele>
        <time>2013-10-20T07:12:00Z</time>
      </trkpt>
      <trkpt lat="47.37513" lon="-0.62733">
        <ele>25.13</ele>
        <time>2013-10-20T07:12:09Z</time>
      </trkpt>
      <trkpt lat="47.37517" lon="-0.62737">
        <ele>24.65</ele>
        <time>2013-10-20T07:12:10Z</time>
      </trkpt>
      <trkpt lat="47.37528" lon="-0.62749">
        <ele>24.65</ele>
        <time>2013-10-20T07:12:13Z</time>
      </trkpt>
      <trkpt lat="47.37556" lon="-0.62785">
        <ele>21.29</ele>
        <time>2013-10-20T07:12:21Z</time>
      </trkpt>
      <trkpt lat="47.37573" lon="-0.62815">
        <ele>17.44</ele>
        <time>2013-10-20T07:12:25Z</time>
      </trkpt>
      <trkpt lat="47.37607" lon="-0.62855">
        <ele>14.56</ele>
        <time>2013-10-20T07:12:31Z</time>
      </trkpt>
      <trkpt lat="47.37625" lon="-0.62877">
        <ele>13.6</ele>
        <time>2013-10-20T07:12:34Z</time>
      </trkpt>
      <trkpt lat="47.37645" lon="-0.62887">
        <ele>13.12</ele>
        <time>2013-10-20T07:12:39Z</time>
      </trkpt>
      <trkpt lat="47.37655" lon="-0.62877">
        <ele>13.12</ele>
        <time>2013-10-20T07:12:42Z</time>
      </trkpt>
      <trkpt lat="47.37659" lon="-0.62867">
        <ele>13.12</ele>
        <time>2013-10-20T07:12:44Z</time>
      </trkpt>
      <trkpt lat="47.37672" lon="-0.62841">
        <ele>14.08</ele>
        <time>2013-10-20T07:12:49Z</time>
      </trkpt>
      <trkpt lat="47.37681" lon="-0.62821">
        <ele>14.08</ele>
        <time>2013-10-20T07:12:53Z</time>
      </trkpt>
      <trkpt lat="47.37695" lon="-0.6279">
        <ele>13.6</ele>
        <time>2013-10-20T07:12:59Z</time>
      </trkpt>
      <trkpt lat="47.37708" lon="-0.6275">
        <ele>12.63</ele>
        <time>2013-10-20T07:13:07Z</time>
      </trkpt>
      <trkpt lat="47.37711" lon="-0.6274">
        <ele>12.63</ele>
        <time>2013-10-20T07:13:13Z</time>
      </trkpt>
      <trkpt lat="47.37711" lon="-0.62739">
        <ele>12.15</ele>
        <time>2013-10-20T07:13:25Z</time>
      </trkpt>
      <trkpt lat="47.37709" lon="-0.62728">
        <ele>12.15</ele>
        <time>2013-10-20T07:13:30Z</time>
      </trkpt>
      <trkpt lat="47.37707" lon="-0.62718">
        <ele>12.63</ele>
        <time>2013-10-20T07:13:34Z</time>
      </trkpt>
      <trkpt lat="47.37705" lon="-0.62702">
        <ele>13.12</ele>
        <time>2013-10-20T07:13:38Z</time>
      </trkpt>
      <trkpt lat="47.377" lon="-0.62676">
        <ele>13.6</ele>
        <time>2013-10-20T07:13:45Z</time>
      </trkpt>
      <trkpt lat="47.37696" lon="-0.6266">
        <ele>14.08</ele>
        <time>2013-10-20T07:13:48Z</time>
      </trkpt>
      <trkpt lat="47.37699" lon="-0.62624">
        <ele>13.6</ele>
        <time>2013-10-20T07:13:55Z</time>
      </trkpt>
      <trkpt lat="47.37701" lon="-0.62601">
        <ele>13.6</ele>
        <time>2013-10-20T07:14:00Z</time>
      </trkpt>
      <trkpt lat="47.37701" lon="-0.62583">
        <ele>13.6</ele>
        <time>2013-10-20T07:14:06Z</time>
      </trkpt>
      <trkpt lat="47.37701" lon="-0.62573">
        <ele>13.12</ele>
        <time>2013-10-20T07:14:14Z</time>
      </trkpt>
      <trkpt lat="47.37699" lon="-0.62568">
        <ele>13.12</ele>
        <time>2013-10-20T07:14:19Z</time>
      </trkpt>
      <trkpt lat="47.37695" lon="-0.62557">
        <ele>13.6</ele>
        <time>2013-10-20T07:14:26Z</time>
      </trkpt>
      <trkpt lat="47.37694" lon="-0.62533">
        <ele>14.56</ele>
        <time>2013-10-20T07:14:34Z</time>
      </trkpt>
      <trkpt lat="47.37697" lon="-0.62495">
        <ele>14.08</ele>
        <time>2013-10-20T07:14:40Z</time>
      </trkpt>
      <trkpt lat="47.37699" lon="-0.62479">
        <ele>14.56</ele>
        <time>2013-10-20T07:14:43Z</time>
      </trkpt>
      <trkpt lat="47.37699" lon="-0.62465">
        <ele>14.56</ele>
        <time>2013-10-20T07:14:45Z</time>
      </trkpt>
      <trkpt lat="47.37706" lon="-0.62428">
        <ele>15.04</ele>
        <time>2013-10-20T07:14:49Z</time>
      </trkpt>
      <trkpt lat="47.37716" lon="-0.62382">
        <ele>14.56</ele>
        <time>2013-10-20T07:14:54Z</time>
      </trkpt>
      <trkpt lat="47.37725" lon="-0.62342">
        <ele>14.56</ele>
        <time>2013-10-20T07:14:59Z</time>
      </trkpt>
      <trkpt lat="47.37731" lon="-0.62329">
        <ele>14.56</ele>
        <time>2013-10-20T07:15:01Z</time>
      </trkpt>
      <trkpt lat="47.37736" lon="-0.62301">
        <ele>13.6</ele>
        <time>2013-10-20T07:15:05Z</time>
      </trkpt>
      <trkpt lat="47.37749" lon="-0.62272">
        <ele>13.12</ele>
        <time>2013-10-20T07:15:11Z</time>
      </trkpt>
      <trkpt lat="47.37757" lon="-0.62251">
        <ele>14.56</ele>
        <time>2013-10-20T07:15:15Z</time>
      </trkpt>
      <trkpt lat="47.37769" lon="-0.62224">
        <ele>14.56</ele>
        <time>2013-10-20T07:15:20Z</time>
      </trkpt>
      <trkpt lat="47.37782" lon="-0.62189">
        <ele>14.56</ele>
        <time>2013-10-20T07:15:27Z</time>
      </trkpt>
      <trkpt lat="47.37805" lon="-0.62156">
        <ele>13.12</ele>
        <time>2013-10-20T07:15:34Z</time>
      </trkpt>
      <trkpt lat="47.37811" lon="-0.62153">
        <ele>13.12</ele>
        <time>2013-10-20T07:15:40Z</time>
      </trkpt>
      <trkpt lat="47.37813" lon="-0.62151">
        <ele>13.12</ele>
        <time>2013-10-20T07:15:46Z</time>
      </trkpt>
      <trkpt lat="47.37813" lon="-0.6215">
        <ele>13.6</ele>
        <time>2013-10-20T07:15:47Z</time>
      </trkpt>
      <trkpt lat="47.37815" lon="-0.62147">
        <ele>13.12</ele>
        <time>2013-10-20T07:15:50Z</time>
      </trkpt>
      <trkpt lat="47.37816" lon="-0.62145">
        <ele>13.12</ele>
        <time>2013-10-20T07:15:55Z</time>
      </trkpt>
      <trkpt lat="47.37817" lon="-0.62144">
        <ele>12.63</ele>
        <time>2013-10-20T07:15:56Z</time>
      </trkpt>
      <trkpt lat="47.37827" lon="-0.62139">
        <ele>13.6</ele>
        <time>2013-10-20T07:16:05Z</time>
      </trkpt>
      <trkpt lat="47.3783" lon="-0.62136">
        <ele>12.63</ele>
        <time>2013-10-20T07:16:08Z</time>
      </trkpt>
      <trkpt lat="47.37836" lon="-0.62137">
        <ele>13.6</ele>
        <time>2013-10-20T07:16:13Z</time>
      </trkpt>
      <trkpt lat="47.37842" lon="-0.62132">
        <ele>14.08</ele>
        <time>2013-10-20T07:16:19Z</time>
      </trkpt>
      <trkpt lat="47.37851" lon="-0.62132">
        <ele>14.08</ele>
        <time>2013-10-20T07:16:26Z</time>
      </trkpt>
      <trkpt lat="47.37856" lon="-0.62126">
        <ele>14.08</ele>
        <time>2013-10-20T07:16:32Z</time>
      </trkpt>
      <trkpt lat="47.37858" lon="-0.62122">
        <ele>13.6</ele>
        <time>2013-10-20T07:16:34Z</time>
      </trkpt>
      <trkpt lat="47.37859" lon="-0.62115">
        <ele>13.6</ele>
        <time>2013-10-20T07:16:39Z</time>
      </trkpt>
      <trkpt lat="47.37863" lon="-0.62104">
        <ele>13.12</ele>
        <time>2013-10-20T07:16:44Z</time>
      </trkpt>
      <trkpt lat="47.37874" lon="-0.62071">
        <ele>12.63</ele>
        <time>2013-10-20T07:16:52Z</time>
      </trkpt>
      <trkpt lat="47.37886" lon="-0.62054">
        <ele>13.6</ele>
        <time>2013-10-20T07:16:57Z</time>
      </trkpt>
      <trkpt lat="47.37893" lon="-0.62042">
        <ele>12.63</ele>
        <time>2013-10-20T07:17:02Z</time>
      </trkpt>
      <trkpt lat="47.37895" lon="-0.62033">
        <ele>13.12</ele>
        <time>2013-10-20T07:17:07Z</time>
      </trkpt>
      <trkpt lat="47.379" lon="-0.62013">
        <ele>13.12</ele>
        <time>2013-10-20T07:17:11Z</time>
      </trkpt>
      <trkpt lat="47.37904" lon="-0.62002">
        <ele>13.12</ele>
        <time>2013-10-20T07:17:13Z</time>
      </trkpt>
      <trkpt lat="47.37918" lon="-0.6194">
        <ele>13.12</ele>
        <time>2013-10-20T07:17:22Z</time>
      </trkpt>
      <trkpt lat="47.37932" lon="-0.61874">
        <ele>12.63</ele>
        <time>2013-10-20T07:17:31Z</time>
      </trkpt>
      <trkpt lat="47.37937" lon="-0.61848">
        <ele>13.12</ele>
        <time>2013-10-20T07:17:35Z</time>
      </trkpt>
      <trkpt lat="47.37949" lon="-0.61778">
        <ele>12.63</ele>
        <time>2013-10-20T07:17:44Z</time>
      </trkpt>
      <trkpt lat="47.3796" lon="-0.61711">
        <ele>13.12</ele>
        <time>2013-10-20T07:17:53Z</time>
      </trkpt>
      <trkpt lat="47.37961" lon="-0.61705">
        <ele>13.12</ele>
        <time>2013-10-20T07:17:54Z</time>
      </trkpt>
      <trkpt lat="47.37971" lon="-0.61637">
        <ele>13.6</ele>
        <time>2013-10-20T07:18:04Z</time>
      </trkpt>
      <trkpt lat="47.37971" lon="-0.61579">
        <ele>13.6</ele>
        <time>2013-10-20T07:18:12Z</time>
      </trkpt>
      <trkpt lat="47.37967" lon="-0.61521">
        <ele>13.6</ele>
        <time>2013-10-20T07:18:20Z</time>
      </trkpt>
      <trkpt lat="47.37962" lon="-0.61482">
        <ele>13.12</ele>
        <time>2013-10-20T07:18:26Z</time>
      </trkpt>
      <trkpt lat="47.37957" lon="-0.61456">
        <ele>13.6</ele>
        <time>2013-10-20T07:18:30Z</time>
      </trkpt>
      <trkpt lat="47.3794" lon="-0.61393">
        <ele>13.6</ele>
        <time>2013-10-20T07:18:39Z</time>
      </trkpt>
      <trkpt lat="47.37934" lon="-0.61365">
        <ele>14.08</ele>
        <time>2013-10-20T07:18:43Z</time>
      </trkpt>
      <trkpt lat="47.37926" lon="-0.61307">
        <ele>14.56</ele>
        <time>2013-10-20T07:18:51Z</time>
      </trkpt>
      <trkpt lat="47.37907" lon="-0.61248">
        <ele>14.56</ele>
        <time>2013-10-20T07:19:00Z</time>
      </trkpt>
      <trkpt lat="47.37892" lon="-0.61205">
        <ele>14.56</ele>
        <time>2013-10-20T07:19:07Z</time>
      </trkpt>
      <trkpt lat="47.37883" lon="-0.61189">
        <ele>15.04</ele>
        <time>2013-10-20T07:19:10Z</time>
      </trkpt>
      <trkpt lat="47.37873" lon="-0.61175">
        <ele>15.04</ele>
        <time>2013-10-20T07:19:13Z</time>
      </trkpt>
      <trkpt lat="47.37855" lon="-0.61166">
        <ele>15.52</ele>
        <time>2013-10-20T07:19:18Z</time>
      </trkpt>
      <trkpt lat="47.37851" lon="-0.6117">
        <ele>16</ele>
        <time>2013-10-20T07:19:19Z</time>
      </trkpt>
      <trkpt lat="47.37817" lon="-0.61209">
        <ele>16.96</ele>
        <time>2013-10-20T07:19:29Z</time>
      </trkpt>
      <trkpt lat="47.37799" lon="-0.61213">
        <ele>18.88</ele>
        <time>2013-10-20T07:19:34Z</time>
      </trkpt>
      <trkpt lat="47.37778" lon="-0.61186">
        <ele>20.81</ele>
        <time>2013-10-20T07:19:41Z</time>
      </trkpt>
      <trkpt lat="47.37751" lon="-0.61148">
        <ele>23.69</ele>
        <time>2013-10-20T07:19:50Z</time>
      </trkpt>
      <trkpt lat="47.37748" lon="-0.61144">
        <ele>23.69</ele>
        <time>2013-10-20T07:19:51Z</time>
      </trkpt>
      <trkpt lat="47.37719" lon="-0.61107">
        <ele>25.61</ele>
        <time>2013-10-20T07:20:00Z</time>
      </trkpt>
      <trkpt lat="47.37694" lon="-0.61079">
        <ele>24.65</ele>
        <time>2013-10-20T07:20:07Z</time>
      </trkpt>
      <trkpt lat="47.37676" lon="-0.61071">
        <ele>23.21</ele>
        <time>2013-10-20T07:20:13Z</time>
      </trkpt>
      <trkpt lat="47.37673" lon="-0.61075">
        <ele>23.69</ele>
        <time>2013-10-20T07:20:15Z</time>
      </trkpt>
      <trkpt lat="47.37665" lon="-0.61105">
        <ele>23.69</ele>
        <time>2013-10-20T07:20:24Z</time>
      </trkpt>
      <trkpt lat="47.37664" lon="-0.61107">
        <ele>23.69</ele>
        <time>2013-10-20T07:20:28Z</time>
      </trkpt>
      <trkpt lat="47.37664" lon="-0.61108">
        <ele>23.69</ele>
        <time>2013-10-20T07:20:29Z</time>
      </trkpt>
      <trkpt lat="47.3766" lon="-0.61119">
        <ele>24.17</ele>
        <time>2013-10-20T07:20:33Z</time>
      </trkpt>
      <trkpt lat="47.37657" lon="-0.61127">
        <ele>23.69</ele>
        <time>2013-10-20T07:20:38Z</time>
      </trkpt>
      <trkpt lat="47.37657" lon="-0.61129">
        <ele>23.69</ele>
        <time>2013-10-20T07:20:39Z</time>
      </trkpt>
      <trkpt lat="47.37654" lon="-0.61144">
        <ele>23.69</ele>
        <time>2013-10-20T07:20:45Z</time>
      </trkpt>
      <trkpt lat="47.37643" lon="-0.61179">
        <ele>24.65</ele>
        <time>2013-10-20T07:20:53Z</time>
      </trkpt>
      <trkpt lat="47.37626" lon="-0.61224">
        <ele>25.13</ele>
        <time>2013-10-20T07:21:01Z</time>
      </trkpt>
      <trkpt lat="47.37608" lon="-0.61277">
        <ele>25.61</ele>
        <time>2013-10-20T07:21:10Z</time>
      </trkpt>
      <trkpt lat="47.37599" lon="-0.613">
        <ele>26.09</ele>
        <time>2013-10-20T07:21:14Z</time>
      </trkpt>
      <trkpt lat="47.37582" lon="-0.61354">
        <ele>26.57</ele>
        <time>2013-10-20T07:21:23Z</time>
      </trkpt>
      <trkpt lat="47.37566" lon="-0.61383">
        <ele>27.53</ele>
        <time>2013-10-20T07:21:29Z</time>
      </trkpt>
      <trkpt lat="47.37534" lon="-0.61432">
        <ele>27.53</ele>
        <time>2013-10-20T07:21:39Z</time>
      </trkpt>
      <trkpt lat="47.37505" lon="-0.61467">
        <ele>27.53</ele>
        <time>2013-10-20T07:21:48Z</time>
      </trkpt>
      <trkpt lat="47.37479" lon="-0.61499">
        <ele>28.5</ele>
        <time>2013-10-20T07:21:56Z</time>
      </trkpt>
      <trkpt lat="47.37458" lon="-0.61532">
        <ele>28.5</ele>
        <time>2013-10-20T07:22:04Z</time>
      </trkpt>
      <trkpt lat="47.37458" lon="-0.61543">
        <ele>28.98</ele>
        <time>2013-10-20T07:22:06Z</time>
      </trkpt>
      <trkpt lat="47.37456" lon="-0.61586">
        <ele>29.46</ele>
        <time>2013-10-20T07:22:13Z</time>
      </trkpt>
      <trkpt lat="47.37452" lon="-0.61618">
        <ele>29.46</ele>
        <time>2013-10-20T07:22:18Z</time>
      </trkpt>
      <trkpt lat="47.37446" lon="-0.61652">
        <ele>28.5</ele>
        <time>2013-10-20T07:22:23Z</time>
      </trkpt>
      <trkpt lat="47.37436" lon="-0.61708">
        <ele>28.5</ele>
        <time>2013-10-20T07:22:31Z</time>
      </trkpt>
      <trkpt lat="47.3742" lon="-0.61772">
        <ele>28.02</ele>
        <time>2013-10-20T07:22:40Z</time>
      </trkpt>
      <trkpt lat="47.37403" lon="-0.61849">
        <ele>28.5</ele>
        <time>2013-10-20T07:22:51Z</time>
      </trkpt>
      <trkpt lat="47.37399" lon="-0.61869">
        <ele>28.5</ele>
        <time>2013-10-20T07:22:54Z</time>
      </trkpt>
      <trkpt lat="47.3739" lon="-0.61909">
        <ele>29.46</ele>
        <time>2013-10-20T07:23:01Z</time>
      </trkpt>
      <trkpt lat="47.37383" lon="-0.61939">
        <ele>28.98</ele>
        <time>2013-10-20T07:23:06Z</time>
      </trkpt>
      <trkpt lat="47.37372" lon="-0.61971">
        <ele>28.98</ele>
        <time>2013-10-20T07:23:12Z</time>
      </trkpt>
      <trkpt lat="47.37362" lon="-0.61991">
        <ele>28.98</ele>
        <time>2013-10-20T07:23:16Z</time>
      </trkpt>
      <trkpt lat="47.37344" lon="-0.62027">
        <ele>28.5</ele>
        <time>2013-10-20T07:23:23Z</time>
      </trkpt>
      <trkpt lat="47.37316" lon="-0.62081">
        <ele>28.98</ele>
        <time>2013-10-20T07:23:33Z</time>
      </trkpt>
      <trkpt lat="47.37299" lon="-0.62126">
        <ele>28.98</ele>
        <time>2013-10-20T07:23:41Z</time>
      </trkpt>
      <trkpt lat="47.37297" lon="-0.62133">
        <ele>28.98</ele>
        <time>2013-10-20T07:23:42Z</time>
      </trkpt>
      <trkpt lat="47.37295" lon="-0.62154">
        <ele>28.5</ele>
        <time>2013-10-20T07:23:45Z</time>
      </trkpt>
      <trkpt lat="47.37295" lon="-0.62174">
        <ele>29.46</ele>
        <time>2013-10-20T07:23:48Z</time>
      </trkpt>
      <trkpt lat="47.37293" lon="-0.62197">
        <ele>29.46</ele>
        <time>2013-10-20T07:23:52Z</time>
      </trkpt>
      <trkpt lat="47.37281" lon="-0.62224">
        <ele>29.46</ele>
        <time>2013-10-20T07:23:57Z</time>
      </trkpt>
      <trkpt lat="47.37267" lon="-0.62257">
        <ele>29.46</ele>
        <time>2013-10-20T07:24:04Z</time>
      </trkpt>
      <trkpt lat="47.37264" lon="-0.62264">
        <ele>29.94</ele>
        <time>2013-10-20T07:24:06Z</time>
      </trkpt>
      <trkpt lat="47.37258" lon="-0.62273">
        <ele>29.46</ele>
        <time>2013-10-20T07:24:11Z</time>
      </trkpt>
      <trkpt lat="47.37258" lon="-0.62273">
        <ele>29.94</ele>
        <time>2013-10-20T07:24:15Z</time>
      </trkpt>
      <trkpt lat="47.37259" lon="-0.62272">
        <ele>29.46</ele>
        <time>2013-10-20T07:24:21Z</time>
      </trkpt>
      <trkpt lat="47.37259" lon="-0.62272">
        <ele>29.46</ele>
        <time>2013-10-20T07:24:35Z</time>
      </trkpt>
      <trkpt lat="47.37259" lon="-0.62272">
        <ele>29.46</ele>
        <time>2013-10-20T07:24:50Z</time>
      </trkpt>
      <trkpt lat="47.37258" lon="-0.62272">
        <ele>29.46</ele>
        <time>2013-10-20T07:24:54Z</time>
      </trkpt>
      <trkpt lat="47.37247" lon="-0.62263">
        <ele>29.94</ele>
        <time>2013-10-20T07:24:59Z</time>
      </trkpt>
      <trkpt lat="47.37222" lon="-0.62244">
        <ele>30.9</ele>
        <time>2013-10-20T07:25:05Z</time>
      </trkpt>
      <trkpt lat="47.37213" lon="-0.62236">
        <ele>30.42</ele>
        <time>2013-10-20T07:25:07Z</time>
      </trkpt>
      <trkpt lat="47.37176" lon="-0.62185">
        <ele>31.38</ele>
        <time>2013-10-20T07:25:16Z</time>
      </trkpt>
      <trkpt lat="47.37137" lon="-0.62126">
        <ele>31.86</ele>
        <time>2013-10-20T07:25:26Z</time>
      </trkpt>
      <trkpt lat="47.3712" lon="-0.62102">
        <ele>33.78</ele>
        <time>2013-10-20T07:25:30Z</time>
      </trkpt>
      <trkpt lat="47.37082" lon="-0.62047">
        <ele>33.78</ele>
        <time>2013-10-20T07:25:39Z</time>
      </trkpt>
      <trkpt lat="47.37068" lon="-0.62028">
        <ele>33.78</ele>
        <time>2013-10-20T07:25:44Z</time>
      </trkpt>
      <trkpt lat="47.37049" lon="-0.6201">
        <ele>34.74</ele>
        <time>2013-10-20T07:25:52Z</time>
      </trkpt>
      <trkpt lat="47.37046" lon="-0.62009">
        <ele>34.74</ele>
        <time>2013-10-20T07:25:53Z</time>
      </trkpt>
      <trkpt lat="47.37035" lon="-0.62023">
        <ele>34.74</ele>
        <time>2013-10-20T07:25:59Z</time>
      </trkpt>
      <trkpt lat="47.37031" lon="-0.62032">
        <ele>34.74</ele>
        <time>2013-10-20T07:26:01Z</time>
      </trkpt>
      <trkpt lat="47.37018" lon="-0.62062">
        <ele>35.23</ele>
        <time>2013-10-20T07:26:08Z</time>
      </trkpt>
      <trkpt lat="47.37008" lon="-0.62085">
        <ele>35.23</ele>
        <time>2013-10-20T07:26:14Z</time>
      </trkpt>
      <trkpt lat="47.36993" lon="-0.62112">
        <ele>35.23</ele>
        <time>2013-10-20T07:26:21Z</time>
      </trkpt>
      <trkpt lat="47.36975" lon="-0.62103">
        <ele>35.71</ele>
        <time>2013-10-20T07:26:26Z</time>
      </trkpt>
      <trkpt lat="47.36935" lon="-0.6207">
        <ele>36.67</ele>
        <time>2013-10-20T07:26:35Z</time>
      </trkpt>
      <trkpt lat="47.36897" lon="-0.62037">
        <ele>37.63</ele>
        <time>2013-10-20T07:26:44Z</time>
      </trkpt>
      <trkpt lat="47.36862" lon="-0.62007">
        <ele>39.07</ele>
        <time>2013-10-20T07:26:53Z</time>
      </trkpt>
      <trkpt lat="47.36839" lon="-0.61988">
        <ele>40.03</ele>
        <time>2013-10-20T07:26:59Z</time>
      </trkpt>
      <trkpt lat="47.36814" lon="-0.61973">
        <ele>40.99</ele>
        <time>2013-10-20T07:27:06Z</time>
      </trkpt>
      <trkpt lat="47.36799" lon="-0.61965">
        <ele>42.92</ele>
        <time>2013-10-20T07:27:11Z</time>
      </trkpt>
      <trkpt lat="47.36778" lon="-0.61951">
        <ele>44.84</ele>
        <time>2013-10-20T07:27:18Z</time>
      </trkpt>
      <trkpt lat="47.36756" lon="-0.61934">
        <ele>45.32</ele>
        <time>2013-10-20T07:27:26Z</time>
      </trkpt>
      <trkpt lat="47.36733" lon="-0.61913">
        <ele>47.72</ele>
        <time>2013-10-20T07:27:35Z</time>
      </trkpt>
      <trkpt lat="47.36707" lon="-0.61891">
        <ele>49.65</ele>
        <time>2013-10-20T07:27:45Z</time>
      </trkpt>
      <trkpt lat="47.36691" lon="-0.61877">
        <ele>52.53</ele>
        <time>2013-10-20T07:27:52Z</time>
      </trkpt>
      <trkpt lat="47.36675" lon="-0.61863">
        <ele>54.93</ele>
        <time>2013-10-20T07:27:59Z</time>
      </trkpt>
      <trkpt lat="47.3666" lon="-0.61849">
        <ele>57.34</ele>
        <time>2013-10-20T07:28:06Z</time>
      </trkpt>
      <trkpt lat="47.36653" lon="-0.61843">
        <ele>58.78</ele>
        <time>2013-10-20T07:28:10Z</time>
      </trkpt>
      <trkpt lat="47.3664" lon="-0.61834">
        <ele>60.22</ele>
        <time>2013-10-20T07:28:17Z</time>
      </trkpt>
      <trkpt lat="47.36628" lon="-0.61823">
        <ele>61.66</ele>
        <time>2013-10-20T07:28:24Z</time>
      </trkpt>
      <trkpt lat="47.36617" lon="-0.61811">
        <ele>63.58</ele>
        <time>2013-10-20T07:28:31Z</time>
      </trkpt>
      <trkpt lat="47.36604" lon="-0.61802">
        <ele>65.03</ele>
        <time>2013-10-20T07:28:39Z</time>
      </trkpt>
      <trkpt lat="47.36591" lon="-0.6181">
        <ele>66.47</ele>
        <time>2013-10-20T07:28:46Z</time>
      </trkpt>
      <trkpt lat="47.36577" lon="-0.61831">
        <ele>65.51</ele>
        <time>2013-10-20T07:28:54Z</time>
      </trkpt>
      <trkpt lat="47.36574" lon="-0.61833">
        <ele>65.51</ele>
        <time>2013-10-20T07:28:55Z</time>
      </trkpt>
      <trkpt lat="47.36564" lon="-0.61832">
        <ele>65.99</ele>
        <time>2013-10-20T07:28:59Z</time>
      </trkpt>
      <trkpt lat="47.36542" lon="-0.61809">
        <ele>68.87</ele>
        <time>2013-10-20T07:29:10Z</time>
      </trkpt>
      <trkpt lat="47.36528" lon="-0.61789">
        <ele>69.83</ele>
        <time>2013-10-20T07:29:18Z</time>
      </trkpt>
      <trkpt lat="47.36509" lon="-0.61763">
        <ele>70.79</ele>
        <time>2013-10-20T07:29:28Z</time>
      </trkpt>
      <trkpt lat="47.36493" lon="-0.61737">
        <ele>71.76</ele>
        <time>2013-10-20T07:29:36Z</time>
      </trkpt>
      <trkpt lat="47.36473" lon="-0.6171">
        <ele>72.72</ele>
        <time>2013-10-20T07:29:45Z</time>
      </trkpt>
      <trkpt lat="47.36457" lon="-0.61688">
        <ele>73.68</ele>
        <time>2013-10-20T07:29:52Z</time>
      </trkpt>
      <trkpt lat="47.36451" lon="-0.61665">
        <ele>73.68</ele>
        <time>2013-10-20T07:29:58Z</time>
      </trkpt>
      <trkpt lat="47.36462" lon="-0.61641">
        <ele>74.64</ele>
        <time>2013-10-20T07:30:05Z</time>
      </trkpt>
      <trkpt lat="47.36481" lon="-0.61613">
        <ele>75.12</ele>
        <time>2013-10-20T07:30:13Z</time>
      </trkpt>
      <trkpt lat="47.3651" lon="-0.61573">
        <ele>74.16</ele>
        <time>2013-10-20T07:30:23Z</time>
      </trkpt>
      <trkpt lat="47.36513" lon="-0.61568">
        <ele>75.12</ele>
        <time>2013-10-20T07:30:24Z</time>
      </trkpt>
      <trkpt lat="47.3652" lon="-0.61557">
        <ele>74.16</ele>
        <time>2013-10-20T07:30:26Z</time>
      </trkpt>
      <trkpt lat="47.36543" lon="-0.61482">
        <ele>73.68</ele>
        <time>2013-10-20T07:30:37Z</time>
      </trkpt>
      <trkpt lat="47.36549" lon="-0.61462">
        <ele>73.68</ele>
        <time>2013-10-20T07:30:40Z</time>
      </trkpt>
      <trkpt lat="47.36563" lon="-0.61439">
        <ele>72.24</ele>
        <time>2013-10-20T07:30:44Z</time>
      </trkpt>
      <trkpt lat="47.36582" lon="-0.61425">
        <ele>71.27</ele>
        <time>2013-10-20T07:30:50Z</time>
      </trkpt>
      <trkpt lat="47.36585" lon="-0.61421">
        <ele>70.79</ele>
        <time>2013-10-20T07:30:57Z</time>
      </trkpt>
      <trkpt lat="47.36593" lon="-0.61412">
        <ele>70.79</ele>
        <time>2013-10-20T07:31:02Z</time>
      </trkpt>
      <trkpt lat="47.36601" lon="-0.61402">
        <ele>69.35</ele>
        <time>2013-10-20T07:31:06Z</time>
      </trkpt>
      <trkpt lat="47.36607" lon="-0.61386">
        <ele>68.39</ele>
        <time>2013-10-20T07:31:09Z</time>
      </trkpt>
      <trkpt lat="47.36608" lon="-0.61358">
        <ele>67.43</ele>
        <time>2013-10-20T07:31:13Z</time>
      </trkpt>
      <trkpt lat="47.36594" lon="-0.6134">
        <ele>68.39</ele>
        <time>2013-10-20T07:31:17Z</time>
      </trkpt>
      <trkpt lat="47.36581" lon="-0.61322">
        <ele>69.83</ele>
        <time>2013-10-20T07:31:21Z</time>
      </trkpt>
      <trkpt lat="47.3657" lon="-0.61306">
        <ele>71.27</ele>
        <time>2013-10-20T07:31:25Z</time>
      </trkpt>
      <trkpt lat="47.36553" lon="-0.61285">
        <ele>73.2</ele>
        <time>2013-10-20T07:31:32Z</time>
      </trkpt>
      <trkpt lat="47.36536" lon="-0.61267">
        <ele>75.12</ele>
        <time>2013-10-20T07:31:40Z</time>
      </trkpt>
      <trkpt lat="47.36516" lon="-0.61247">
        <ele>76.56</ele>
        <time>2013-10-20T07:31:49Z</time>
      </trkpt>
      <trkpt lat="47.36502" lon="-0.61234">
        <ele>77.04</ele>
        <time>2013-10-20T07:31:55Z</time>
      </trkpt>
      <trkpt lat="47.36481" lon="-0.61216">
        <ele>78</ele>
        <time>2013-10-20T07:32:03Z</time>
      </trkpt>
      <trkpt lat="47.36467" lon="-0.61196">
        <ele>78.97</ele>
        <time>2013-10-20T07:32:09Z</time>
      </trkpt>
      <trkpt lat="47.36457" lon="-0.61161">
        <ele>79.93</ele>
        <time>2013-10-20T07:32:16Z</time>
      </trkpt>
      <trkpt lat="47.36455" lon="-0.61124">
        <ele>79.93</ele>
        <time>2013-10-20T07:32:23Z</time>
      </trkpt>
      <trkpt lat="47.36452" lon="-0.61085">
        <ele>80.41</ele>
        <time>2013-10-20T07:32:31Z</time>
      </trkpt>
      <trkpt lat="47.36428" lon="-0.61072">
        <ele>81.37</ele>
        <time>2013-10-20T07:32:40Z</time>
      </trkpt>
      <trkpt lat="47.36407" lon="-0.61059">
        <ele>81.37</ele>
        <time>2013-10-20T07:32:47Z</time>
      </trkpt>
      <trkpt lat="47.3638" lon="-0.61046">
        <ele>81.85</ele>
        <time>2013-10-20T07:32:55Z</time>
      </trkpt>
      <trkpt lat="47.36372" lon="-0.61041">
        <ele>81.85</ele>
        <time>2013-10-20T07:32:57Z</time>
      </trkpt>
      <trkpt lat="47.36362" lon="-0.6103">
        <ele>81.85</ele>
        <time>2013-10-20T07:33:00Z</time>
      </trkpt>
      <trkpt lat="47.36336" lon="-0.60987">
        <ele>82.33</ele>
        <time>2013-10-20T07:33:09Z</time>
      </trkpt>
      <trkpt lat="47.3631" lon="-0.60947">
        <ele>81.37</ele>
        <time>2013-10-20T07:33:17Z</time>
      </trkpt>
      <trkpt lat="47.36284" lon="-0.60913">
        <ele>81.85</ele>
        <time>2013-10-20T07:33:25Z</time>
      </trkpt>
      <trkpt lat="47.36264" lon="-0.60885">
        <ele>81.85</ele>
        <time>2013-10-20T07:33:32Z</time>
      </trkpt>
      <trkpt lat="47.36249" lon="-0.60884">
        <ele>81.85</ele>
        <time>2013-10-20T07:33:36Z</time>
      </trkpt>
      <trkpt lat="47.36246" lon="-0.60888">
        <ele>81.37</ele>
        <time>2013-10-20T07:33:37Z</time>
      </trkpt>
      <trkpt lat="47.36219" lon="-0.60926">
        <ele>80.89</ele>
        <time>2013-10-20T07:33:45Z</time>
      </trkpt>
      <trkpt lat="47.36211" lon="-0.60957">
        <ele>80.41</ele>
        <time>2013-10-20T07:33:50Z</time>
      </trkpt>
      <trkpt lat="47.36213" lon="-0.60985">
        <ele>80.41</ele>
        <time>2013-10-20T07:33:54Z</time>
      </trkpt>
      <trkpt lat="47.36212" lon="-0.61001">
        <ele>80.89</ele>
        <time>2013-10-20T07:33:56Z</time>
      </trkpt>
      <trkpt lat="47.36206" lon="-0.61029">
        <ele>81.37</ele>
        <time>2013-10-20T07:34:00Z</time>
      </trkpt>
      <trkpt lat="47.3619" lon="-0.61079">
        <ele>80.89</ele>
        <time>2013-10-20T07:34:07Z</time>
      </trkpt>
      <trkpt lat="47.36175" lon="-0.61105">
        <ele>79.93</ele>
        <time>2013-10-20T07:34:11Z</time>
      </trkpt>
      <trkpt lat="47.36146" lon="-0.61135">
        <ele>80.41</ele>
        <time>2013-10-20T07:34:17Z</time>
      </trkpt>
      <trkpt lat="47.36137" lon="-0.61146">
        <ele>79.93</ele>
        <time>2013-10-20T07:34:19Z</time>
      </trkpt>
      <trkpt lat="47.3613" lon="-0.61159">
        <ele>79.93</ele>
        <time>2013-10-20T07:34:21Z</time>
      </trkpt>
      <trkpt lat="47.36099" lon="-0.61234">
        <ele>79.93</ele>
        <time>2013-10-20T07:34:32Z</time>
      </trkpt>
      <trkpt lat="47.36075" lon="-0.61276">
        <ele>80.41</ele>
        <time>2013-10-20T07:34:38Z</time>
      </trkpt>
      <trkpt lat="47.36038" lon="-0.61324">
        <ele>78</ele>
        <time>2013-10-20T07:34:45Z</time>
      </trkpt>
      <trkpt lat="47.36015" lon="-0.6137">
        <ele>76.56</ele>
        <time>2013-10-20T07:34:50Z</time>
      </trkpt>
      <trkpt lat="47.36007" lon="-0.61415">
        <ele>75.6</ele>
        <time>2013-10-20T07:34:54Z</time>
      </trkpt>
      <trkpt lat="47.36013" lon="-0.61437">
        <ele>75.12</ele>
        <time>2013-10-20T07:34:56Z</time>
      </trkpt>
      <trkpt lat="47.36021" lon="-0.61459">
        <ele>75.12</ele>
        <time>2013-10-20T07:34:58Z</time>
      </trkpt>
      <trkpt lat="47.36028" lon="-0.61524">
        <ele>75.12</ele>
        <time>2013-10-20T07:35:04Z</time>
      </trkpt>
      <trkpt lat="47.36028" lon="-0.61533">
        <ele>75.6</ele>
        <time>2013-10-20T07:35:05Z</time>
      </trkpt>
      <trkpt lat="47.36016" lon="-0.61559">
        <ele>75.12</ele>
        <time>2013-10-20T07:35:09Z</time>
      </trkpt>
      <trkpt lat="47.35997" lon="-0.61563">
        <ele>74.64</ele>
        <time>2013-10-20T07:35:12Z</time>
      </trkpt>
      <trkpt lat="47.35937" lon="-0.61566">
        <ele>72.72</ele>
        <time>2013-10-20T07:35:20Z</time>
      </trkpt>
      <trkpt lat="47.35905" lon="-0.61553">
        <ele>70.31</ele>
        <time>2013-10-20T07:35:24Z</time>
      </trkpt>
      <trkpt lat="47.35889" lon="-0.6154">
        <ele>68.87</ele>
        <time>2013-10-20T07:35:26Z</time>
      </trkpt>
      <trkpt lat="47.35881" lon="-0.61534">
        <ele>68.87</ele>
        <time>2013-10-20T07:35:27Z</time>
      </trkpt>
      <trkpt lat="47.35865" lon="-0.61517">
        <ele>67.91</ele>
        <time>2013-10-20T07:35:29Z</time>
      </trkpt>
      <trkpt lat="47.35851" lon="-0.61494">
        <ele>66.47</ele>
        <time>2013-10-20T07:35:31Z</time>
      </trkpt>
      <trkpt lat="47.35835" lon="-0.61471">
        <ele>64.55</ele>
        <time>2013-10-20T07:35:33Z</time>
      </trkpt>
      <trkpt lat="47.35816" lon="-0.61457">
        <ele>63.58</ele>
        <time>2013-10-20T07:35:35Z</time>
      </trkpt>
      <trkpt lat="47.35789" lon="-0.6144">
        <ele>63.1</ele>
        <time>2013-10-20T07:35:38Z</time>
      </trkpt>
      <trkpt lat="47.35751" lon="-0.61395">
        <ele>64.07</ele>
        <time>2013-10-20T07:35:44Z</time>
      </trkpt>
      <trkpt lat="47.35718" lon="-0.6135">
        <ele>64.55</ele>
        <time>2013-10-20T07:35:51Z</time>
      </trkpt>
      <trkpt lat="47.35698" lon="-0.6133">
        <ele>65.99</ele>
        <time>2013-10-20T07:35:55Z</time>
      </trkpt>
      <trkpt lat="47.35644" lon="-0.61314">
        <ele>66.95</ele>
        <time>2013-10-20T07:36:04Z</time>
      </trkpt>
      <trkpt lat="47.35604" lon="-0.61303">
        <ele>67.91</ele>
        <time>2013-10-20T07:36:11Z</time>
      </trkpt>
      <trkpt lat="47.35593" lon="-0.61298">
        <ele>67.43</ele>
        <time>2013-10-20T07:36:13Z</time>
      </trkpt>
      <trkpt lat="47.35542" lon="-0.6126">
        <ele>69.35</ele>
        <time>2013-10-20T07:36:23Z</time>
      </trkpt>
      <trkpt lat="47.355" lon="-0.61225">
        <ele>71.27</ele>
        <time>2013-10-20T07:36:33Z</time>
      </trkpt>
      <trkpt lat="47.35464" lon="-0.61202">
        <ele>73.2</ele>
        <time>2013-10-20T07:36:42Z</time>
      </trkpt>
      <trkpt lat="47.35431" lon="-0.61198">
        <ele>74.16</ele>
        <time>2013-10-20T07:36:50Z</time>
      </trkpt>
      <trkpt lat="47.35394" lon="-0.61196">
        <ele>74.64</ele>
        <time>2013-10-20T07:36:58Z</time>
      </trkpt>
      <trkpt lat="47.35358" lon="-0.61189">
        <ele>75.12</ele>
        <time>2013-10-20T07:37:06Z</time>
      </trkpt>
      <trkpt lat="47.35309" lon="-0.61175">
        <ele>75.12</ele>
        <time>2013-10-20T07:37:16Z</time>
      </trkpt>
      <trkpt lat="47.35263" lon="-0.61155">
        <ele>75.12</ele>
        <time>2013-10-20T07:37:25Z</time>
      </trkpt>
      <trkpt lat="47.35222" lon="-0.61122">
        <ele>75.12</ele>
        <time>2013-10-20T07:37:34Z</time>
      </trkpt>
      <trkpt lat="47.35201" lon="-0.61104">
        <ele>74.16</ele>
        <time>2013-10-20T07:37:39Z</time>
      </trkpt>
      <trkpt lat="47.35194" lon="-0.61082">
        <ele>74.16</ele>
        <time>2013-10-20T07:37:43Z</time>
      </trkpt>
      <trkpt lat="47.35195" lon="-0.61002">
        <ele>74.16</ele>
        <time>2013-10-20T07:37:54Z</time>
      </trkpt>
      <trkpt lat="47.35196" lon="-0.60994">
        <ele>74.16</ele>
        <time>2013-10-20T07:37:55Z</time>
      </trkpt>
      <trkpt lat="47.35205" lon="-0.60967">
        <ele>74.64</ele>
        <time>2013-10-20T07:37:59Z</time>
      </trkpt>
      <trkpt lat="47.3524" lon="-0.60897">
        <ele>74.16</ele>
        <time>2013-10-20T07:38:10Z</time>
      </trkpt>
      <trkpt lat="47.35266" lon="-0.60841">
        <ele>73.2</ele>
        <time>2013-10-20T07:38:18Z</time>
      </trkpt>
      <trkpt lat="47.35272" lon="-0.60826">
        <ele>73.68</ele>
        <time>2013-10-20T07:38:20Z</time>
      </trkpt>
      <trkpt lat="47.35276" lon="-0.60775">
        <ele>73.2</ele>
        <time>2013-10-20T07:38:26Z</time>
      </trkpt>
      <trkpt lat="47.35278" lon="-0.60695">
        <ele>72.24</ele>
        <time>2013-10-20T07:38:35Z</time>
      </trkpt>
      <trkpt lat="47.35278" lon="-0.60593">
        <ele>70.79</ele>
        <time>2013-10-20T07:38:46Z</time>
      </trkpt>
      <trkpt lat="47.35275" lon="-0.60566">
        <ele>70.79</ele>
        <time>2013-10-20T07:38:49Z</time>
      </trkpt>
      <trkpt lat="47.35257" lon="-0.60483">
        <ele>68.87</ele>
        <time>2013-10-20T07:38:59Z</time>
      </trkpt>
      <trkpt lat="47.35254" lon="-0.60466">
        <ele>68.39</ele>
        <time>2013-10-20T07:39:01Z</time>
      </trkpt>
      <trkpt lat="47.35262" lon="-0.60424">
        <ele>68.87</ele>
        <time>2013-10-20T07:39:06Z</time>
      </trkpt>
      <trkpt lat="47.35266" lon="-0.60417">
        <ele>68.87</ele>
        <time>2013-10-20T07:39:07Z</time>
      </trkpt>
      <trkpt lat="47.35296" lon="-0.60371">
        <ele>68.87</ele>
        <time>2013-10-20T07:39:14Z</time>
      </trkpt>
      <trkpt lat="47.35301" lon="-0.60326">
        <ele>68.39</ele>
        <time>2013-10-20T07:39:19Z</time>
      </trkpt>
      <trkpt lat="47.35297" lon="-0.60309">
        <ele>67.91</ele>
        <time>2013-10-20T07:39:21Z</time>
      </trkpt>
      <trkpt lat="47.35275" lon="-0.60227">
        <ele>66.95</ele>
        <time>2013-10-20T07:39:31Z</time>
      </trkpt>
      <trkpt lat="47.35272" lon="-0.60208">
        <ele>66.95</ele>
        <time>2013-10-20T07:39:33Z</time>
      </trkpt>
      <trkpt lat="47.35271" lon="-0.60124">
        <ele>64.07</ele>
        <time>2013-10-20T07:39:42Z</time>
      </trkpt>
      <trkpt lat="47.3526" lon="-0.60112">
        <ele>63.1</ele>
        <time>2013-10-20T07:39:47Z</time>
      </trkpt>
      <trkpt lat="47.3525" lon="-0.60118">
        <ele>63.1</ele>
        <time>2013-10-20T07:39:49Z</time>
      </trkpt>
      <trkpt lat="47.35207" lon="-0.60146">
        <ele>62.62</ele>
        <time>2013-10-20T07:39:57Z</time>
      </trkpt>
      <trkpt lat="47.35147" lon="-0.60152">
        <ele>63.58</ele>
        <time>2013-10-20T07:40:07Z</time>
      </trkpt>
      <trkpt lat="47.35091" lon="-0.60153">
        <ele>64.55</ele>
        <time>2013-10-20T07:40:17Z</time>
      </trkpt>
      <trkpt lat="47.35035" lon="-0.60151">
        <ele>61.66</ele>
        <time>2013-10-20T07:40:25Z</time>
      </trkpt>
      <trkpt lat="47.34997" lon="-0.60141">
        <ele>59.26</ele>
        <time>2013-10-20T07:40:30Z</time>
      </trkpt>
      <trkpt lat="47.34959" lon="-0.60126">
        <ele>56.37</ele>
        <time>2013-10-20T07:40:35Z</time>
      </trkpt>
      <trkpt lat="47.34934" lon="-0.60127">
        <ele>54.45</ele>
        <time>2013-10-20T07:40:38Z</time>
      </trkpt>
      <trkpt lat="47.34926" lon="-0.60131">
        <ele>53.49</ele>
        <time>2013-10-20T07:40:39Z</time>
      </trkpt>
      <trkpt lat="47.3489" lon="-0.60163">
        <ele>49.65</ele>
        <time>2013-10-20T07:40:43Z</time>
      </trkpt>
      <trkpt lat="47.34833" lon="-0.60217">
        <ele>46.76</ele>
        <time>2013-10-20T07:40:49Z</time>
      </trkpt>
      <trkpt lat="47.34818" lon="-0.60238">
        <ele>46.28</ele>
        <time>2013-10-20T07:40:51Z</time>
      </trkpt>
      <trkpt lat="47.34785" lon="-0.60318">
        <ele>43.4</ele>
        <time>2013-10-20T07:40:57Z</time>
      </trkpt>
      <trkpt lat="47.34749" lon="-0.60426">
        <ele>40.99</ele>
        <time>2013-10-20T07:41:05Z</time>
      </trkpt>
      <trkpt lat="47.3472" lon="-0.6051">
        <ele>40.51</ele>
        <time>2013-10-20T07:41:12Z</time>
      </trkpt>
      <trkpt lat="47.34687" lon="-0.60587">
        <ele>38.11</ele>
        <time>2013-10-20T07:41:19Z</time>
      </trkpt>
      <trkpt lat="47.34659" lon="-0.60615">
        <ele>37.15</ele>
        <time>2013-10-20T07:41:23Z</time>
      </trkpt>
      <trkpt lat="47.34605" lon="-0.60642">
        <ele>36.19</ele>
        <time>2013-10-20T07:41:30Z</time>
      </trkpt>
      <trkpt lat="47.34556" lon="-0.60674">
        <ele>36.67</ele>
        <time>2013-10-20T07:41:38Z</time>
      </trkpt>
      <trkpt lat="47.34534" lon="-0.60682">
        <ele>37.63</ele>
        <time>2013-10-20T07:41:42Z</time>
      </trkpt>
      <trkpt lat="47.34516" lon="-0.60689">
        <ele>39.55</ele>
        <time>2013-10-20T07:41:46Z</time>
      </trkpt>
      <trkpt lat="47.34509" lon="-0.60695">
        <ele>40.03</ele>
        <time>2013-10-20T07:41:48Z</time>
      </trkpt>
      <trkpt lat="47.3449" lon="-0.6072">
        <ele>42.92</ele>
        <time>2013-10-20T07:41:55Z</time>
      </trkpt>
      <trkpt lat="47.34482" lon="-0.60736">
        <ele>44.36</ele>
        <time>2013-10-20T07:42:00Z</time>
      </trkpt>
      <trkpt lat="47.34472" lon="-0.60751">
        <ele>46.28</ele>
        <time>2013-10-20T07:42:06Z</time>
      </trkpt>
      <trkpt lat="47.34468" lon="-0.60761">
        <ele>47.72</ele>
        <time>2013-10-20T07:42:10Z</time>
      </trkpt>
      <trkpt lat="47.34458" lon="-0.60777">
        <ele>47.72</ele>
        <time>2013-10-20T07:42:17Z</time>
      </trkpt>
      <trkpt lat="47.34447" lon="-0.60792">
        <ele>49.16</ele>
        <time>2013-10-20T07:42:23Z</time>
      </trkpt>
      <trkpt lat="47.34433" lon="-0.60812">
        <ele>50.61</ele>
        <time>2013-10-20T07:42:31Z</time>
      </trkpt>
      <trkpt lat="47.34417" lon="-0.60829">
        <ele>52.05</ele>
        <time>2013-10-20T07:42:39Z</time>
      </trkpt>
      <trkpt lat="47.34405" lon="-0.60846">
        <ele>53.49</ele>
        <time>2013-10-20T07:42:46Z</time>
      </trkpt>
      <trkpt lat="47.34393" lon="-0.60861">
        <ele>54.45</ele>
        <time>2013-10-20T07:42:53Z</time>
      </trkpt>
      <trkpt lat="47.34377" lon="-0.60881">
        <ele>55.41</ele>
        <time>2013-10-20T07:43:01Z</time>
      </trkpt>
      <trkpt lat="47.34363" lon="-0.60899">
        <ele>56.37</ele>
        <time>2013-10-20T07:43:08Z</time>
      </trkpt>
      <trkpt lat="47.34343" lon="-0.60922">
        <ele>56.37</ele>
        <time>2013-10-20T07:43:16Z</time>
      </trkpt>
      <trkpt lat="47.34317" lon="-0.60956">
        <ele>56.37</ele>
        <time>2013-10-20T07:43:26Z</time>
      </trkpt>
      <trkpt lat="47.34314" lon="-0.60965">
        <ele>56.37</ele>
        <time>2013-10-20T07:43:28Z</time>
      </trkpt>
      <trkpt lat="47.34318" lon="-0.60996">
        <ele>56.86</ele>
        <time>2013-10-20T07:43:35Z</time>
      </trkpt>
      <trkpt lat="47.34322" lon="-0.61019">
        <ele>57.34</ele>
        <time>2013-10-20T07:43:40Z</time>
      </trkpt>
      <trkpt lat="47.34315" lon="-0.61048">
        <ele>58.3</ele>
        <time>2013-10-20T07:43:46Z</time>
      </trkpt>
      <trkpt lat="47.3431" lon="-0.6106">
        <ele>58.78</ele>
        <time>2013-10-20T07:43:49Z</time>
      </trkpt>
      <trkpt lat="47.3429" lon="-0.61075">
        <ele>59.26</ele>
        <time>2013-10-20T07:43:56Z</time>
      </trkpt>
      <trkpt lat="47.34267" lon="-0.61087">
        <ele>60.22</ele>
        <time>2013-10-20T07:44:03Z</time>
      </trkpt>
      <trkpt lat="47.34248" lon="-0.61095">
        <ele>61.66</ele>
        <time>2013-10-20T07:44:09Z</time>
      </trkpt>
      <trkpt lat="47.34229" lon="-0.61105">
        <ele>62.14</ele>
        <time>2013-10-20T07:44:16Z</time>
      </trkpt>
      <trkpt lat="47.34213" lon="-0.61116">
        <ele>62.62</ele>
        <time>2013-10-20T07:44:22Z</time>
      </trkpt>
      <trkpt lat="47.34196" lon="-0.61129">
        <ele>64.07</ele>
        <time>2013-10-20T07:44:29Z</time>
      </trkpt>
      <trkpt lat="47.34178" lon="-0.61139">
        <ele>64.55</ele>
        <time>2013-10-20T07:44:36Z</time>
      </trkpt>
      <trkpt lat="47.34154" lon="-0.61152">
        <ele>65.99</ele>
        <time>2013-10-20T07:44:44Z</time>
      </trkpt>
      <trkpt lat="47.34132" lon="-0.61166">
        <ele>67.43</ele>
        <time>2013-10-20T07:44:52Z</time>
      </trkpt>
      <trkpt lat="47.3411" lon="-0.61181">
        <ele>67.91</ele>
        <time>2013-10-20T07:45:00Z</time>
      </trkpt>
      <trkpt lat="47.34087" lon="-0.61193">
        <ele>68.39</ele>
        <time>2013-10-20T07:45:08Z</time>
      </trkpt>
      <trkpt lat="47.3406" lon="-0.61209">
        <ele>69.35</ele>
        <time>2013-10-20T07:45:17Z</time>
      </trkpt>
      <trkpt lat="47.34041" lon="-0.61221">
        <ele>70.79</ele>
        <time>2013-10-20T07:45:24Z</time>
      </trkpt>
      <trkpt lat="47.34024" lon="-0.61235">
        <ele>71.27</ele>
        <time>2013-10-20T07:45:31Z</time>
      </trkpt>
      <trkpt lat="47.34023" lon="-0.61255">
        <ele>71.76</ele>
        <time>2013-10-20T07:45:36Z</time>
      </trkpt>
      <trkpt lat="47.34024" lon="-0.6126">
        <ele>72.24</ele>
        <time>2013-10-20T07:45:37Z</time>
      </trkpt>
      <trkpt lat="47.34037" lon="-0.61301">
        <ele>72.72</ele>
        <time>2013-10-20T07:45:46Z</time>
      </trkpt>
      <trkpt lat="47.34042" lon="-0.61315">
        <ele>72.72</ele>
        <time>2013-10-20T07:45:49Z</time>
      </trkpt>
      <trkpt lat="47.34038" lon="-0.61331">
        <ele>73.2</ele>
        <time>2013-10-20T07:45:53Z</time>
      </trkpt>
      <trkpt lat="47.34028" lon="-0.61333">
        <ele>73.2</ele>
        <time>2013-10-20T07:45:56Z</time>
      </trkpt>
      <trkpt lat="47.34004" lon="-0.6134">
        <ele>74.64</ele>
        <time>2013-10-20T07:46:04Z</time>
      </trkpt>
      <trkpt lat="47.33976" lon="-0.61348">
        <ele>74.16</ele>
        <time>2013-10-20T07:46:12Z</time>
      </trkpt>
      <trkpt lat="47.33948" lon="-0.6136">
        <ele>75.6</ele>
        <time>2013-10-20T07:46:20Z</time>
      </trkpt>
      <trkpt lat="47.33937" lon="-0.61362">
        <ele>75.6</ele>
        <time>2013-10-20T07:46:23Z</time>
      </trkpt>
      <trkpt lat="47.33922" lon="-0.61361">
        <ele>76.56</ele>
        <time>2013-10-20T07:46:27Z</time>
      </trkpt>
      <trkpt lat="47.33894" lon="-0.6134">
        <ele>77.04</ele>
        <time>2013-10-20T07:46:35Z</time>
      </trkpt>
      <trkpt lat="47.33869" lon="-0.61319">
        <ele>76.56</ele>
        <time>2013-10-20T07:46:42Z</time>
      </trkpt>
      <trkpt lat="47.33839" lon="-0.61321">
        <ele>77.04</ele>
        <time>2013-10-20T07:46:49Z</time>
      </trkpt>
      <trkpt lat="47.33836" lon="-0.61324">
        <ele>77.52</ele>
        <time>2013-10-20T07:46:50Z</time>
      </trkpt>
      <trkpt lat="47.33803" lon="-0.6136">
        <ele>77.52</ele>
        <time>2013-10-20T07:46:59Z</time>
      </trkpt>
      <trkpt lat="47.33763" lon="-0.61398">
        <ele>77.52</ele>
        <time>2013-10-20T07:47:09Z</time>
      </trkpt>
      <trkpt lat="47.3375" lon="-0.61405">
        <ele>77.04</ele>
        <time>2013-10-20T07:47:12Z</time>
      </trkpt>
      <trkpt lat="47.33707" lon="-0.61418">
        <ele>77.04</ele>
        <time>2013-10-20T07:47:21Z</time>
      </trkpt>
      <trkpt lat="47.33657" lon="-0.6143">
        <ele>77.52</ele>
        <time>2013-10-20T07:47:31Z</time>
      </trkpt>
      <trkpt lat="47.33652" lon="-0.61431">
        <ele>78.48</ele>
        <time>2013-10-20T07:47:32Z</time>
      </trkpt>
      <trkpt lat="47.3362" lon="-0.61436">
        <ele>78.97</ele>
        <time>2013-10-20T07:47:40Z</time>
      </trkpt>
      <trkpt lat="47.33621" lon="-0.61449">
        <ele>78.97</ele>
        <time>2013-10-20T07:47:44Z</time>
      </trkpt>
      <trkpt lat="47.33653" lon="-0.61496">
        <ele>78.97</ele>
        <time>2013-10-20T07:47:53Z</time>
      </trkpt>
      <trkpt lat="47.33685" lon="-0.61547">
        <ele>77.04</ele>
        <time>2013-10-20T07:48:01Z</time>
      </trkpt>
      <trkpt lat="47.3372" lon="-0.616">
        <ele>75.6</ele>
        <time>2013-10-20T07:48:09Z</time>
      </trkpt>
      <trkpt lat="47.33751" lon="-0.61655">
        <ele>73.68</ele>
        <time>2013-10-20T07:48:16Z</time>
      </trkpt>
      <trkpt lat="47.33785" lon="-0.61726">
        <ele>70.79</ele>
        <time>2013-10-20T07:48:23Z</time>
      </trkpt>
      <trkpt lat="47.33808" lon="-0.61798">
        <ele>68.39</ele>
        <time>2013-10-20T07:48:29Z</time>
      </trkpt>
      <trkpt lat="47.33816" lon="-0.61821">
        <ele>67.91</ele>
        <time>2013-10-20T07:48:31Z</time>
      </trkpt>
      <trkpt lat="47.33855" lon="-0.61896">
        <ele>63.58</ele>
        <time>2013-10-20T07:48:38Z</time>
      </trkpt>
      <trkpt lat="47.3389" lon="-0.61955">
        <ele>61.66</ele>
        <time>2013-10-20T07:48:44Z</time>
      </trkpt>
      <trkpt lat="47.33906" lon="-0.61984">
        <ele>60.22</ele>
        <time>2013-10-20T07:48:47Z</time>
      </trkpt>
      <trkpt lat="47.33935" lon="-0.62014">
        <ele>57.82</ele>
        <time>2013-10-20T07:48:51Z</time>
      </trkpt>
      <trkpt lat="47.33974" lon="-0.62041">
        <ele>54.45</ele>
        <time>2013-10-20T07:48:55Z</time>
      </trkpt>
      <trkpt lat="47.34011" lon="-0.6208">
        <ele>54.93</ele>
        <time>2013-10-20T07:49:00Z</time>
      </trkpt>
      <trkpt lat="47.34025" lon="-0.62099">
        <ele>56.37</ele>
        <time>2013-10-20T07:49:03Z</time>
      </trkpt>
      <trkpt lat="47.34037" lon="-0.62115">
        <ele>57.82</ele>
        <time>2013-10-20T07:49:08Z</time>
      </trkpt>
      <trkpt lat="47.34053" lon="-0.62136">
        <ele>59.74</ele>
        <time>2013-10-20T07:49:15Z</time>
      </trkpt>
      <trkpt lat="47.34077" lon="-0.62152">
        <ele>62.14</ele>
        <time>2013-10-20T07:49:24Z</time>
      </trkpt>
      <trkpt lat="47.34099" lon="-0.62163">
        <ele>63.58</ele>
        <time>2013-10-20T07:49:32Z</time>
      </trkpt>
      <trkpt lat="47.34123" lon="-0.62176">
        <ele>65.03</ele>
        <time>2013-10-20T07:49:40Z</time>
      </trkpt>
      <trkpt lat="47.34149" lon="-0.62189">
        <ele>66.95</ele>
        <time>2013-10-20T07:49:49Z</time>
      </trkpt>
      <trkpt lat="47.34174" lon="-0.62201">
        <ele>66.95</ele>
        <time>2013-10-20T07:49:57Z</time>
      </trkpt>
      <trkpt lat="47.34205" lon="-0.62225">
        <ele>66.47</ele>
        <time>2013-10-20T07:50:06Z</time>
      </trkpt>
      <trkpt lat="47.34215" lon="-0.62253">
        <ele>66.95</ele>
        <time>2013-10-20T07:50:11Z</time>
      </trkpt>
      <trkpt lat="47.34215" lon="-0.62284">
        <ele>66.95</ele>
        <time>2013-10-20T07:50:16Z</time>
      </trkpt>
      <trkpt lat="47.34194" lon="-0.62342">
        <ele>67.91</ele>
        <time>2013-10-20T07:50:26Z</time>
      </trkpt>
      <trkpt lat="47.34173" lon="-0.62395">
        <ele>67.91</ele>
        <time>2013-10-20T07:50:35Z</time>
      </trkpt>
      <trkpt lat="47.34156" lon="-0.62407">
        <ele>67.43</ele>
        <time>2013-10-20T07:50:40Z</time>
      </trkpt>
      <trkpt lat="47.34114" lon="-0.62382">
        <ele>66.47</ele>
        <time>2013-10-20T07:50:49Z</time>
      </trkpt>
      <trkpt lat="47.34104" lon="-0.62376">
        <ele>66.47</ele>
        <time>2013-10-20T07:50:51Z</time>
      </trkpt>
      <trkpt lat="47.34082" lon="-0.62372">
        <ele>65.51</ele>
        <time>2013-10-20T07:50:55Z</time>
      </trkpt>
      <trkpt lat="47.34032" lon="-0.62382">
        <ele>64.55</ele>
        <time>2013-10-20T07:51:04Z</time>
      </trkpt>
      <trkpt lat="47.33992" lon="-0.62375">
        <ele>64.07</ele>
        <time>2013-10-20T07:51:11Z</time>
      </trkpt>
      <trkpt lat="47.33969" lon="-0.62369">
        <ele>64.55</ele>
        <time>2013-10-20T07:51:15Z</time>
      </trkpt>
      <trkpt lat="47.33928" lon="-0.62371">
        <ele>64.07</ele>
        <time>2013-10-20T07:51:22Z</time>
      </trkpt>
      <trkpt lat="47.33886" lon="-0.62372">
        <ele>65.03</ele>
        <time>2013-10-20T07:51:30Z</time>
      </trkpt>
      <trkpt lat="47.33849" lon="-0.62379">
        <ele>65.03</ele>
        <time>2013-10-20T07:51:37Z</time>
      </trkpt>
      <trkpt lat="47.3383" lon="-0.62375">
        <ele>65.03</ele>
        <time>2013-10-20T07:51:41Z</time>
      </trkpt>
      <trkpt lat="47.33807" lon="-0.62359">
        <ele>64.07</ele>
        <time>2013-10-20T07:51:46Z</time>
      </trkpt>
      <trkpt lat="47.33779" lon="-0.62332">
        <ele>63.1</ele>
        <time>2013-10-20T07:51:52Z</time>
      </trkpt>
      <trkpt lat="47.33759" lon="-0.62314">
        <ele>62.14</ele>
        <time>2013-10-20T07:51:56Z</time>
      </trkpt>
      <trkpt lat="47.33733" lon="-0.62307">
        <ele>60.7</ele>
        <time>2013-10-20T07:52:00Z</time>
      </trkpt>
      <trkpt lat="47.33714" lon="-0.62309">
        <ele>60.22</ele>
        <time>2013-10-20T07:52:03Z</time>
      </trkpt>
      <trkpt lat="47.33686" lon="-0.62324">
        <ele>59.26</ele>
        <time>2013-10-20T07:52:08Z</time>
      </trkpt>
      <trkpt lat="47.33651" lon="-0.62352">
        <ele>59.74</ele>
        <time>2013-10-20T07:52:15Z</time>
      </trkpt>
      <trkpt lat="47.33645" lon="-0.62356">
        <ele>59.74</ele>
        <time>2013-10-20T07:52:16Z</time>
      </trkpt>
      <trkpt lat="47.33632" lon="-0.6237">
        <ele>60.7</ele>
        <time>2013-10-20T07:52:19Z</time>
      </trkpt>
      <trkpt lat="47.33624" lon="-0.6238">
        <ele>60.7</ele>
        <time>2013-10-20T07:52:21Z</time>
      </trkpt>
      <trkpt lat="47.33612" lon="-0.62401">
        <ele>62.14</ele>
        <time>2013-10-20T07:52:25Z</time>
      </trkpt>
      <trkpt lat="47.33593" lon="-0.62426">
        <ele>63.58</ele>
        <time>2013-10-20T07:52:31Z</time>
      </trkpt>
      <trkpt lat="47.33573" lon="-0.62452">
        <ele>65.03</ele>
        <time>2013-10-20T07:52:38Z</time>
      </trkpt>
      <trkpt lat="47.33556" lon="-0.62462">
        <ele>64.55</ele>
        <time>2013-10-20T07:52:43Z</time>
      </trkpt>
      <trkpt lat="47.33541" lon="-0.62448">
        <ele>64.55</ele>
        <time>2013-10-20T07:52:48Z</time>
      </trkpt>
      <trkpt lat="47.33534" lon="-0.62437">
        <ele>65.03</ele>
        <time>2013-10-20T07:52:51Z</time>
      </trkpt>
      <trkpt lat="47.3352" lon="-0.62436">
        <ele>65.03</ele>
        <time>2013-10-20T07:52:55Z</time>
      </trkpt>
      <trkpt lat="47.33492" lon="-0.62464">
        <ele>65.51</ele>
        <time>2013-10-20T07:53:03Z</time>
      </trkpt>
      <trkpt lat="47.33472" lon="-0.62492">
        <ele>65.99</ele>
        <time>2013-10-20T07:53:10Z</time>
      </trkpt>
      <trkpt lat="47.33453" lon="-0.62527">
        <ele>67.43</ele>
        <time>2013-10-20T07:53:18Z</time>
      </trkpt>
      <trkpt lat="47.33441" lon="-0.62541">
        <ele>67.43</ele>
        <time>2013-10-20T07:53:23Z</time>
      </trkpt>
      <trkpt lat="47.33424" lon="-0.62557">
        <ele>68.87</ele>
        <time>2013-10-20T07:53:29Z</time>
      </trkpt>
      <trkpt lat="47.33409" lon="-0.6257">
        <ele>69.83</ele>
        <time>2013-10-20T07:53:35Z</time>
      </trkpt>
      <trkpt lat="47.33393" lon="-0.62581">
        <ele>70.79</ele>
        <time>2013-10-20T07:53:42Z</time>
      </trkpt>
      <trkpt lat="47.33375" lon="-0.62588">
        <ele>73.2</ele>
        <time>2013-10-20T07:53:49Z</time>
      </trkpt>
      <trkpt lat="47.33359" lon="-0.62592">
        <ele>74.64</ele>
        <time>2013-10-20T07:53:57Z</time>
      </trkpt>
      <trkpt lat="47.33347" lon="-0.62594">
        <ele>76.08</ele>
        <time>2013-10-20T07:54:03Z</time>
      </trkpt>
      <trkpt lat="47.33332" lon="-0.62596">
        <ele>77.04</ele>
        <time>2013-10-20T07:54:10Z</time>
      </trkpt>
      <trkpt lat="47.33321" lon="-0.62598">
        <ele>78.48</ele>
        <time>2013-10-20T07:54:16Z</time>
      </trkpt>
      <trkpt lat="47.33317" lon="-0.62599">
        <ele>78.48</ele>
        <time>2013-10-20T07:54:18Z</time>
      </trkpt>
      <trkpt lat="47.33303" lon="-0.62601">
        <ele>79.93</ele>
        <time>2013-10-20T07:54:25Z</time>
      </trkpt>
      <trkpt lat="47.33282" lon="-0.62606">
        <ele>80.89</ele>
        <time>2013-10-20T07:54:34Z</time>
      </trkpt>
      <trkpt lat="47.33267" lon="-0.62611">
        <ele>81.37</ele>
        <time>2013-10-20T07:54:41Z</time>
      </trkpt>
      <trkpt lat="47.33247" lon="-0.62617">
        <ele>82.33</ele>
        <time>2013-10-20T07:54:50Z</time>
      </trkpt>
      <trkpt lat="47.33225" lon="-0.62633">
        <ele>83.29</ele>
        <time>2013-10-20T07:55:00Z</time>
      </trkpt>
      <trkpt lat="47.33202" lon="-0.62654">
        <ele>84.25</ele>
        <time>2013-10-20T07:55:08Z</time>
      </trkpt>
      <trkpt lat="47.33178" lon="-0.62675">
        <ele>85.21</ele>
        <time>2013-10-20T07:55:16Z</time>
      </trkpt>
      <trkpt lat="47.33156" lon="-0.62688">
        <ele>86.18</ele>
        <time>2013-10-20T07:55:23Z</time>
      </trkpt>
      <trkpt lat="47.33125" lon="-0.62707">
        <ele>86.18</ele>
        <time>2013-10-20T07:55:33Z</time>
      </trkpt>
      <trkpt lat="47.33097" lon="-0.62722">
        <ele>88.1</ele>
        <time>2013-10-20T07:55:42Z</time>
      </trkpt>
      <trkpt lat="47.33073" lon="-0.62733">
        <ele>89.06</ele>
        <time>2013-10-20T07:55:50Z</time>
      </trkpt>
      <trkpt lat="47.33056" lon="-0.62741">
        <ele>89.54</ele>
        <time>2013-10-20T07:55:56Z</time>
      </trkpt>
      <trkpt lat="47.33036" lon="-0.62752">
        <ele>90.5</ele>
        <time>2013-10-20T07:56:03Z</time>
      </trkpt>
      <trkpt lat="47.33015" lon="-0.6277">
        <ele>90.5</ele>
        <time>2013-10-20T07:56:10Z</time>
      </trkpt>
      <trkpt lat="47.32993" lon="-0.62792">
        <ele>91.46</ele>
        <time>2013-10-20T07:56:18Z</time>
      </trkpt>
      <trkpt lat="47.3298" lon="-0.62805">
        <ele>91.46</ele>
        <time>2013-10-20T07:56:24Z</time>
      </trkpt>
      <trkpt lat="47.3297" lon="-0.62818">
        <ele>90.98</ele>
        <time>2013-10-20T07:56:32Z</time>
      </trkpt>
      <trkpt lat="47.32969" lon="-0.62821">
        <ele>91.46</ele>
        <time>2013-10-20T07:56:38Z</time>
      </trkpt>
      <trkpt lat="47.32968" lon="-0.62828">
        <ele>90.98</ele>
        <time>2013-10-20T07:56:43Z</time>
      </trkpt>
      <trkpt lat="47.32969" lon="-0.62832">
        <ele>91.46</ele>
        <time>2013-10-20T07:56:47Z</time>
      </trkpt>
      <trkpt lat="47.32971" lon="-0.62835">
        <ele>91.46</ele>
        <time>2013-10-20T07:56:50Z</time>
      </trkpt>
      <trkpt lat="47.32974" lon="-0.62839">
        <ele>91.46</ele>
        <time>2013-10-20T07:56:54Z</time>
      </trkpt>
      <trkpt lat="47.32976" lon="-0.6284">
        <ele>91.46</ele>
        <time>2013-10-20T07:56:56Z</time>
      </trkpt>
      <trkpt lat="47.32979" lon="-0.62846">
        <ele>91.46</ele>
        <time>2013-10-20T07:57:04Z</time>
      </trkpt>
      <trkpt lat="47.3298" lon="-0.62846">
        <ele>91.46</ele>
        <time>2013-10-20T07:57:12Z</time>
      </trkpt>
      <trkpt lat="47.3298" lon="-0.62846">
        <ele>91.46</ele>
        <time>2013-10-20T07:57:34Z</time>
      </trkpt>
      <trkpt lat="47.32979" lon="-0.62847">
        <ele>90.98</ele>
        <time>2013-10-20T07:57:53Z</time>
      </trkpt>
      <trkpt lat="47.32979" lon="-0.62847">
        <ele>91.46</ele>
        <time>2013-10-20T07:58:13Z</time>
      </trkpt>
      <trkpt lat="47.32979" lon="-0.62847">
        <ele>90.98</ele>
        <time>2013-10-20T07:58:35Z</time>
      </trkpt>
      <trkpt lat="47.32979" lon="-0.62847">
        <ele>91.46</ele>
        <time>2013-10-20T07:58:56Z</time>
      </trkpt>
      <trkpt lat="47.3298" lon="-0.62846">
        <ele>91.94</ele>
        <time>2013-10-20T07:59:16Z</time>
      </trkpt>
      <trkpt lat="47.3298" lon="-0.62846">
        <ele>91.46</ele>
        <time>2013-10-20T07:59:38Z</time>
      </trkpt>
      <trkpt lat="47.3298" lon="-0.62847">
        <ele>91.94</ele>
        <time>2013-10-20T08:00:04Z</time>
      </trkpt>
      <trkpt lat="47.3298" lon="-0.62847">
        <ele>92.42</ele>
        <time>2013-10-20T08:00:26Z</time>
      </trkpt>
      <trkpt lat="47.3298" lon="-0.62847">
        <ele>92.42</ele>
        <time>2013-10-20T08:00:43Z</time>
      </trkpt>
      <trkpt lat="47.3298" lon="-0.62847">
        <ele>91.94</ele>
        <time>2013-10-20T08:01:00Z</time>
      </trkpt>
      <trkpt lat="47.3298" lon="-0.62847">
        <ele>91.94</ele>
        <time>2013-10-20T08:01:19Z</time>
      </trkpt>
      <trkpt lat="47.3298" lon="-0.62847">
        <ele>91.94</ele>
        <time>2013-10-20T08:01:42Z</time>
      </trkpt>
      <trkpt lat="47.3298" lon="-0.62847">
        <ele>91.94</ele>
        <time>2013-10-20T08:02:03Z</time>
      </trkpt>
      <trkpt lat="47.3298" lon="-0.62847">
        <ele>91.94</ele>
        <time>2013-10-20T08:02:25Z</time>
      </trkpt>
      <trkpt lat="47.3298" lon="-0.62847">
        <ele>91.94</ele>
        <time>2013-10-20T08:02:48Z</time>
      </trkpt>
      <trkpt lat="47.3298" lon="-0.62847">
        <ele>92.9</ele>
        <time>2013-10-20T08:03:05Z</time>
      </trkpt>
      <trkpt lat="47.3298" lon="-0.62847">
        <ele>92.42</ele>
        <time>2013-10-20T08:03:24Z</time>
      </trkpt>
      <trkpt lat="47.3298" lon="-0.62847">
        <ele>92.9</ele>
        <time>2013-10-20T08:03:47Z</time>
      </trkpt>
      <trkpt lat="47.32979" lon="-0.62846">
        <ele>92.42</ele>
        <time>2013-10-20T08:04:08Z</time>
      </trkpt>
      <trkpt lat="47.32979" lon="-0.62846">
        <ele>92.9</ele>
        <time>2013-10-20T08:04:27Z</time>
      </trkpt>
      <trkpt lat="47.32979" lon="-0.62845">
        <ele>93.87</ele>
        <time>2013-10-20T08:04:40Z</time>
      </trkpt>
      <trkpt lat="47.32978" lon="-0.62842">
        <ele>89.54</ele>
        <time>2013-10-20T08:04:46Z</time>
      </trkpt>
      <trkpt lat="47.32978" lon="-0.62842">
        <ele>95.31</ele>
        <time>2013-10-20T08:04:47Z</time>
      </trkpt>
      <trkpt lat="47.32978" lon="-0.62841">
        <ele>93.39</ele>
        <time>2013-10-20T08:04:55Z</time>
      </trkpt>
      <trkpt lat="47.32977" lon="-0.62841">
        <ele>93.87</ele>
        <time>2013-10-20T08:05:03Z</time>
      </trkpt>
      <trkpt lat="47.32969" lon="-0.62831">
        <ele>93.39</ele>
        <time>2013-10-20T08:05:10Z</time>
      </trkpt>
      <trkpt lat="47.32962" lon="-0.62824">
        <ele>93.87</ele>
        <time>2013-10-20T08:05:15Z</time>
      </trkpt>
      <trkpt lat="47.3296" lon="-0.6282">
        <ele>93.87</ele>
        <time>2013-10-20T08:05:18Z</time>
      </trkpt>
      <trkpt lat="47.32956" lon="-0.62817">
        <ele>93.87</ele>
        <time>2013-10-20T08:05:26Z</time>
      </trkpt>
      <trkpt lat="47.32955" lon="-0.62818">
        <ele>93.87</ele>
        <time>2013-10-20T08:05:36Z</time>
      </trkpt>
      <trkpt lat="47.32954" lon="-0.62817">
        <ele>93.87</ele>
        <time>2013-10-20T08:05:44Z</time>
      </trkpt>
      <trkpt lat="47.32954" lon="-0.62817">
        <ele>93.87</ele>
        <time>2013-10-20T08:05:49Z</time>
      </trkpt>
      <trkpt lat="47.32946" lon="-0.62804">
        <ele>93.87</ele>
        <time>2013-10-20T08:05:55Z</time>
      </trkpt>
      <trkpt lat="47.32927" lon="-0.62786">
        <ele>93.39</ele>
        <time>2013-10-20T08:06:04Z</time>
      </trkpt>
      <trkpt lat="47.3291" lon="-0.6277">
        <ele>94.35</ele>
        <time>2013-10-20T08:06:11Z</time>
      </trkpt>
      <trkpt lat="47.32891" lon="-0.62755">
        <ele>93.39</ele>
        <time>2013-10-20T08:06:18Z</time>
      </trkpt>
      <trkpt lat="47.32893" lon="-0.62735">
        <ele>94.35</ele>
        <time>2013-10-20T08:06:23Z</time>
      </trkpt>
      <trkpt lat="47.32899" lon="-0.62706">
        <ele>93.87</ele>
        <time>2013-10-20T08:06:29Z</time>
      </trkpt>
      <trkpt lat="47.32903" lon="-0.62665">
        <ele>92.9</ele>
        <time>2013-10-20T08:06:37Z</time>
      </trkpt>
      <trkpt lat="47.32892" lon="-0.62628">
        <ele>92.9</ele>
        <time>2013-10-20T08:06:44Z</time>
      </trkpt>
      <trkpt lat="47.32887" lon="-0.62611">
        <ele>92.42</ele>
        <time>2013-10-20T08:06:47Z</time>
      </trkpt>
      <trkpt lat="47.32881" lon="-0.62595">
        <ele>92.9</ele>
        <time>2013-10-20T08:06:50Z</time>
      </trkpt>
      <trkpt lat="47.32874" lon="-0.62556">
        <ele>92.9</ele>
        <time>2013-10-20T08:06:56Z</time>
      </trkpt>
      <trkpt lat="47.32867" lon="-0.62503">
        <ele>91.94</ele>
        <time>2013-10-20T08:07:04Z</time>
      </trkpt>
      <trkpt lat="47.32862" lon="-0.6246">
        <ele>90.98</ele>
        <time>2013-10-20T08:07:10Z</time>
      </trkpt>
      <trkpt lat="47.32852" lon="-0.62382">
        <ele>90.5</ele>
        <time>2013-10-20T08:07:21Z</time>
      </trkpt>
      <trkpt lat="47.32851" lon="-0.62376">
        <ele>90.5</ele>
        <time>2013-10-20T08:07:22Z</time>
      </trkpt>
      <trkpt lat="47.32845" lon="-0.62343">
        <ele>90.5</ele>
        <time>2013-10-20T08:07:27Z</time>
      </trkpt>
      <trkpt lat="47.32836" lon="-0.62292">
        <ele>90.02</ele>
        <time>2013-10-20T08:07:35Z</time>
      </trkpt>
      <trkpt lat="47.32833" lon="-0.62274">
        <ele>90.02</ele>
        <time>2013-10-20T08:07:38Z</time>
      </trkpt>
      <trkpt lat="47.32831" lon="-0.6226">
        <ele>90.02</ele>
        <time>2013-10-20T08:07:40Z</time>
      </trkpt>
      <trkpt lat="47.32824" lon="-0.62221">
        <ele>90.98</ele>
        <time>2013-10-20T08:07:46Z</time>
      </trkpt>
      <trkpt lat="47.32822" lon="-0.62201">
        <ele>90.98</ele>
        <time>2013-10-20T08:07:49Z</time>
      </trkpt>
      <trkpt lat="47.3282" lon="-0.62187">
        <ele>90.98</ele>
        <time>2013-10-20T08:07:51Z</time>
      </trkpt>
      <trkpt lat="47.32807" lon="-0.62137">
        <ele>90.98</ele>
        <time>2013-10-20T08:07:59Z</time>
      </trkpt>
      <trkpt lat="47.32795" lon="-0.62089">
        <ele>90.98</ele>
        <time>2013-10-20T08:08:07Z</time>
      </trkpt>
      <trkpt lat="47.3279" lon="-0.62071">
        <ele>91.46</ele>
        <time>2013-10-20T08:08:10Z</time>
      </trkpt>
      <trkpt lat="47.32774" lon="-0.62019">
        <ele>91.94</ele>
        <time>2013-10-20T08:08:19Z</time>
      </trkpt>
      <trkpt lat="47.32753" lon="-0.61984">
        <ele>91.94</ele>
        <time>2013-10-20T08:08:26Z</time>
      </trkpt>
      <trkpt lat="47.32734" lon="-0.61956">
        <ele>91.94</ele>
        <time>2013-10-20T08:08:32Z</time>
      </trkpt>
      <trkpt lat="47.32727" lon="-0.61947">
        <ele>91.94</ele>
        <time>2013-10-20T08:08:34Z</time>
      </trkpt>
      <trkpt lat="47.32715" lon="-0.61907">
        <ele>91.46</ele>
        <time>2013-10-20T08:08:41Z</time>
      </trkpt>
      <trkpt lat="47.32711" lon="-0.6187">
        <ele>91.94</ele>
        <time>2013-10-20T08:08:47Z</time>
      </trkpt>
      <trkpt lat="47.32709" lon="-0.61857">
        <ele>92.42</ele>
        <time>2013-10-20T08:08:49Z</time>
      </trkpt>
      <trkpt lat="47.32701" lon="-0.61802">
        <ele>93.39</ele>
        <time>2013-10-20T08:08:58Z</time>
      </trkpt>
      <trkpt lat="47.32699" lon="-0.6179">
        <ele>93.87</ele>
        <time>2013-10-20T08:09:00Z</time>
      </trkpt>
      <trkpt lat="47.32692" lon="-0.61761">
        <ele>93.87</ele>
        <time>2013-10-20T08:09:05Z</time>
      </trkpt>
      <trkpt lat="47.32678" lon="-0.61712">
        <ele>92.9</ele>
        <time>2013-10-20T08:09:14Z</time>
      </trkpt>
      <trkpt lat="47.32674" lon="-0.6171">
        <ele>93.39</ele>
        <time>2013-10-20T08:09:16Z</time>
      </trkpt>
      <trkpt lat="47.32657" lon="-0.61722">
        <ele>93.39</ele>
        <time>2013-10-20T08:09:21Z</time>
      </trkpt>
      <trkpt lat="47.32617" lon="-0.61748">
        <ele>91.46</ele>
        <time>2013-10-20T08:09:29Z</time>
      </trkpt>
      <trkpt lat="47.32589" lon="-0.61765">
        <ele>90.5</ele>
        <time>2013-10-20T08:09:34Z</time>
      </trkpt>
      <trkpt lat="47.32542" lon="-0.61794">
        <ele>88.1</ele>
        <time>2013-10-20T08:09:42Z</time>
      </trkpt>
      <trkpt lat="47.32526" lon="-0.61803">
        <ele>87.14</ele>
        <time>2013-10-20T08:09:46Z</time>
      </trkpt>
      <trkpt lat="47.3252" lon="-0.61804">
        <ele>87.14</ele>
        <time>2013-10-20T08:09:51Z</time>
      </trkpt>
      <trkpt lat="47.32511" lon="-0.61791">
        <ele>87.14</ele>
        <time>2013-10-20T08:09:56Z</time>
      </trkpt>
      <trkpt lat="47.32495" lon="-0.61728">
        <ele>87.62</ele>
        <time>2013-10-20T08:10:06Z</time>
      </trkpt>
      <trkpt lat="47.32469" lon="-0.61667">
        <ele>88.1</ele>
        <time>2013-10-20T08:10:16Z</time>
      </trkpt>
      <trkpt lat="47.32437" lon="-0.61611">
        <ele>89.54</ele>
        <time>2013-10-20T08:10:26Z</time>
      </trkpt>
      <trkpt lat="47.32408" lon="-0.61562">
        <ele>90.02</ele>
        <time>2013-10-20T08:10:35Z</time>
      </trkpt>
      <trkpt lat="47.32386" lon="-0.61523">
        <ele>90.5</ele>
        <time>2013-10-20T08:10:42Z</time>
      </trkpt>
      <trkpt lat="47.32353" lon="-0.61462">
        <ele>90.5</ele>
        <time>2013-10-20T08:10:52Z</time>
      </trkpt>
      <trkpt lat="47.32336" lon="-0.61432">
        <ele>90.98</ele>
        <time>2013-10-20T08:10:57Z</time>
      </trkpt>
      <trkpt lat="47.32338" lon="-0.61404">
        <ele>89.06</ele>
        <time>2013-10-20T08:11:01Z</time>
      </trkpt>
      <trkpt lat="47.32343" lon="-0.61399">
        <ele>89.06</ele>
        <time>2013-10-20T08:11:02Z</time>
      </trkpt>
      <trkpt lat="47.32352" lon="-0.61391">
        <ele>89.54</ele>
        <time>2013-10-20T08:11:04Z</time>
      </trkpt>
      <trkpt lat="47.32388" lon="-0.61365">
        <ele>90.5</ele>
        <time>2013-10-20T08:11:12Z</time>
      </trkpt>
      <trkpt lat="47.32418" lon="-0.61342">
        <ele>91.46</ele>
        <time>2013-10-20T08:11:19Z</time>
      </trkpt>
      <trkpt lat="47.32433" lon="-0.61307">
        <ele>91.94</ele>
        <time>2013-10-20T08:11:25Z</time>
      </trkpt>
      <trkpt lat="47.32453" lon="-0.61237">
        <ele>92.42</ele>
        <time>2013-10-20T08:11:35Z</time>
      </trkpt>
      <trkpt lat="47.32461" lon="-0.61181">
        <ele>91.94</ele>
        <time>2013-10-20T08:11:42Z</time>
      </trkpt>
      <trkpt lat="47.3246" lon="-0.61129">
        <ele>91.94</ele>
        <time>2013-10-20T08:11:48Z</time>
      </trkpt>
      <trkpt lat="47.32452" lon="-0.61033">
        <ele>90.5</ele>
        <time>2013-10-20T08:11:58Z</time>
      </trkpt>
      <trkpt lat="47.32446" lon="-0.6095">
        <ele>90.5</ele>
        <time>2013-10-20T08:12:07Z</time>
      </trkpt>
      <trkpt lat="47.32438" lon="-0.60888">
        <ele>90.5</ele>
        <time>2013-10-20T08:12:14Z</time>
      </trkpt>
      <trkpt lat="47.32436" lon="-0.60861">
        <ele>90.5</ele>
        <time>2013-10-20T08:12:17Z</time>
      </trkpt>
      <trkpt lat="47.32446" lon="-0.60812">
        <ele>90.02</ele>
        <time>2013-10-20T08:12:23Z</time>
      </trkpt>
      <trkpt lat="47.3246" lon="-0.60786">
        <ele>90.5</ele>
        <time>2013-10-20T08:12:27Z</time>
      </trkpt>
      <trkpt lat="47.32468" lon="-0.60744">
        <ele>90.98</ele>
        <time>2013-10-20T08:12:32Z</time>
      </trkpt>
      <trkpt lat="47.32456" lon="-0.60678">
        <ele>91.46</ele>
        <time>2013-10-20T08:12:40Z</time>
      </trkpt>
      <trkpt lat="47.32454" lon="-0.60671">
        <ele>91.46</ele>
        <time>2013-10-20T08:12:41Z</time>
      </trkpt>
      <trkpt lat="47.32457" lon="-0.60641">
        <ele>91.94</ele>
        <time>2013-10-20T08:12:45Z</time>
      </trkpt>
      <trkpt lat="47.32461" lon="-0.60635">
        <ele>91.94</ele>
        <time>2013-10-20T08:12:46Z</time>
      </trkpt>
      <trkpt lat="47.32477" lon="-0.60621">
        <ele>91.46</ele>
        <time>2013-10-20T08:12:49Z</time>
      </trkpt>
      <trkpt lat="47.32506" lon="-0.60613">
        <ele>91.46</ele>
        <time>2013-10-20T08:12:54Z</time>
      </trkpt>
      <trkpt lat="47.32575" lon="-0.60608">
        <ele>91.46</ele>
        <time>2013-10-20T08:13:05Z</time>
      </trkpt>
      <trkpt lat="47.32633" lon="-0.606">
        <ele>90.02</ele>
        <time>2013-10-20T08:13:14Z</time>
      </trkpt>
      <trkpt lat="47.32639" lon="-0.60597">
        <ele>90.5</ele>
        <time>2013-10-20T08:13:15Z</time>
      </trkpt>
      <trkpt lat="47.32669" lon="-0.60582">
        <ele>89.54</ele>
        <time>2013-10-20T08:13:20Z</time>
      </trkpt>
      <trkpt lat="47.32706" lon="-0.60547">
        <ele>86.18</ele>
        <time>2013-10-20T08:13:26Z</time>
      </trkpt>
      <trkpt lat="47.32713" lon="-0.6054">
        <ele>85.69</ele>
        <time>2013-10-20T08:13:27Z</time>
      </trkpt>
      <trkpt lat="47.32766" lon="-0.60484">
        <ele>82.81</ele>
        <time>2013-10-20T08:13:35Z</time>
      </trkpt>
      <trkpt lat="47.32794" lon="-0.60455">
        <ele>81.37</ele>
        <time>2013-10-20T08:13:39Z</time>
      </trkpt>
      <trkpt lat="47.32818" lon="-0.6043">
        <ele>79.45</ele>
        <time>2013-10-20T08:13:43Z</time>
      </trkpt>
      <trkpt lat="47.32835" lon="-0.60436">
        <ele>78.97</ele>
        <time>2013-10-20T08:13:47Z</time>
      </trkpt>
      <trkpt lat="47.32861" lon="-0.60501">
        <ele>78.97</ele>
        <time>2013-10-20T08:13:55Z</time>
      </trkpt>
      <trkpt lat="47.32882" lon="-0.60531">
        <ele>78.97</ele>
        <time>2013-10-20T08:13:59Z</time>
      </trkpt>
      <trkpt lat="47.32945" lon="-0.60582">
        <ele>77.04</ele>
        <time>2013-10-20T08:14:09Z</time>
      </trkpt>
      <trkpt lat="47.32973" lon="-0.60597">
        <ele>78</ele>
        <time>2013-10-20T08:14:14Z</time>
      </trkpt>
      <trkpt lat="47.32992" lon="-0.60585">
        <ele>78</ele>
        <time>2013-10-20T08:14:18Z</time>
      </trkpt>
      <trkpt lat="47.32991" lon="-0.60558">
        <ele>77.52</ele>
        <time>2013-10-20T08:14:21Z</time>
      </trkpt>
      <trkpt lat="47.32986" lon="-0.605">
        <ele>75.6</ele>
        <time>2013-10-20T08:14:27Z</time>
      </trkpt>
      <trkpt lat="47.32999" lon="-0.60469">
        <ele>75.12</ele>
        <time>2013-10-20T08:14:31Z</time>
      </trkpt>
      <trkpt lat="47.33005" lon="-0.60466">
        <ele>75.12</ele>
        <time>2013-10-20T08:14:32Z</time>
      </trkpt>
      <trkpt lat="47.33032" lon="-0.60458">
        <ele>75.12</ele>
        <time>2013-10-20T08:14:36Z</time>
      </trkpt>
      <trkpt lat="47.33089" lon="-0.60438">
        <ele>75.12</ele>
        <time>2013-10-20T08:14:45Z</time>
      </trkpt>
      <trkpt lat="47.33139" lon="-0.60408">
        <ele>73.2</ele>
        <time>2013-10-20T08:14:53Z</time>
      </trkpt>
      <trkpt lat="47.33207" lon="-0.60366">
        <ele>70.31</ele>
        <time>2013-10-20T08:15:03Z</time>
      </trkpt>
      <trkpt lat="47.33241" lon="-0.60345">
        <ele>69.83</ele>
        <time>2013-10-20T08:15:08Z</time>
      </trkpt>
      <trkpt lat="47.33278" lon="-0.60342">
        <ele>71.27</ele>
        <time>2013-10-20T08:15:13Z</time>
      </trkpt>
      <trkpt lat="47.3331" lon="-0.60342">
        <ele>71.76</ele>
        <time>2013-10-20T08:15:18Z</time>
      </trkpt>
      <trkpt lat="47.33321" lon="-0.6035">
        <ele>72.24</ele>
        <time>2013-10-20T08:15:21Z</time>
      </trkpt>
      <trkpt lat="47.33342" lon="-0.60349">
        <ele>72.24</ele>
        <time>2013-10-20T08:15:25Z</time>
      </trkpt>
      <trkpt lat="47.33348" lon="-0.60347">
        <ele>72.24</ele>
        <time>2013-10-20T08:15:26Z</time>
      </trkpt>
      <trkpt lat="47.33409" lon="-0.60325">
        <ele>69.83</ele>
        <time>2013-10-20T08:15:35Z</time>
      </trkpt>
      <trkpt lat="47.33468" lon="-0.60293">
        <ele>66.47</ele>
        <time>2013-10-20T08:15:43Z</time>
      </trkpt>
      <trkpt lat="47.33481" lon="-0.60282">
        <ele>65.99</ele>
        <time>2013-10-20T08:15:45Z</time>
      </trkpt>
      <trkpt lat="47.33504" lon="-0.60249">
        <ele>64.55</ele>
        <time>2013-10-20T08:15:49Z</time>
      </trkpt>
      <trkpt lat="47.33518" lon="-0.60217">
        <ele>63.58</ele>
        <time>2013-10-20T08:15:52Z</time>
      </trkpt>
      <trkpt lat="47.3355" lon="-0.60135">
        <ele>64.55</ele>
        <time>2013-10-20T08:16:00Z</time>
      </trkpt>
      <trkpt lat="47.33578" lon="-0.60072">
        <ele>65.99</ele>
        <time>2013-10-20T08:16:07Z</time>
      </trkpt>
      <trkpt lat="47.33601" lon="-0.60046">
        <ele>65.99</ele>
        <time>2013-10-20T08:16:11Z</time>
      </trkpt>
      <trkpt lat="47.33655" lon="-0.60014">
        <ele>65.03</ele>
        <time>2013-10-20T08:16:19Z</time>
      </trkpt>
      <trkpt lat="47.33695" lon="-0.59987">
        <ele>65.51</ele>
        <time>2013-10-20T08:16:26Z</time>
      </trkpt>
      <trkpt lat="47.33736" lon="-0.59963">
        <ele>68.39</ele>
        <time>2013-10-20T08:16:34Z</time>
      </trkpt>
      <trkpt lat="47.33744" lon="-0.59957">
        <ele>69.35</ele>
        <time>2013-10-20T08:16:36Z</time>
      </trkpt>
      <trkpt lat="47.33758" lon="-0.59944">
        <ele>69.83</ele>
        <time>2013-10-20T08:16:40Z</time>
      </trkpt>
      <trkpt lat="47.33765" lon="-0.59926">
        <ele>71.27</ele>
        <time>2013-10-20T08:16:44Z</time>
      </trkpt>
      <trkpt lat="47.33759" lon="-0.59882">
        <ele>73.2</ele>
        <time>2013-10-20T08:16:53Z</time>
      </trkpt>
      <trkpt lat="47.33747" lon="-0.59834">
        <ele>74.16</ele>
        <time>2013-10-20T08:17:03Z</time>
      </trkpt>
      <trkpt lat="47.33742" lon="-0.59817">
        <ele>74.16</ele>
        <time>2013-10-20T08:17:06Z</time>
      </trkpt>
      <trkpt lat="47.33737" lon="-0.59805">
        <ele>74.16</ele>
        <time>2013-10-20T08:17:08Z</time>
      </trkpt>
      <trkpt lat="47.33727" lon="-0.59794">
        <ele>74.16</ele>
        <time>2013-10-20T08:17:11Z</time>
      </trkpt>
      <trkpt lat="47.33694" lon="-0.5979">
        <ele>74.64</ele>
        <time>2013-10-20T08:17:18Z</time>
      </trkpt>
      <trkpt lat="47.33674" lon="-0.59788">
        <ele>74.16</ele>
        <time>2013-10-20T08:17:22Z</time>
      </trkpt>
      <trkpt lat="47.33652" lon="-0.59771">
        <ele>74.16</ele>
        <time>2013-10-20T08:17:27Z</time>
      </trkpt>
      <trkpt lat="47.33633" lon="-0.59733">
        <ele>73.68</ele>
        <time>2013-10-20T08:17:33Z</time>
      </trkpt>
      <trkpt lat="47.33624" lon="-0.59704">
        <ele>74.64</ele>
        <time>2013-10-20T08:17:37Z</time>
      </trkpt>
      <trkpt lat="47.33609" lon="-0.59632">
        <ele>76.08</ele>
        <time>2013-10-20T08:17:47Z</time>
      </trkpt>
      <trkpt lat="47.33604" lon="-0.5961">
        <ele>76.56</ele>
        <time>2013-10-20T08:17:50Z</time>
      </trkpt>
      <trkpt lat="47.33595" lon="-0.59575">
        <ele>77.52</ele>
        <time>2013-10-20T08:17:54Z</time>
      </trkpt>
      <trkpt lat="47.33582" lon="-0.59512">
        <ele>78</ele>
        <time>2013-10-20T08:18:02Z</time>
      </trkpt>
      <trkpt lat="47.33573" lon="-0.59467">
        <ele>78</ele>
        <time>2013-10-20T08:18:08Z</time>
      </trkpt>
      <trkpt lat="47.33561" lon="-0.59456">
        <ele>78.48</ele>
        <time>2013-10-20T08:18:12Z</time>
      </trkpt>
      <trkpt lat="47.3354" lon="-0.5947">
        <ele>78.48</ele>
        <time>2013-10-20T08:18:17Z</time>
      </trkpt>
      <trkpt lat="47.335" lon="-0.59492">
        <ele>78.97</ele>
        <time>2013-10-20T08:18:26Z</time>
      </trkpt>
      <trkpt lat="47.33473" lon="-0.59506">
        <ele>79.45</ele>
        <time>2013-10-20T08:18:32Z</time>
      </trkpt>
      <trkpt lat="47.3345" lon="-0.59516">
        <ele>79.93</ele>
        <time>2013-10-20T08:18:37Z</time>
      </trkpt>
      <trkpt lat="47.33423" lon="-0.5953">
        <ele>80.41</ele>
        <time>2013-10-20T08:18:43Z</time>
      </trkpt>
      <trkpt lat="47.33407" lon="-0.59541">
        <ele>79.93</ele>
        <time>2013-10-20T08:18:47Z</time>
      </trkpt>
      <trkpt lat="47.33376" lon="-0.59558">
        <ele>80.41</ele>
        <time>2013-10-20T08:18:54Z</time>
      </trkpt>
      <trkpt lat="47.33338" lon="-0.59577">
        <ele>80.41</ele>
        <time>2013-10-20T08:19:03Z</time>
      </trkpt>
      <trkpt lat="47.333" lon="-0.59595">
        <ele>80.89</ele>
        <time>2013-10-20T08:19:11Z</time>
      </trkpt>
      <trkpt lat="47.33271" lon="-0.59609">
        <ele>80.89</ele>
        <time>2013-10-20T08:19:17Z</time>
      </trkpt>
      <trkpt lat="47.33266" lon="-0.59611">
        <ele>80.41</ele>
        <time>2013-10-20T08:19:18Z</time>
      </trkpt>
      <trkpt lat="47.33246" lon="-0.59623">
        <ele>80.89</ele>
        <time>2013-10-20T08:19:22Z</time>
      </trkpt>
      <trkpt lat="47.33205" lon="-0.59649">
        <ele>81.37</ele>
        <time>2013-10-20T08:19:31Z</time>
      </trkpt>
      <trkpt lat="47.3319" lon="-0.59642">
        <ele>80.89</ele>
        <time>2013-10-20T08:19:35Z</time>
      </trkpt>
      <trkpt lat="47.33175" lon="-0.59581">
        <ele>80.89</ele>
        <time>2013-10-20T08:19:44Z</time>
      </trkpt>
      <trkpt lat="47.33165" lon="-0.59534">
        <ele>80.41</ele>
        <time>2013-10-20T08:19:50Z</time>
      </trkpt>
      <trkpt lat="47.33148" lon="-0.59461">
        <ele>78.48</ele>
        <time>2013-10-20T08:19:58Z</time>
      </trkpt>
      <trkpt lat="47.3313" lon="-0.5937">
        <ele>76.56</ele>
        <time>2013-10-20T08:20:06Z</time>
      </trkpt>
      <trkpt lat="47.33109" lon="-0.59277">
        <ele>77.52</ele>
        <time>2013-10-20T08:20:15Z</time>
      </trkpt>
      <trkpt lat="47.33094" lon="-0.59206">
        <ele>78.97</ele>
        <time>2013-10-20T08:20:23Z</time>
      </trkpt>
      <trkpt lat="47.33087" lon="-0.59175">
        <ele>78.97</ele>
        <time>2013-10-20T08:20:28Z</time>
      </trkpt>
      <trkpt lat="47.33078" lon="-0.59145">
        <ele>79.93</ele>
        <time>2013-10-20T08:20:35Z</time>
      </trkpt>
      <trkpt lat="47.33074" lon="-0.5912">
        <ele>80.41</ele>
        <time>2013-10-20T08:20:40Z</time>
      </trkpt>
      <trkpt lat="47.3307" lon="-0.59095">
        <ele>80.41</ele>
        <time>2013-10-20T08:20:44Z</time>
      </trkpt>
      <trkpt lat="47.33058" lon="-0.59037">
        <ele>81.37</ele>
        <time>2013-10-20T08:20:53Z</time>
      </trkpt>
      <trkpt lat="47.33056" lon="-0.59029">
        <ele>81.85</ele>
        <time>2013-10-20T08:20:54Z</time>
      </trkpt>
      <trkpt lat="47.33049" lon="-0.58992">
        <ele>81.85</ele>
        <time>2013-10-20T08:20:59Z</time>
      </trkpt>
      <trkpt lat="47.33049" lon="-0.58984">
        <ele>81.37</ele>
        <time>2013-10-20T08:21:00Z</time>
      </trkpt>
      <trkpt lat="47.33052" lon="-0.58927">
        <ele>80.89</ele>
        <time>2013-10-20T08:21:07Z</time>
      </trkpt>
      <trkpt lat="47.3306" lon="-0.58864">
        <ele>80.41</ele>
        <time>2013-10-20T08:21:14Z</time>
      </trkpt>
      <trkpt lat="47.33067" lon="-0.58803">
        <ele>79.45</ele>
        <time>2013-10-20T08:21:21Z</time>
      </trkpt>
      <trkpt lat="47.33067" lon="-0.58786">
        <ele>78.97</ele>
        <time>2013-10-20T08:21:23Z</time>
      </trkpt>
      <trkpt lat="47.33058" lon="-0.58717">
        <ele>78.48</ele>
        <time>2013-10-20T08:21:31Z</time>
      </trkpt>
      <trkpt lat="47.33057" lon="-0.58708">
        <ele>78</ele>
        <time>2013-10-20T08:21:32Z</time>
      </trkpt>
      <trkpt lat="47.33057" lon="-0.587">
        <ele>78.48</ele>
        <time>2013-10-20T08:21:33Z</time>
      </trkpt>
      <trkpt lat="47.33057" lon="-0.58692">
        <ele>78.48</ele>
        <time>2013-10-20T08:21:34Z</time>
      </trkpt>
      <trkpt lat="47.33056" lon="-0.58683">
        <ele>78.48</ele>
        <time>2013-10-20T08:21:35Z</time>
      </trkpt>
      <trkpt lat="47.33044" lon="-0.58615">
        <ele>78.97</ele>
        <time>2013-10-20T08:21:43Z</time>
      </trkpt>
      <trkpt lat="47.33039" lon="-0.58595">
        <ele>78.97</ele>
        <time>2013-10-20T08:21:46Z</time>
      </trkpt>
      <trkpt lat="47.33032" lon="-0.58568">
        <ele>79.45</ele>
        <time>2013-10-20T08:21:50Z</time>
      </trkpt>
      <trkpt lat="47.33028" lon="-0.58554">
        <ele>80.41</ele>
        <time>2013-10-20T08:21:52Z</time>
      </trkpt>
      <trkpt lat="47.33011" lon="-0.5851">
        <ele>81.85</ele>
        <time>2013-10-20T08:22:00Z</time>
      </trkpt>
      <trkpt lat="47.32998" lon="-0.58481">
        <ele>82.33</ele>
        <time>2013-10-20T08:22:06Z</time>
      </trkpt>
      <trkpt lat="47.32985" lon="-0.58456">
        <ele>82.81</ele>
        <time>2013-10-20T08:22:12Z</time>
      </trkpt>
      <trkpt lat="47.3297" lon="-0.58429">
        <ele>84.25</ele>
        <time>2013-10-20T08:22:19Z</time>
      </trkpt>
      <trkpt lat="47.32953" lon="-0.58397">
        <ele>85.69</ele>
        <time>2013-10-20T08:22:27Z</time>
      </trkpt>
      <trkpt lat="47.32941" lon="-0.58374">
        <ele>85.69</ele>
        <time>2013-10-20T08:22:32Z</time>
      </trkpt>
      <trkpt lat="47.32918" lon="-0.5833">
        <ele>86.18</ele>
        <time>2013-10-20T08:22:41Z</time>
      </trkpt>
      <trkpt lat="47.32901" lon="-0.58293">
        <ele>86.18</ele>
        <time>2013-10-20T08:22:48Z</time>
      </trkpt>
      <trkpt lat="47.32897" lon="-0.58267">
        <ele>85.69</ele>
        <time>2013-10-20T08:22:52Z</time>
      </trkpt>
      <trkpt lat="47.32899" lon="-0.58246">
        <ele>85.21</ele>
        <time>2013-10-20T08:22:55Z</time>
      </trkpt>
      <trkpt lat="47.32893" lon="-0.58225">
        <ele>85.21</ele>
        <time>2013-10-20T08:22:59Z</time>
      </trkpt>
      <trkpt lat="47.32877" lon="-0.5823">
        <ele>85.69</ele>
        <time>2013-10-20T08:23:03Z</time>
      </trkpt>
      <trkpt lat="47.32848" lon="-0.58243">
        <ele>85.69</ele>
        <time>2013-10-20T08:23:12Z</time>
      </trkpt>
      <trkpt lat="47.32848" lon="-0.58243">
        <ele>86.18</ele>
        <time>2013-10-20T08:23:20Z</time>
      </trkpt>
      <trkpt lat="47.32848" lon="-0.58243">
        <ele>86.18</ele>
        <time>2013-10-20T08:23:31Z</time>
      </trkpt>
      <trkpt lat="47.32848" lon="-0.58243">
        <ele>85.69</ele>
        <time>2013-10-20T08:23:47Z</time>
      </trkpt>
      <trkpt lat="47.32848" lon="-0.58243">
        <ele>86.66</ele>
        <time>2013-10-20T08:24:03Z</time>
      </trkpt>
      <trkpt lat="47.32848" lon="-0.58243">
        <ele>86.18</ele>
        <time>2013-10-20T08:24:17Z</time>
      </trkpt>
      <trkpt lat="47.32848" lon="-0.58243">
        <ele>86.18</ele>
        <time>2013-10-20T08:24:33Z</time>
      </trkpt>
      <trkpt lat="47.32848" lon="-0.58243">
        <ele>86.18</ele>
        <time>2013-10-20T08:24:45Z</time>
      </trkpt>
      <trkpt lat="47.32848" lon="-0.58243">
        <ele>86.18</ele>
        <time>2013-10-20T08:25:00Z</time>
      </trkpt>
      <trkpt lat="47.32848" lon="-0.58243">
        <ele>86.66</ele>
        <time>2013-10-20T08:25:13Z</time>
      </trkpt>
      <trkpt lat="47.32848" lon="-0.58243">
        <ele>86.66</ele>
        <time>2013-10-20T08:25:26Z</time>
      </trkpt>
      <trkpt lat="47.32847" lon="-0.58244">
        <ele>86.18</ele>
        <time>2013-10-20T08:25:34Z</time>
      </trkpt>
      <trkpt lat="47.32847" lon="-0.58244">
        <ele>86.66</ele>
        <time>2013-10-20T08:25:47Z</time>
      </trkpt>
      <trkpt lat="47.32847" lon="-0.58244">
        <ele>86.18</ele>
        <time>2013-10-20T08:26:05Z</time>
      </trkpt>
      <trkpt lat="47.32845" lon="-0.58247">
        <ele>86.18</ele>
        <time>2013-10-20T08:26:09Z</time>
      </trkpt>
      <trkpt lat="47.32831" lon="-0.58253">
        <ele>87.14</ele>
        <time>2013-10-20T08:26:15Z</time>
      </trkpt>
      <trkpt lat="47.32821" lon="-0.58257">
        <ele>87.62</ele>
        <time>2013-10-20T08:26:19Z</time>
      </trkpt>
      <trkpt lat="47.328" lon="-0.58265">
        <ele>87.62</ele>
        <time>2013-10-20T08:26:28Z</time>
      </trkpt>
      <trkpt lat="47.32779" lon="-0.58273">
        <ele>88.58</ele>
        <time>2013-10-20T08:26:34Z</time>
      </trkpt>
      <trkpt lat="47.32758" lon="-0.58279">
        <ele>89.06</ele>
        <time>2013-10-20T08:26:39Z</time>
      </trkpt>
      <trkpt lat="47.32741" lon="-0.58284">
        <ele>88.58</ele>
        <time>2013-10-20T08:26:43Z</time>
      </trkpt>
      <trkpt lat="47.32719" lon="-0.58291">
        <ele>89.54</ele>
        <time>2013-10-20T08:26:48Z</time>
      </trkpt>
      <trkpt lat="47.32699" lon="-0.58299">
        <ele>89.54</ele>
        <time>2013-10-20T08:26:52Z</time>
      </trkpt>
      <trkpt lat="47.3269" lon="-0.58302">
        <ele>88.58</ele>
        <time>2013-10-20T08:26:54Z</time>
      </trkpt>
      <trkpt lat="47.32661" lon="-0.58311">
        <ele>89.06</ele>
        <time>2013-10-20T08:27:01Z</time>
      </trkpt>
      <trkpt lat="47.32638" lon="-0.58318">
        <ele>88.58</ele>
        <time>2013-10-20T08:27:07Z</time>
      </trkpt>
      <trkpt lat="47.32606" lon="-0.58329">
        <ele>88.58</ele>
        <time>2013-10-20T08:27:14Z</time>
      </trkpt>
      <trkpt lat="47.32572" lon="-0.58345">
        <ele>89.54</ele>
        <time>2013-10-20T08:27:21Z</time>
      </trkpt>
      <trkpt lat="47.32567" lon="-0.58346">
        <ele>89.54</ele>
        <time>2013-10-20T08:27:22Z</time>
      </trkpt>
      <trkpt lat="47.32541" lon="-0.58356">
        <ele>89.06</ele>
        <time>2013-10-20T08:27:27Z</time>
      </trkpt>
      <trkpt lat="47.32523" lon="-0.5836">
        <ele>89.06</ele>
        <time>2013-10-20T08:27:31Z</time>
      </trkpt>
      <trkpt lat="47.32476" lon="-0.5838">
        <ele>88.58</ele>
        <time>2013-10-20T08:27:40Z</time>
      </trkpt>
      <trkpt lat="47.32453" lon="-0.58389">
        <ele>88.58</ele>
        <time>2013-10-20T08:27:44Z</time>
      </trkpt>
      <trkpt lat="47.32402" lon="-0.58405">
        <ele>88.1</ele>
        <time>2013-10-20T08:27:53Z</time>
      </trkpt>
      <trkpt lat="47.32357" lon="-0.58419">
        <ele>88.1</ele>
        <time>2013-10-20T08:28:01Z</time>
      </trkpt>
      <trkpt lat="47.32351" lon="-0.58422">
        <ele>88.58</ele>
        <time>2013-10-20T08:28:02Z</time>
      </trkpt>
      <trkpt lat="47.32307" lon="-0.58437">
        <ele>90.02</ele>
        <time>2013-10-20T08:28:10Z</time>
      </trkpt>
      <trkpt lat="47.32275" lon="-0.58447">
        <ele>90.5</ele>
        <time>2013-10-20T08:28:16Z</time>
      </trkpt>
      <trkpt lat="47.32234" lon="-0.58461">
        <ele>91.46</ele>
        <time>2013-10-20T08:28:24Z</time>
      </trkpt>
      <trkpt lat="47.32189" lon="-0.58476">
        <ele>92.42</ele>
        <time>2013-10-20T08:28:33Z</time>
      </trkpt>
      <trkpt lat="47.32151" lon="-0.58488">
        <ele>93.39</ele>
        <time>2013-10-20T08:28:41Z</time>
      </trkpt>
      <trkpt lat="47.32133" lon="-0.58493">
        <ele>93.39</ele>
        <time>2013-10-20T08:28:45Z</time>
      </trkpt>
      <trkpt lat="47.32113" lon="-0.585">
        <ele>93.87</ele>
        <time>2013-10-20T08:28:50Z</time>
      </trkpt>
      <trkpt lat="47.32104" lon="-0.58502">
        <ele>94.83</ele>
        <time>2013-10-20T08:28:52Z</time>
      </trkpt>
      <trkpt lat="47.32066" lon="-0.58513">
        <ele>96.27</ele>
        <time>2013-10-20T08:29:00Z</time>
      </trkpt>
      <trkpt lat="47.32045" lon="-0.58521">
        <ele>96.27</ele>
        <time>2013-10-20T08:29:05Z</time>
      </trkpt>
      <trkpt lat="47.32021" lon="-0.58529">
        <ele>97.23</ele>
        <time>2013-10-20T08:29:11Z</time>
      </trkpt>
      <trkpt lat="47.31988" lon="-0.58541">
        <ele>98.67</ele>
        <time>2013-10-20T08:29:19Z</time>
      </trkpt>
      <trkpt lat="47.31967" lon="-0.58552">
        <ele>99.63</ele>
        <time>2013-10-20T08:29:25Z</time>
      </trkpt>
      <trkpt lat="47.31955" lon="-0.58556">
        <ele>100.11</ele>
        <time>2013-10-20T08:29:28Z</time>
      </trkpt>
      <trkpt lat="47.31932" lon="-0.58566">
        <ele>100.6</ele>
        <time>2013-10-20T08:29:34Z</time>
      </trkpt>
      <trkpt lat="47.31914" lon="-0.5857">
        <ele>101.56</ele>
        <time>2013-10-20T08:29:39Z</time>
      </trkpt>
      <trkpt lat="47.31885" lon="-0.58582">
        <ele>103</ele>
        <time>2013-10-20T08:29:47Z</time>
      </trkpt>
      <trkpt lat="47.31878" lon="-0.58584">
        <ele>102.52</ele>
        <time>2013-10-20T08:29:49Z</time>
      </trkpt>
      <trkpt lat="47.31843" lon="-0.58592">
        <ele>103.96</ele>
        <time>2013-10-20T08:29:57Z</time>
      </trkpt>
      <trkpt lat="47.31818" lon="-0.586">
        <ele>104.44</ele>
        <time>2013-10-20T08:30:02Z</time>
      </trkpt>
      <trkpt lat="47.31792" lon="-0.58607">
        <ele>104.44</ele>
        <time>2013-10-20T08:30:09Z</time>
      </trkpt>
      <trkpt lat="47.3177" lon="-0.58615">
        <ele>104.92</ele>
        <time>2013-10-20T08:30:15Z</time>
      </trkpt>
      <trkpt lat="47.31736" lon="-0.58626">
        <ele>104.92</ele>
        <time>2013-10-20T08:30:24Z</time>
      </trkpt>
      <trkpt lat="47.31697" lon="-0.5864">
        <ele>104.92</ele>
        <time>2013-10-20T08:30:33Z</time>
      </trkpt>
      <trkpt lat="47.31685" lon="-0.58644">
        <ele>104.92</ele>
        <time>2013-10-20T08:30:36Z</time>
      </trkpt>
      <trkpt lat="47.3164" lon="-0.58644">
        <ele>103</ele>
        <time>2013-10-20T08:30:45Z</time>
      </trkpt>
      <trkpt lat="47.31629" lon="-0.58643">
        <ele>102.52</ele>
        <time>2013-10-20T08:30:47Z</time>
      </trkpt>
      <trkpt lat="47.31604" lon="-0.58659">
        <ele>101.56</ele>
        <time>2013-10-20T08:30:52Z</time>
      </trkpt>
      <trkpt lat="47.31606" lon="-0.58673">
        <ele>100.6</ele>
        <time>2013-10-20T08:30:54Z</time>
      </trkpt>
      <trkpt lat="47.31625" lon="-0.58732">
        <ele>101.56</ele>
        <time>2013-10-20T08:31:03Z</time>
      </trkpt>
      <trkpt lat="47.31631" lon="-0.58745">
        <ele>101.56</ele>
        <time>2013-10-20T08:31:05Z</time>
      </trkpt>
      <trkpt lat="47.31647" lon="-0.58773">
        <ele>102.04</ele>
        <time>2013-10-20T08:31:10Z</time>
      </trkpt>
      <trkpt lat="47.31688" lon="-0.58826">
        <ele>102.04</ele>
        <time>2013-10-20T08:31:21Z</time>
      </trkpt>
      <trkpt lat="47.31718" lon="-0.58871">
        <ele>102.04</ele>
        <time>2013-10-20T08:31:29Z</time>
      </trkpt>
      <trkpt lat="47.31747" lon="-0.58929">
        <ele>102.52</ele>
        <time>2013-10-20T08:31:38Z</time>
      </trkpt>
      <trkpt lat="47.31754" lon="-0.58964">
        <ele>102.04</ele>
        <time>2013-10-20T08:31:42Z</time>
      </trkpt>
      <trkpt lat="47.31759" lon="-0.59038">
        <ele>102.04</ele>
        <time>2013-10-20T08:31:50Z</time>
      </trkpt>
      <trkpt lat="47.31771" lon="-0.59114">
        <ele>100.6</ele>
        <time>2013-10-20T08:31:58Z</time>
      </trkpt>
      <trkpt lat="47.31788" lon="-0.59185">
        <ele>101.08</ele>
        <time>2013-10-20T08:32:06Z</time>
      </trkpt>
      <trkpt lat="47.31799" lon="-0.59228">
        <ele>101.08</ele>
        <time>2013-10-20T08:32:11Z</time>
      </trkpt>
      <trkpt lat="47.3181" lon="-0.59327">
        <ele>101.08</ele>
        <time>2013-10-20T08:32:22Z</time>
      </trkpt>
      <trkpt lat="47.31815" lon="-0.59385">
        <ele>101.08</ele>
        <time>2013-10-20T08:32:29Z</time>
      </trkpt>
      <trkpt lat="47.31808" lon="-0.5941">
        <ele>102.04</ele>
        <time>2013-10-20T08:32:34Z</time>
      </trkpt>
      <trkpt lat="47.31803" lon="-0.59412">
        <ele>102.04</ele>
        <time>2013-10-20T08:32:35Z</time>
      </trkpt>
      <trkpt lat="47.31756" lon="-0.59434">
        <ele>99.63</ele>
        <time>2013-10-20T08:32:44Z</time>
      </trkpt>
      <trkpt lat="47.31711" lon="-0.59453">
        <ele>96.75</ele>
        <time>2013-10-20T08:32:50Z</time>
      </trkpt>
      <trkpt lat="47.31666" lon="-0.59463">
        <ele>93.39</ele>
        <time>2013-10-20T08:32:55Z</time>
      </trkpt>
      <trkpt lat="47.31657" lon="-0.59465">
        <ele>93.39</ele>
        <time>2013-10-20T08:32:56Z</time>
      </trkpt>
      <trkpt lat="47.3162" lon="-0.59471">
        <ele>90.5</ele>
        <time>2013-10-20T08:33:00Z</time>
      </trkpt>
      <trkpt lat="47.3161" lon="-0.59471">
        <ele>90.5</ele>
        <time>2013-10-20T08:33:01Z</time>
      </trkpt>
      <trkpt lat="47.31535" lon="-0.59467">
        <ele>88.58</ele>
        <time>2013-10-20T08:33:09Z</time>
      </trkpt>
      <trkpt lat="47.3151" lon="-0.59471">
        <ele>87.14</ele>
        <time>2013-10-20T08:33:12Z</time>
      </trkpt>
      <trkpt lat="47.31454" lon="-0.59467">
        <ele>85.21</ele>
        <time>2013-10-20T08:33:19Z</time>
      </trkpt>
      <trkpt lat="47.31426" lon="-0.59459">
        <ele>83.77</ele>
        <time>2013-10-20T08:33:23Z</time>
      </trkpt>
      <trkpt lat="47.31401" lon="-0.59452">
        <ele>82.81</ele>
        <time>2013-10-20T08:33:27Z</time>
      </trkpt>
      <trkpt lat="47.31384" lon="-0.59449">
        <ele>82.33</ele>
        <time>2013-10-20T08:33:30Z</time>
      </trkpt>
      <trkpt lat="47.31368" lon="-0.5946">
        <ele>82.81</ele>
        <time>2013-10-20T08:33:34Z</time>
      </trkpt>
      <trkpt lat="47.31351" lon="-0.59499">
        <ele>81.37</ele>
        <time>2013-10-20T08:33:40Z</time>
      </trkpt>
      <trkpt lat="47.31347" lon="-0.59542">
        <ele>80.89</ele>
        <time>2013-10-20T08:33:45Z</time>
      </trkpt>
      <trkpt lat="47.31349" lon="-0.59589">
        <ele>79.93</ele>
        <time>2013-10-20T08:33:50Z</time>
      </trkpt>
      <trkpt lat="47.31346" lon="-0.59673">
        <ele>79.45</ele>
        <time>2013-10-20T08:34:00Z</time>
      </trkpt>
      <trkpt lat="47.31345" lon="-0.59689">
        <ele>79.45</ele>
        <time>2013-10-20T08:34:02Z</time>
      </trkpt>
      <trkpt lat="47.31339" lon="-0.59704">
        <ele>78.97</ele>
        <time>2013-10-20T08:34:06Z</time>
      </trkpt>
      <trkpt lat="47.31338" lon="-0.59704">
        <ele>78.48</ele>
        <time>2013-10-20T08:34:11Z</time>
      </trkpt>
      <trkpt lat="47.3133" lon="-0.59709">
        <ele>78.97</ele>
        <time>2013-10-20T08:34:16Z</time>
      </trkpt>
      <trkpt lat="47.31324" lon="-0.5971">
        <ele>78</ele>
        <time>2013-10-20T08:34:23Z</time>
      </trkpt>
      <trkpt lat="47.31307" lon="-0.5972">
        <ele>78</ele>
        <time>2013-10-20T08:34:29Z</time>
      </trkpt>
      <trkpt lat="47.31276" lon="-0.59745">
        <ele>77.04</ele>
        <time>2013-10-20T08:34:36Z</time>
      </trkpt>
      <trkpt lat="47.31255" lon="-0.59781">
        <ele>76.08</ele>
        <time>2013-10-20T08:34:42Z</time>
      </trkpt>
      <trkpt lat="47.31234" lon="-0.59796">
        <ele>76.08</ele>
        <time>2013-10-20T08:34:47Z</time>
      </trkpt>
      <trkpt lat="47.31216" lon="-0.59793">
        <ele>74.16</ele>
        <time>2013-10-20T08:34:50Z</time>
      </trkpt>
      <trkpt lat="47.31196" lon="-0.59784">
        <ele>72.72</ele>
        <time>2013-10-20T08:34:53Z</time>
      </trkpt>
      <trkpt lat="47.31184" lon="-0.59778">
        <ele>71.76</ele>
        <time>2013-10-20T08:34:55Z</time>
      </trkpt>
      <trkpt lat="47.31166" lon="-0.59787">
        <ele>71.27</ele>
        <time>2013-10-20T08:34:59Z</time>
      </trkpt>
      <trkpt lat="47.31151" lon="-0.59808">
        <ele>69.35</ele>
        <time>2013-10-20T08:35:04Z</time>
      </trkpt>
      <trkpt lat="47.31144" lon="-0.59791">
        <ele>70.31</ele>
        <time>2013-10-20T08:35:08Z</time>
      </trkpt>
      <trkpt lat="47.31136" lon="-0.5974">
        <ele>72.24</ele>
        <time>2013-10-20T08:35:17Z</time>
      </trkpt>
      <trkpt lat="47.3113" lon="-0.59698">
        <ele>74.16</ele>
        <time>2013-10-20T08:35:24Z</time>
      </trkpt>
      <trkpt lat="47.31124" lon="-0.59658">
        <ele>75.6</ele>
        <time>2013-10-20T08:35:31Z</time>
      </trkpt>
      <trkpt lat="47.3112" lon="-0.59624">
        <ele>77.52</ele>
        <time>2013-10-20T08:35:39Z</time>
      </trkpt>
      <trkpt lat="47.31108" lon="-0.59626">
        <ele>79.45</ele>
        <time>2013-10-20T08:35:44Z</time>
      </trkpt>
      <trkpt lat="47.31085" lon="-0.59637">
        <ele>79.45</ele>
        <time>2013-10-20T08:35:52Z</time>
      </trkpt>
      <trkpt lat="47.31062" lon="-0.59651">
        <ele>79.45</ele>
        <time>2013-10-20T08:35:59Z</time>
      </trkpt>
      <trkpt lat="47.31036" lon="-0.59668">
        <ele>80.89</ele>
        <time>2013-10-20T08:36:07Z</time>
      </trkpt>
      <trkpt lat="47.31024" lon="-0.59676">
        <ele>81.85</ele>
        <time>2013-10-20T08:36:11Z</time>
      </trkpt>
      <trkpt lat="47.31017" lon="-0.59689">
        <ele>82.33</ele>
        <time>2013-10-20T08:36:15Z</time>
      </trkpt>
      <trkpt lat="47.31017" lon="-0.59733">
        <ele>81.85</ele>
        <time>2013-10-20T08:36:24Z</time>
      </trkpt>
      <trkpt lat="47.31016" lon="-0.5975">
        <ele>81.37</ele>
        <time>2013-10-20T08:36:27Z</time>
      </trkpt>
      <trkpt lat="47.31015" lon="-0.59809">
        <ele>80.89</ele>
        <time>2013-10-20T08:36:36Z</time>
      </trkpt>
      <trkpt lat="47.31015" lon="-0.59871">
        <ele>78.48</ele>
        <time>2013-10-20T08:36:44Z</time>
      </trkpt>
      <trkpt lat="47.31017" lon="-0.59886">
        <ele>78.97</ele>
        <time>2013-10-20T08:36:46Z</time>
      </trkpt>
      <trkpt lat="47.3103" lon="-0.59933">
        <ele>78.48</ele>
        <time>2013-10-20T08:36:53Z</time>
      </trkpt>
      <trkpt lat="47.31032" lon="-0.59938">
        <ele>78.48</ele>
        <time>2013-10-20T08:36:54Z</time>
      </trkpt>
      <trkpt lat="47.31043" lon="-0.59976">
        <ele>78.48</ele>
        <time>2013-10-20T08:37:01Z</time>
      </trkpt>
      <trkpt lat="47.31058" lon="-0.60017">
        <ele>78</ele>
        <time>2013-10-20T08:37:09Z</time>
      </trkpt>
      <trkpt lat="47.31072" lon="-0.60041">
        <ele>77.04</ele>
        <time>2013-10-20T08:37:14Z</time>
      </trkpt>
      <trkpt lat="47.31095" lon="-0.60082">
        <ele>77.04</ele>
        <time>2013-10-20T08:37:23Z</time>
      </trkpt>
      <trkpt lat="47.3111" lon="-0.60113">
        <ele>77.04</ele>
        <time>2013-10-20T08:37:29Z</time>
      </trkpt>
      <trkpt lat="47.31114" lon="-0.60124">
        <ele>76.56</ele>
        <time>2013-10-20T08:37:31Z</time>
      </trkpt>
      <trkpt lat="47.31117" lon="-0.60158">
        <ele>75.12</ele>
        <time>2013-10-20T08:37:37Z</time>
      </trkpt>
      <trkpt lat="47.31123" lon="-0.60185">
        <ele>74.16</ele>
        <time>2013-10-20T08:37:44Z</time>
      </trkpt>
      <trkpt lat="47.31131" lon="-0.60201">
        <ele>73.68</ele>
        <time>2013-10-20T08:37:49Z</time>
      </trkpt>
      <trkpt lat="47.31132" lon="-0.60214">
        <ele>72.72</ele>
        <time>2013-10-20T08:37:53Z</time>
      </trkpt>
      <trkpt lat="47.31133" lon="-0.60228">
        <ele>71.27</ele>
        <time>2013-10-20T08:38:00Z</time>
      </trkpt>
      <trkpt lat="47.31132" lon="-0.60238">
        <ele>69.83</ele>
        <time>2013-10-20T08:38:07Z</time>
      </trkpt>
      <trkpt lat="47.31133" lon="-0.60241">
        <ele>69.83</ele>
        <time>2013-10-20T08:38:09Z</time>
      </trkpt>
      <trkpt lat="47.31133" lon="-0.60247">
        <ele>68.39</ele>
        <time>2013-10-20T08:38:12Z</time>
      </trkpt>
      <trkpt lat="47.31135" lon="-0.60256">
        <ele>67.91</ele>
        <time>2013-10-20T08:38:17Z</time>
      </trkpt>
      <trkpt lat="47.31137" lon="-0.60261">
        <ele>66.47</ele>
        <time>2013-10-20T08:38:23Z</time>
      </trkpt>
      <trkpt lat="47.31137" lon="-0.60267">
        <ele>65.03</ele>
        <time>2013-10-20T08:38:29Z</time>
      </trkpt>
      <trkpt lat="47.31138" lon="-0.60269">
        <ele>63.58</ele>
        <time>2013-10-20T08:38:32Z</time>
      </trkpt>
      <trkpt lat="47.31139" lon="-0.60275">
        <ele>62.62</ele>
        <time>2013-10-20T08:38:37Z</time>
      </trkpt>
      <trkpt lat="47.3114" lon="-0.60281">
        <ele>61.18</ele>
        <time>2013-10-20T08:38:41Z</time>
      </trkpt>
      <trkpt lat="47.31143" lon="-0.6029">
        <ele>59.74</ele>
        <time>2013-10-20T08:38:47Z</time>
      </trkpt>
      <trkpt lat="47.31143" lon="-0.60302">
        <ele>57.34</ele>
        <time>2013-10-20T08:38:57Z</time>
      </trkpt>
      <trkpt lat="47.31145" lon="-0.60306">
        <ele>58.3</ele>
        <time>2013-10-20T08:39:01Z</time>
      </trkpt>
      <trkpt lat="47.31146" lon="-0.60316">
        <ele>54.45</ele>
        <time>2013-10-20T08:39:08Z</time>
      </trkpt>
      <trkpt lat="47.31146" lon="-0.60316">
        <ele>54.45</ele>
        <time>2013-10-20T08:39:10Z</time>
      </trkpt>
      <trkpt lat="47.31146" lon="-0.60321">
        <ele>53.49</ele>
        <time>2013-10-20T08:39:15Z</time>
      </trkpt>
      <trkpt lat="47.31148" lon="-0.60328">
        <ele>52.05</ele>
        <time>2013-10-20T08:39:21Z</time>
      </trkpt>
      <trkpt lat="47.31151" lon="-0.60336">
        <ele>50.61</ele>
        <time>2013-10-20T08:39:27Z</time>
      </trkpt>
      <trkpt lat="47.31153" lon="-0.60339">
        <ele>49.65</ele>
        <time>2013-10-20T08:39:30Z</time>
      </trkpt>
      <trkpt lat="47.31156" lon="-0.60352">
        <ele>49.16</ele>
        <time>2013-10-20T08:39:37Z</time>
      </trkpt>
      <trkpt lat="47.31155" lon="-0.60355">
        <ele>49.16</ele>
        <time>2013-10-20T08:39:39Z</time>
      </trkpt>
      <trkpt lat="47.31156" lon="-0.60368">
        <ele>49.16</ele>
        <time>2013-10-20T08:39:46Z</time>
      </trkpt>
      <trkpt lat="47.31158" lon="-0.60384">
        <ele>48.2</ele>
        <time>2013-10-20T08:39:52Z</time>
      </trkpt>
      <trkpt lat="47.31158" lon="-0.60391">
        <ele>48.68</ele>
        <time>2013-10-20T08:39:56Z</time>
      </trkpt>
      <trkpt lat="47.31157" lon="-0.60394">
        <ele>49.16</ele>
        <time>2013-10-20T08:39:58Z</time>
      </trkpt>
      <trkpt lat="47.31158" lon="-0.60404">
        <ele>47.72</ele>
        <time>2013-10-20T08:40:04Z</time>
      </trkpt>
      <trkpt lat="47.31158" lon="-0.60404">
        <ele>48.2</ele>
        <time>2013-10-20T08:40:07Z</time>
      </trkpt>
      <trkpt lat="47.31156" lon="-0.60411">
        <ele>46.76</ele>
        <time>2013-10-20T08:40:12Z</time>
      </trkpt>
      <trkpt lat="47.31157" lon="-0.6042">
        <ele>45.32</ele>
        <time>2013-10-20T08:40:18Z</time>
      </trkpt>
      <trkpt lat="47.31156" lon="-0.60431">
        <ele>42.92</ele>
        <time>2013-10-20T08:40:26Z</time>
      </trkpt>
      <trkpt lat="47.31156" lon="-0.60435">
        <ele>42.44</ele>
        <time>2013-10-20T08:40:31Z</time>
      </trkpt>
      <trkpt lat="47.31157" lon="-0.60445">
        <ele>40.03</ele>
        <time>2013-10-20T08:40:39Z</time>
      </trkpt>
      <trkpt lat="47.31156" lon="-0.60446">
        <ele>39.55</ele>
        <time>2013-10-20T08:40:40Z</time>
      </trkpt>
      <trkpt lat="47.31155" lon="-0.60452">
        <ele>38.59</ele>
        <time>2013-10-20T08:40:46Z</time>
      </trkpt>
      <trkpt lat="47.31155" lon="-0.60457">
        <ele>36.67</ele>
        <time>2013-10-20T08:40:52Z</time>
      </trkpt>
      <trkpt lat="47.31156" lon="-0.6047">
        <ele>34.74</ele>
        <time>2013-10-20T08:40:59Z</time>
      </trkpt>
      <trkpt lat="47.31155" lon="-0.60479">
        <ele>33.3</ele>
        <time>2013-10-20T08:41:06Z</time>
      </trkpt>
      <trkpt lat="47.31155" lon="-0.60479">
        <ele>33.3</ele>
        <time>2013-10-20T08:41:12Z</time>
      </trkpt>
      <trkpt lat="47.31154" lon="-0.60487">
        <ele>30.9</ele>
        <time>2013-10-20T08:41:18Z</time>
      </trkpt>
      <trkpt lat="47.31152" lon="-0.60491">
        <ele>30.42</ele>
        <time>2013-10-20T08:41:20Z</time>
      </trkpt>
      <trkpt lat="47.31152" lon="-0.60491">
        <ele>30.42</ele>
        <time>2013-10-20T08:41:25Z</time>
      </trkpt>
      <trkpt lat="47.31152" lon="-0.60491">
        <ele>30.9</ele>
        <time>2013-10-20T08:41:35Z</time>
      </trkpt>
      <trkpt lat="47.31152" lon="-0.60491">
        <ele>30.9</ele>
        <time>2013-10-20T08:41:43Z</time>
      </trkpt>
      <trkpt lat="47.31153" lon="-0.60489">
        <ele>30.9</ele>
        <time>2013-10-20T08:41:51Z</time>
      </trkpt>
      <trkpt lat="47.31153" lon="-0.60489">
        <ele>30.42</ele>
        <time>2013-10-20T08:42:01Z</time>
      </trkpt>
      <trkpt lat="47.31153" lon="-0.60489">
        <ele>30.42</ele>
        <time>2013-10-20T08:42:13Z</time>
      </trkpt>
      <trkpt lat="47.31153" lon="-0.60489">
        <ele>30.42</ele>
        <time>2013-10-20T08:42:24Z</time>
      </trkpt>
      <trkpt lat="47.31154" lon="-0.60488">
        <ele>30.42</ele>
        <time>2013-10-20T08:42:36Z</time>
      </trkpt>
      <trkpt lat="47.31154" lon="-0.60488">
        <ele>30.9</ele>
        <time>2013-10-20T08:42:37Z</time>
      </trkpt>
      <trkpt lat="47.31156" lon="-0.60484">
        <ele>30.42</ele>
        <time>2013-10-20T08:42:40Z</time>
      </trkpt>
      <trkpt lat="47.31162" lon="-0.60476">
        <ele>28.98</ele>
        <time>2013-10-20T08:42:47Z</time>
      </trkpt>
      <trkpt lat="47.31164" lon="-0.60489">
        <ele>28.02</ele>
        <time>2013-10-20T08:42:52Z</time>
      </trkpt>
      <trkpt lat="47.31161" lon="-0.60502">
        <ele>27.05</ele>
        <time>2013-10-20T08:42:55Z</time>
      </trkpt>
      <trkpt lat="47.31145" lon="-0.60514">
        <ele>26.09</ele>
        <time>2013-10-20T08:43:02Z</time>
      </trkpt>
      <trkpt lat="47.31144" lon="-0.60545">
        <ele>25.61</ele>
        <time>2013-10-20T08:43:09Z</time>
      </trkpt>
      <trkpt lat="47.31141" lon="-0.60585">
        <ele>24.65</ele>
        <time>2013-10-20T08:43:15Z</time>
      </trkpt>
      <trkpt lat="47.31138" lon="-0.60604">
        <ele>25.13</ele>
        <time>2013-10-20T08:43:18Z</time>
      </trkpt>
      <trkpt lat="47.31137" lon="-0.60617">
        <ele>24.65</ele>
        <time>2013-10-20T08:43:20Z</time>
      </trkpt>
      <trkpt lat="47.31138" lon="-0.60641">
        <ele>24.17</ele>
        <time>2013-10-20T08:43:24Z</time>
      </trkpt>
      <trkpt lat="47.31143" lon="-0.60687">
        <ele>23.69</ele>
        <time>2013-10-20T08:43:32Z</time>
      </trkpt>
      <trkpt lat="47.31149" lon="-0.60714">
        <ele>23.21</ele>
        <time>2013-10-20T08:43:38Z</time>
      </trkpt>
      <trkpt lat="47.31147" lon="-0.60741">
        <ele>23.21</ele>
        <time>2013-10-20T08:43:44Z</time>
      </trkpt>
      <trkpt lat="47.31151" lon="-0.60765">
        <ele>23.21</ele>
        <time>2013-10-20T08:43:49Z</time>
      </trkpt>
      <trkpt lat="47.31153" lon="-0.60795">
        <ele>23.21</ele>
        <time>2013-10-20T08:43:55Z</time>
      </trkpt>
      <trkpt lat="47.31155" lon="-0.60805">
        <ele>23.21</ele>
        <time>2013-10-20T08:43:57Z</time>
      </trkpt>
      <trkpt lat="47.31159" lon="-0.60845">
        <ele>23.69</ele>
        <time>2013-10-20T08:44:04Z</time>
      </trkpt>
      <trkpt lat="47.31165" lon="-0.60869">
        <ele>24.17</ele>
        <time>2013-10-20T08:44:09Z</time>
      </trkpt>
      <trkpt lat="47.31176" lon="-0.6089">
        <ele>24.17</ele>
        <time>2013-10-20T08:44:13Z</time>
      </trkpt>
      <trkpt lat="47.31191" lon="-0.6093">
        <ele>26.57</ele>
        <time>2013-10-20T08:44:19Z</time>
      </trkpt>
      <trkpt lat="47.3121" lon="-0.60955">
        <ele>28.5</ele>
        <time>2013-10-20T08:44:26Z</time>
      </trkpt>
      <trkpt lat="47.31234" lon="-0.60981">
        <ele>28.98</ele>
        <time>2013-10-20T08:44:34Z</time>
      </trkpt>
      <trkpt lat="47.31245" lon="-0.61002">
        <ele>28.98</ele>
        <time>2013-10-20T08:44:39Z</time>
      </trkpt>
      <trkpt lat="47.31245" lon="-0.61009">
        <ele>28.02</ele>
        <time>2013-10-20T08:44:40Z</time>
      </trkpt>
      <trkpt lat="47.31249" lon="-0.61042">
        <ele>27.53</ele>
        <time>2013-10-20T08:44:44Z</time>
      </trkpt>
      <trkpt lat="47.31251" lon="-0.6106">
        <ele>27.53</ele>
        <time>2013-10-20T08:44:46Z</time>
      </trkpt>
      <trkpt lat="47.31253" lon="-0.6107">
        <ele>27.05</ele>
        <time>2013-10-20T08:44:47Z</time>
      </trkpt>
      <trkpt lat="47.31255" lon="-0.61079">
        <ele>27.05</ele>
        <time>2013-10-20T08:44:48Z</time>
      </trkpt>
      <trkpt lat="47.31258" lon="-0.61088">
        <ele>26.57</ele>
        <time>2013-10-20T08:44:49Z</time>
      </trkpt>
      <trkpt lat="47.31261" lon="-0.61097">
        <ele>26.09</ele>
        <time>2013-10-20T08:44:50Z</time>
      </trkpt>
      <trkpt lat="47.31269" lon="-0.61115">
        <ele>26.09</ele>
        <time>2013-10-20T08:44:52Z</time>
      </trkpt>
      <trkpt lat="47.31303" lon="-0.61166">
        <ele>24.65</ele>
        <time>2013-10-20T08:44:59Z</time>
      </trkpt>
      <trkpt lat="47.31331" lon="-0.612">
        <ele>24.17</ele>
        <time>2013-10-20T08:45:05Z</time>
      </trkpt>
      <trkpt lat="47.31357" lon="-0.61228">
        <ele>23.21</ele>
        <time>2013-10-20T08:45:10Z</time>
      </trkpt>
      <trkpt lat="47.3138" lon="-0.61251">
        <ele>22.73</ele>
        <time>2013-10-20T08:45:15Z</time>
      </trkpt>
      <trkpt lat="47.314" lon="-0.6126">
        <ele>24.65</ele>
        <time>2013-10-20T08:45:21Z</time>
      </trkpt>
      <trkpt lat="47.31411" lon="-0.6128">
        <ele>23.21</ele>
        <time>2013-10-20T08:45:26Z</time>
      </trkpt>
      <trkpt lat="47.31422" lon="-0.61294">
        <ele>21.29</ele>
        <time>2013-10-20T08:45:29Z</time>
      </trkpt>
      <trkpt lat="47.31432" lon="-0.61303">
        <ele>20.81</ele>
        <time>2013-10-20T08:45:31Z</time>
      </trkpt>
      <trkpt lat="47.31448" lon="-0.61304">
        <ele>22.25</ele>
        <time>2013-10-20T08:45:36Z</time>
      </trkpt>
      <trkpt lat="47.31461" lon="-0.6131">
        <ele>22.25</ele>
        <time>2013-10-20T08:45:41Z</time>
      </trkpt>
      <trkpt lat="47.31483" lon="-0.61338">
        <ele>22.25</ele>
        <time>2013-10-20T08:45:47Z</time>
      </trkpt>
      <trkpt lat="47.31495" lon="-0.61363">
        <ele>22.25</ele>
        <time>2013-10-20T08:45:52Z</time>
      </trkpt>
      <trkpt lat="47.31504" lon="-0.61382">
        <ele>21.77</ele>
        <time>2013-10-20T08:45:55Z</time>
      </trkpt>
      <trkpt lat="47.31512" lon="-0.614">
        <ele>21.77</ele>
        <time>2013-10-20T08:45:58Z</time>
      </trkpt>
      <trkpt lat="47.31522" lon="-0.61414">
        <ele>21.29</ele>
        <time>2013-10-20T08:46:01Z</time>
      </trkpt>
      <trkpt lat="47.31549" lon="-0.61448">
        <ele>21.77</ele>
        <time>2013-10-20T08:46:08Z</time>
      </trkpt>
      <trkpt lat="47.31558" lon="-0.6147">
        <ele>21.77</ele>
        <time>2013-10-20T08:46:12Z</time>
      </trkpt>
      <trkpt lat="47.31567" lon="-0.61527">
        <ele>21.77</ele>
        <time>2013-10-20T08:46:20Z</time>
      </trkpt>
      <trkpt lat="47.31571" lon="-0.61548">
        <ele>21.77</ele>
        <time>2013-10-20T08:46:23Z</time>
      </trkpt>
      <trkpt lat="47.31577" lon="-0.61598">
        <ele>21.29</ele>
        <time>2013-10-20T08:46:30Z</time>
      </trkpt>
      <trkpt lat="47.31582" lon="-0.6165">
        <ele>21.29</ele>
        <time>2013-10-20T08:46:37Z</time>
      </trkpt>
      <trkpt lat="47.31582" lon="-0.61678">
        <ele>20.81</ele>
        <time>2013-10-20T08:46:41Z</time>
      </trkpt>
      <trkpt lat="47.31583" lon="-0.61694">
        <ele>21.77</ele>
        <time>2013-10-20T08:46:43Z</time>
      </trkpt>
      <trkpt lat="47.31581" lon="-0.61725">
        <ele>21.29</ele>
        <time>2013-10-20T08:46:47Z</time>
      </trkpt>
      <trkpt lat="47.31592" lon="-0.61775">
        <ele>21.77</ele>
        <time>2013-10-20T08:46:54Z</time>
      </trkpt>
      <trkpt lat="47.31595" lon="-0.61785">
        <ele>21.29</ele>
        <time>2013-10-20T08:46:56Z</time>
      </trkpt>
      <trkpt lat="47.31602" lon="-0.61788">
        <ele>22.25</ele>
        <time>2013-10-20T08:47:01Z</time>
      </trkpt>
      <trkpt lat="47.31611" lon="-0.61784">
        <ele>23.69</ele>
        <time>2013-10-20T08:47:10Z</time>
      </trkpt>
      <trkpt lat="47.31614" lon="-0.61784">
        <ele>24.17</ele>
        <time>2013-10-20T08:47:21Z</time>
      </trkpt>
      <trkpt lat="47.31617" lon="-0.61783">
        <ele>24.65</ele>
        <time>2013-10-20T08:47:29Z</time>
      </trkpt>
      <trkpt lat="47.31624" lon="-0.61784">
        <ele>25.61</ele>
        <time>2013-10-20T08:47:36Z</time>
      </trkpt>
      <trkpt lat="47.31629" lon="-0.61784">
        <ele>27.05</ele>
        <time>2013-10-20T08:47:43Z</time>
      </trkpt>
      <trkpt lat="47.31632" lon="-0.61782">
        <ele>28.5</ele>
        <time>2013-10-20T08:47:49Z</time>
      </trkpt>
      <trkpt lat="47.31633" lon="-0.6178">
        <ele>28.02</ele>
        <time>2013-10-20T08:47:51Z</time>
      </trkpt>
      <trkpt lat="47.31629" lon="-0.61762">
        <ele>28.02</ele>
        <time>2013-10-20T08:47:58Z</time>
      </trkpt>
      <trkpt lat="47.31627" lon="-0.61754">
        <ele>28.5</ele>
        <time>2013-10-20T08:48:00Z</time>
      </trkpt>
      <trkpt lat="47.31621" lon="-0.61727">
        <ele>28.5</ele>
        <time>2013-10-20T08:48:05Z</time>
      </trkpt>
      <trkpt lat="47.31618" lon="-0.61701">
        <ele>28.5</ele>
        <time>2013-10-20T08:48:09Z</time>
      </trkpt>
      <trkpt lat="47.3161" lon="-0.61672">
        <ele>28.5</ele>
        <time>2013-10-20T08:48:14Z</time>
      </trkpt>
      <trkpt lat="47.31605" lon="-0.61649">
        <ele>28.02</ele>
        <time>2013-10-20T08:48:20Z</time>
      </trkpt>
      <trkpt lat="47.31605" lon="-0.61646">
        <ele>28.02</ele>
        <time>2013-10-20T08:48:21Z</time>
      </trkpt>
      <trkpt lat="47.31615" lon="-0.61632">
        <ele>29.46</ele>
        <time>2013-10-20T08:48:26Z</time>
      </trkpt>
      <trkpt lat="47.31619" lon="-0.61634">
        <ele>30.9</ele>
        <time>2013-10-20T08:48:30Z</time>
      </trkpt>
      <trkpt lat="47.31619" lon="-0.61635">
        <ele>30.42</ele>
        <time>2013-10-20T08:48:33Z</time>
      </trkpt>
      <trkpt lat="47.31621" lon="-0.61636">
        <ele>31.38</ele>
        <time>2013-10-20T08:48:36Z</time>
      </trkpt>
      <trkpt lat="47.31627" lon="-0.61647">
        <ele>33.78</ele>
        <time>2013-10-20T08:48:45Z</time>
      </trkpt>
      <trkpt lat="47.31631" lon="-0.61649">
        <ele>36.19</ele>
        <time>2013-10-20T08:48:54Z</time>
      </trkpt>
      <trkpt lat="47.31634" lon="-0.61649">
        <ele>37.63</ele>
        <time>2013-10-20T08:49:02Z</time>
      </trkpt>
      <trkpt lat="47.31637" lon="-0.61653">
        <ele>39.07</ele>
        <time>2013-10-20T08:49:11Z</time>
      </trkpt>
      <trkpt lat="47.31639" lon="-0.61657">
        <ele>40.51</ele>
        <time>2013-10-20T08:49:19Z</time>
      </trkpt>
      <trkpt lat="47.31641" lon="-0.61662">
        <ele>40.99</ele>
        <time>2013-10-20T08:49:26Z</time>
      </trkpt>
      <trkpt lat="47.31641" lon="-0.61662">
        <ele>40.99</ele>
        <time>2013-10-20T08:49:28Z</time>
      </trkpt>
      <trkpt lat="47.31642" lon="-0.61674">
        <ele>40.99</ele>
        <time>2013-10-20T08:49:33Z</time>
      </trkpt>
      <trkpt lat="47.31647" lon="-0.61693">
        <ele>41.95</ele>
        <time>2013-10-20T08:49:39Z</time>
      </trkpt>
      <trkpt lat="47.31652" lon="-0.6172">
        <ele>41.95</ele>
        <time>2013-10-20T08:49:45Z</time>
      </trkpt>
      <trkpt lat="47.31657" lon="-0.61744">
        <ele>42.92</ele>
        <time>2013-10-20T08:49:52Z</time>
      </trkpt>
      <trkpt lat="47.31658" lon="-0.6175">
        <ele>42.92</ele>
        <time>2013-10-20T08:49:53Z</time>
      </trkpt>
      <trkpt lat="47.31669" lon="-0.61784">
        <ele>42.44</ele>
        <time>2013-10-20T08:49:59Z</time>
      </trkpt>
      <trkpt lat="47.31675" lon="-0.61802">
        <ele>43.88</ele>
        <time>2013-10-20T08:50:06Z</time>
      </trkpt>
      <trkpt lat="47.31676" lon="-0.61803">
        <ele>44.36</ele>
        <time>2013-10-20T08:50:11Z</time>
      </trkpt>
      <trkpt lat="47.3168" lon="-0.61798">
        <ele>46.76</ele>
        <time>2013-10-20T08:50:18Z</time>
      </trkpt>
      <trkpt lat="47.31682" lon="-0.61791">
        <ele>48.2</ele>
        <time>2013-10-20T08:50:25Z</time>
      </trkpt>
      <trkpt lat="47.31682" lon="-0.61789">
        <ele>48.68</ele>
        <time>2013-10-20T08:50:30Z</time>
      </trkpt>
      <trkpt lat="47.31684" lon="-0.61779">
        <ele>50.61</ele>
        <time>2013-10-20T08:50:38Z</time>
      </trkpt>
      <trkpt lat="47.31686" lon="-0.6178">
        <ele>51.09</ele>
        <time>2013-10-20T08:50:44Z</time>
      </trkpt>
      <trkpt lat="47.31688" lon="-0.61785">
        <ele>51.57</ele>
        <time>2013-10-20T08:50:50Z</time>
      </trkpt>
      <trkpt lat="47.31692" lon="-0.61788">
        <ele>53.01</ele>
        <time>2013-10-20T08:50:57Z</time>
      </trkpt>
      <trkpt lat="47.31693" lon="-0.61781">
        <ele>54.93</ele>
        <time>2013-10-20T08:51:05Z</time>
      </trkpt>
      <trkpt lat="47.31693" lon="-0.61773">
        <ele>55.89</ele>
        <time>2013-10-20T08:51:13Z</time>
      </trkpt>
      <trkpt lat="47.31694" lon="-0.61766">
        <ele>56.86</ele>
        <time>2013-10-20T08:51:20Z</time>
      </trkpt>
      <trkpt lat="47.31695" lon="-0.61762">
        <ele>58.78</ele>
        <time>2013-10-20T08:51:27Z</time>
      </trkpt>
      <trkpt lat="47.31698" lon="-0.61768">
        <ele>60.22</ele>
        <time>2013-10-20T08:51:34Z</time>
      </trkpt>
      <trkpt lat="47.31699" lon="-0.61766">
        <ele>60.7</ele>
        <time>2013-10-20T08:51:40Z</time>
      </trkpt>
      <trkpt lat="47.317" lon="-0.6176">
        <ele>62.14</ele>
        <time>2013-10-20T08:51:48Z</time>
      </trkpt>
      <trkpt lat="47.31699" lon="-0.61755">
        <ele>63.1</ele>
        <time>2013-10-20T08:51:54Z</time>
      </trkpt>
      <trkpt lat="47.31697" lon="-0.6175">
        <ele>65.03</ele>
        <time>2013-10-20T08:52:01Z</time>
      </trkpt>
      <trkpt lat="47.31697" lon="-0.61749">
        <ele>65.99</ele>
        <time>2013-10-20T08:52:08Z</time>
      </trkpt>
      <trkpt lat="47.31699" lon="-0.61747">
        <ele>66.47</ele>
        <time>2013-10-20T08:52:15Z</time>
      </trkpt>
      <trkpt lat="47.31703" lon="-0.61748">
        <ele>67.91</ele>
        <time>2013-10-20T08:52:23Z</time>
      </trkpt>
      <trkpt lat="47.31706" lon="-0.61752">
        <ele>69.35</ele>
        <time>2013-10-20T08:52:32Z</time>
      </trkpt>
      <trkpt lat="47.31709" lon="-0.61755">
        <ele>70.79</ele>
        <time>2013-10-20T08:52:38Z</time>
      </trkpt>
      <trkpt lat="47.31711" lon="-0.61758">
        <ele>71.27</ele>
        <time>2013-10-20T08:52:44Z</time>
      </trkpt>
      <trkpt lat="47.31715" lon="-0.61766">
        <ele>72.24</ele>
        <time>2013-10-20T08:52:51Z</time>
      </trkpt>
      <trkpt lat="47.31718" lon="-0.61776">
        <ele>73.2</ele>
        <time>2013-10-20T08:53:01Z</time>
      </trkpt>
      <trkpt lat="47.3172" lon="-0.61784">
        <ele>73.68</ele>
        <time>2013-10-20T08:53:07Z</time>
      </trkpt>
      <trkpt lat="47.31722" lon="-0.61788">
        <ele>74.16</ele>
        <time>2013-10-20T08:53:12Z</time>
      </trkpt>
      <trkpt lat="47.31721" lon="-0.61791">
        <ele>74.16</ele>
        <time>2013-10-20T08:53:19Z</time>
      </trkpt>
      <trkpt lat="47.31721" lon="-0.61791">
        <ele>74.16</ele>
        <time>2013-10-20T08:53:23Z</time>
      </trkpt>
      <trkpt lat="47.31722" lon="-0.61788">
        <ele>74.16</ele>
        <time>2013-10-20T08:53:26Z</time>
      </trkpt>
      <trkpt lat="47.31727" lon="-0.61785">
        <ele>74.64</ele>
        <time>2013-10-20T08:53:30Z</time>
      </trkpt>
      <trkpt lat="47.31736" lon="-0.61781">
        <ele>76.08</ele>
        <time>2013-10-20T08:53:38Z</time>
      </trkpt>
      <trkpt lat="47.31736" lon="-0.61781">
        <ele>76.08</ele>
        <time>2013-10-20T08:53:39Z</time>
      </trkpt>
      <trkpt lat="47.31746" lon="-0.61787">
        <ele>78</ele>
        <time>2013-10-20T08:53:47Z</time>
      </trkpt>
      <trkpt lat="47.31747" lon="-0.61787">
        <ele>78.48</ele>
        <time>2013-10-20T08:53:48Z</time>
      </trkpt>
      <trkpt lat="47.31752" lon="-0.61787">
        <ele>78.97</ele>
        <time>2013-10-20T08:53:52Z</time>
      </trkpt>
      <trkpt lat="47.31762" lon="-0.61779">
        <ele>80.41</ele>
        <time>2013-10-20T08:53:59Z</time>
      </trkpt>
      <trkpt lat="47.31766" lon="-0.6177">
        <ele>81.37</ele>
        <time>2013-10-20T08:54:04Z</time>
      </trkpt>
      <trkpt lat="47.31766" lon="-0.61768">
        <ele>81.37</ele>
        <time>2013-10-20T08:54:05Z</time>
      </trkpt>
      <trkpt lat="47.31764" lon="-0.61763">
        <ele>81.37</ele>
        <time>2013-10-20T08:54:07Z</time>
      </trkpt>
      <trkpt lat="47.3176" lon="-0.61746">
        <ele>81.37</ele>
        <time>2013-10-20T08:54:15Z</time>
      </trkpt>
      <trkpt lat="47.31761" lon="-0.61745">
        <ele>81.37</ele>
        <time>2013-10-20T08:54:19Z</time>
      </trkpt>
      <trkpt lat="47.3176" lon="-0.6174">
        <ele>81.85</ele>
        <time>2013-10-20T08:54:27Z</time>
      </trkpt>
      <trkpt lat="47.3176" lon="-0.6174">
        <ele>81.85</ele>
        <time>2013-10-20T08:54:41Z</time>
      </trkpt>
      <trkpt lat="47.3176" lon="-0.6174">
        <ele>81.37</ele>
        <time>2013-10-20T08:54:58Z</time>
      </trkpt>
      <trkpt lat="47.3176" lon="-0.6174">
        <ele>81.37</ele>
        <time>2013-10-20T08:55:19Z</time>
      </trkpt>
      <trkpt lat="47.3176" lon="-0.6174">
        <ele>81.85</ele>
        <time>2013-10-20T08:55:31Z</time>
      </trkpt>
      <trkpt lat="47.31759" lon="-0.6174">
        <ele>81.37</ele>
        <time>2013-10-20T08:55:48Z</time>
      </trkpt>
      <trkpt lat="47.31759" lon="-0.6174">
        <ele>80.89</ele>
        <time>2013-10-20T08:56:08Z</time>
      </trkpt>
      <trkpt lat="47.31759" lon="-0.6174">
        <ele>81.37</ele>
        <time>2013-10-20T08:56:21Z</time>
      </trkpt>
      <trkpt lat="47.31759" lon="-0.6174">
        <ele>80.89</ele>
        <time>2013-10-20T08:56:35Z</time>
      </trkpt>
      <trkpt lat="47.31759" lon="-0.6174">
        <ele>80.89</ele>
        <time>2013-10-20T08:56:48Z</time>
      </trkpt>
      <trkpt lat="47.3176" lon="-0.6174">
        <ele>80.41</ele>
        <time>2013-10-20T08:57:04Z</time>
      </trkpt>
      <trkpt lat="47.3176" lon="-0.6174">
        <ele>81.37</ele>
        <time>2013-10-20T08:57:17Z</time>
      </trkpt>
      <trkpt lat="47.3176" lon="-0.6174">
        <ele>81.37</ele>
        <time>2013-10-20T08:57:38Z</time>
      </trkpt>
      <trkpt lat="47.3176" lon="-0.6174">
        <ele>81.37</ele>
        <time>2013-10-20T08:57:50Z</time>
      </trkpt>
      <trkpt lat="47.3176" lon="-0.6174">
        <ele>80.89</ele>
        <time>2013-10-20T08:58:06Z</time>
      </trkpt>
      <trkpt lat="47.3176" lon="-0.6174">
        <ele>81.37</ele>
        <time>2013-10-20T08:58:24Z</time>
      </trkpt>
      <trkpt lat="47.3176" lon="-0.6174">
        <ele>80.89</ele>
        <time>2013-10-20T08:58:41Z</time>
      </trkpt>
      <trkpt lat="47.3176" lon="-0.6174">
        <ele>80.89</ele>
        <time>2013-10-20T08:59:00Z</time>
      </trkpt>
      <trkpt lat="47.3176" lon="-0.6174">
        <ele>80.89</ele>
        <time>2013-10-20T08:59:17Z</time>
      </trkpt>
      <trkpt lat="47.3176" lon="-0.6174">
        <ele>80.41</ele>
        <time>2013-10-20T08:59:38Z</time>
      </trkpt>
      <trkpt lat="47.3176" lon="-0.6174">
        <ele>80.89</ele>
        <time>2013-10-20T08:59:56Z</time>
      </trkpt>
      <trkpt lat="47.31759" lon="-0.61738">
        <ele>80.89</ele>
        <time>2013-10-20T09:00:02Z</time>
      </trkpt>
      <trkpt lat="47.31759" lon="-0.61737">
        <ele>80.89</ele>
        <time>2013-10-20T09:00:09Z</time>
      </trkpt>
      <trkpt lat="47.31759" lon="-0.61737">
        <ele>80.89</ele>
        <time>2013-10-20T09:00:24Z</time>
      </trkpt>
      <trkpt lat="47.31759" lon="-0.61737">
        <ele>80.89</ele>
        <time>2013-10-20T09:00:34Z</time>
      </trkpt>
      <trkpt lat="47.31758" lon="-0.61735">
        <ele>80.89</ele>
        <time>2013-10-20T09:00:41Z</time>
      </trkpt>
      <trkpt lat="47.31758" lon="-0.61735">
        <ele>80.89</ele>
        <time>2013-10-20T09:00:46Z</time>
      </trkpt>
      <trkpt lat="47.31762" lon="-0.61719">
        <ele>81.85</ele>
        <time>2013-10-20T09:00:51Z</time>
      </trkpt>
      <trkpt lat="47.31785" lon="-0.617">
        <ele>84.25</ele>
        <time>2013-10-20T09:01:00Z</time>
      </trkpt>
      <trkpt lat="47.318" lon="-0.61689">
        <ele>84.73</ele>
        <time>2013-10-20T09:01:06Z</time>
      </trkpt>
      <trkpt lat="47.31818" lon="-0.61677">
        <ele>86.18</ele>
        <time>2013-10-20T09:01:14Z</time>
      </trkpt>
      <trkpt lat="47.31837" lon="-0.61658">
        <ele>87.62</ele>
        <time>2013-10-20T09:01:23Z</time>
      </trkpt>
      <trkpt lat="47.31843" lon="-0.61645">
        <ele>87.14</ele>
        <time>2013-10-20T09:01:27Z</time>
      </trkpt>
      <trkpt lat="47.31839" lon="-0.61619">
        <ele>87.14</ele>
        <time>2013-10-20T09:01:33Z</time>
      </trkpt>
      <trkpt lat="47.31837" lon="-0.61609">
        <ele>87.62</ele>
        <time>2013-10-20T09:01:35Z</time>
      </trkpt>
      <trkpt lat="47.31846" lon="-0.61594">
        <ele>87.62</ele>
        <time>2013-10-20T09:01:39Z</time>
      </trkpt>
      <trkpt lat="47.31879" lon="-0.6157">
        <ele>87.62</ele>
        <time>2013-10-20T09:01:49Z</time>
      </trkpt>
      <trkpt lat="47.31917" lon="-0.61542">
        <ele>86.18</ele>
        <time>2013-10-20T09:01:58Z</time>
      </trkpt>
      <trkpt lat="47.31936" lon="-0.61529">
        <ele>86.66</ele>
        <time>2013-10-20T09:02:02Z</time>
      </trkpt>
      <trkpt lat="47.31955" lon="-0.61501">
        <ele>85.69</ele>
        <time>2013-10-20T09:02:08Z</time>
      </trkpt>
      <trkpt lat="47.3196" lon="-0.61497">
        <ele>85.69</ele>
        <time>2013-10-20T09:02:09Z</time>
      </trkpt>
      <trkpt lat="47.31998" lon="-0.61465">
        <ele>86.18</ele>
        <time>2013-10-20T09:02:18Z</time>
      </trkpt>
      <trkpt lat="47.32006" lon="-0.61458">
        <ele>86.18</ele>
        <time>2013-10-20T09:02:20Z</time>
      </trkpt>
      <trkpt lat="47.32025" lon="-0.61441">
        <ele>87.14</ele>
        <time>2013-10-20T09:02:25Z</time>
      </trkpt>
      <trkpt lat="47.32022" lon="-0.61417">
        <ele>87.62</ele>
        <time>2013-10-20T09:02:30Z</time>
      </trkpt>
      <trkpt lat="47.32024" lon="-0.61395">
        <ele>88.1</ele>
        <time>2013-10-20T09:02:34Z</time>
      </trkpt>
      <trkpt lat="47.32039" lon="-0.61361">
        <ele>89.54</ele>
        <time>2013-10-20T09:02:41Z</time>
      </trkpt>
      <trkpt lat="47.32043" lon="-0.61351">
        <ele>89.54</ele>
        <time>2013-10-20T09:02:43Z</time>
      </trkpt>
      <trkpt lat="47.32045" lon="-0.61317">
        <ele>90.02</ele>
        <time>2013-10-20T09:02:49Z</time>
      </trkpt>
      <trkpt lat="47.32043" lon="-0.61304">
        <ele>90.5</ele>
        <time>2013-10-20T09:02:51Z</time>
      </trkpt>
      <trkpt lat="47.32026" lon="-0.61247">
        <ele>89.54</ele>
        <time>2013-10-20T09:02:59Z</time>
      </trkpt>
      <trkpt lat="47.32008" lon="-0.61193">
        <ele>88.1</ele>
        <time>2013-10-20T09:03:05Z</time>
      </trkpt>
      <trkpt lat="47.32005" lon="-0.61151">
        <ele>85.69</ele>
        <time>2013-10-20T09:03:09Z</time>
      </trkpt>
      <trkpt lat="47.32007" lon="-0.6114">
        <ele>85.69</ele>
        <time>2013-10-20T09:03:10Z</time>
      </trkpt>
      <trkpt lat="47.32017" lon="-0.61111">
        <ele>85.21</ele>
        <time>2013-10-20T09:03:13Z</time>
      </trkpt>
      <trkpt lat="47.32051" lon="-0.61052">
        <ele>86.66</ele>
        <time>2013-10-20T09:03:21Z</time>
      </trkpt>
      <trkpt lat="47.32058" lon="-0.61032">
        <ele>86.18</ele>
        <time>2013-10-20T09:03:26Z</time>
      </trkpt>
      <trkpt lat="47.3206" lon="-0.61029">
        <ele>86.18</ele>
        <time>2013-10-20T09:03:27Z</time>
      </trkpt>
      <trkpt lat="47.32077" lon="-0.61031">
        <ele>86.66</ele>
        <time>2013-10-20T09:03:32Z</time>
      </trkpt>
      <trkpt lat="47.32117" lon="-0.61064">
        <ele>87.14</ele>
        <time>2013-10-20T09:03:44Z</time>
      </trkpt>
      <trkpt lat="47.32152" lon="-0.61102">
        <ele>88.1</ele>
        <time>2013-10-20T09:03:54Z</time>
      </trkpt>
      <trkpt lat="47.32179" lon="-0.61139">
        <ele>87.62</ele>
        <time>2013-10-20T09:04:02Z</time>
      </trkpt>
      <trkpt lat="47.32205" lon="-0.61178">
        <ele>88.58</ele>
        <time>2013-10-20T09:04:10Z</time>
      </trkpt>
      <trkpt lat="47.32232" lon="-0.61228">
        <ele>90.02</ele>
        <time>2013-10-20T09:04:19Z</time>
      </trkpt>
      <trkpt lat="47.32265" lon="-0.61293">
        <ele>90.98</ele>
        <time>2013-10-20T09:04:30Z</time>
      </trkpt>
      <trkpt lat="47.32297" lon="-0.61357">
        <ele>90.98</ele>
        <time>2013-10-20T09:04:41Z</time>
      </trkpt>
      <trkpt lat="47.32327" lon="-0.61412">
        <ele>91.94</ele>
        <time>2013-10-20T09:04:51Z</time>
      </trkpt>
      <trkpt lat="47.32358" lon="-0.61467">
        <ele>92.9</ele>
        <time>2013-10-20T09:05:01Z</time>
      </trkpt>
      <trkpt lat="47.3239" lon="-0.6152">
        <ele>93.87</ele>
        <time>2013-10-20T09:05:10Z</time>
      </trkpt>
      <trkpt lat="47.32422" lon="-0.61575">
        <ele>92.9</ele>
        <time>2013-10-20T09:05:18Z</time>
      </trkpt>
      <trkpt lat="47.32466" lon="-0.61653">
        <ele>91.94</ele>
        <time>2013-10-20T09:05:28Z</time>
      </trkpt>
      <trkpt lat="47.32502" lon="-0.61734">
        <ele>90.5</ele>
        <time>2013-10-20T09:05:37Z</time>
      </trkpt>
      <trkpt lat="47.32519" lon="-0.61814">
        <ele>90.5</ele>
        <time>2013-10-20T09:05:45Z</time>
      </trkpt>
      <trkpt lat="47.32535" lon="-0.61918">
        <ele>89.06</ele>
        <time>2013-10-20T09:05:55Z</time>
      </trkpt>
      <trkpt lat="47.32544" lon="-0.6197">
        <ele>88.1</ele>
        <time>2013-10-20T09:06:00Z</time>
      </trkpt>
      <trkpt lat="47.32564" lon="-0.62039">
        <ele>89.06</ele>
        <time>2013-10-20T09:06:07Z</time>
      </trkpt>
      <trkpt lat="47.32599" lon="-0.62116">
        <ele>90.02</ele>
        <time>2013-10-20T09:06:16Z</time>
      </trkpt>
      <trkpt lat="47.32627" lon="-0.62177">
        <ele>90.02</ele>
        <time>2013-10-20T09:06:23Z</time>
      </trkpt>
      <trkpt lat="47.32662" lon="-0.62258">
        <ele>90.5</ele>
        <time>2013-10-20T09:06:32Z</time>
      </trkpt>
      <trkpt lat="47.32688" lon="-0.62334">
        <ele>90.98</ele>
        <time>2013-10-20T09:06:40Z</time>
      </trkpt>
      <trkpt lat="47.32709" lon="-0.62427">
        <ele>92.42</ele>
        <time>2013-10-20T09:06:49Z</time>
      </trkpt>
      <trkpt lat="47.32724" lon="-0.62515">
        <ele>92.9</ele>
        <time>2013-10-20T09:06:58Z</time>
      </trkpt>
      <trkpt lat="47.32736" lon="-0.62598">
        <ele>92.42</ele>
        <time>2013-10-20T09:07:07Z</time>
      </trkpt>
      <trkpt lat="47.32746" lon="-0.62675">
        <ele>92.42</ele>
        <time>2013-10-20T09:07:16Z</time>
      </trkpt>
      <trkpt lat="47.32759" lon="-0.62749">
        <ele>93.39</ele>
        <time>2013-10-20T09:07:25Z</time>
      </trkpt>
      <trkpt lat="47.32773" lon="-0.62831">
        <ele>94.35</ele>
        <time>2013-10-20T09:07:36Z</time>
      </trkpt>
      <trkpt lat="47.32786" lon="-0.62841">
        <ele>93.39</ele>
        <time>2013-10-20T09:07:40Z</time>
      </trkpt>
      <trkpt lat="47.32794" lon="-0.62837">
        <ele>93.87</ele>
        <time>2013-10-20T09:07:42Z</time>
      </trkpt>
      <trkpt lat="47.32815" lon="-0.62828">
        <ele>94.35</ele>
        <time>2013-10-20T09:07:47Z</time>
      </trkpt>
      <trkpt lat="47.32858" lon="-0.62818">
        <ele>95.79</ele>
        <time>2013-10-20T09:07:58Z</time>
      </trkpt>
      <trkpt lat="47.32869" lon="-0.62818">
        <ele>95.79</ele>
        <time>2013-10-20T09:08:01Z</time>
      </trkpt>
      <trkpt lat="47.32877" lon="-0.62835">
        <ele>95.79</ele>
        <time>2013-10-20T09:08:05Z</time>
      </trkpt>
      <trkpt lat="47.32885" lon="-0.62857">
        <ele>96.27</ele>
        <time>2013-10-20T09:08:09Z</time>
      </trkpt>
      <trkpt lat="47.329" lon="-0.62854">
        <ele>96.75</ele>
        <time>2013-10-20T09:08:13Z</time>
      </trkpt>
      <trkpt lat="47.32935" lon="-0.62826">
        <ele>96.27</ele>
        <time>2013-10-20T09:08:22Z</time>
      </trkpt>
      <trkpt lat="47.3295" lon="-0.62817">
        <ele>95.79</ele>
        <time>2013-10-20T09:08:28Z</time>
      </trkpt>
      <trkpt lat="47.32954" lon="-0.62817">
        <ele>96.27</ele>
        <time>2013-10-20T09:08:32Z</time>
      </trkpt>
      <trkpt lat="47.32961" lon="-0.6282">
        <ele>95.31</ele>
        <time>2013-10-20T09:08:40Z</time>
      </trkpt>
      <trkpt lat="47.32963" lon="-0.62821">
        <ele>95.31</ele>
        <time>2013-10-20T09:08:41Z</time>
      </trkpt>
      <trkpt lat="47.32967" lon="-0.62826">
        <ele>95.31</ele>
        <time>2013-10-20T09:08:47Z</time>
      </trkpt>
      <trkpt lat="47.32967" lon="-0.62826">
        <ele>95.79</ele>
        <time>2013-10-20T09:09:02Z</time>
      </trkpt>
      <trkpt lat="47.32967" lon="-0.62826">
        <ele>95.31</ele>
        <time>2013-10-20T09:09:13Z</time>
      </trkpt>
      <trkpt lat="47.32967" lon="-0.62826">
        <ele>95.79</ele>
        <time>2013-10-20T09:09:32Z</time>
      </trkpt>
      <trkpt lat="47.32967" lon="-0.62826">
        <ele>95.79</ele>
        <time>2013-10-20T09:09:45Z</time>
      </trkpt>
      <trkpt lat="47.32967" lon="-0.62826">
        <ele>95.79</ele>
        <time>2013-10-20T09:09:58Z</time>
      </trkpt>
      <trkpt lat="47.32968" lon="-0.62827">
        <ele>95.79</ele>
        <time>2013-10-20T09:10:08Z</time>
      </trkpt>
      <trkpt lat="47.32969" lon="-0.6283">
        <ele>95.79</ele>
        <time>2013-10-20T09:10:12Z</time>
      </trkpt>
      <trkpt lat="47.32979" lon="-0.62839">
        <ele>95.31</ele>
        <time>2013-10-20T09:10:19Z</time>
      </trkpt>
      <trkpt lat="47.32994" lon="-0.62853">
        <ele>96.27</ele>
        <time>2013-10-20T09:10:26Z</time>
      </trkpt>
      <trkpt lat="47.33004" lon="-0.62866">
        <ele>96.27</ele>
        <time>2013-10-20T09:10:30Z</time>
      </trkpt>
      <trkpt lat="47.32998" lon="-0.62889">
        <ele>96.27</ele>
        <time>2013-10-20T09:10:35Z</time>
      </trkpt>
      <trkpt lat="47.32992" lon="-0.62895">
        <ele>96.27</ele>
        <time>2013-10-20T09:10:37Z</time>
      </trkpt>
      <trkpt lat="47.32977" lon="-0.62907">
        <ele>96.75</ele>
        <time>2013-10-20T09:10:43Z</time>
      </trkpt>
      <trkpt lat="47.32975" lon="-0.62908">
        <ele>96.27</ele>
        <time>2013-10-20T09:10:44Z</time>
      </trkpt>
      <trkpt lat="47.3297" lon="-0.62913">
        <ele>95.79</ele>
        <time>2013-10-20T09:10:49Z</time>
      </trkpt>
      <trkpt lat="47.3297" lon="-0.62913">
        <ele>96.27</ele>
        <time>2013-10-20T09:10:50Z</time>
      </trkpt>
      <trkpt lat="47.32959" lon="-0.6292">
        <ele>96.27</ele>
        <time>2013-10-20T09:10:57Z</time>
      </trkpt>
      <trkpt lat="47.32941" lon="-0.62935">
        <ele>96.27</ele>
        <time>2013-10-20T09:11:06Z</time>
      </trkpt>
      <trkpt lat="47.32922" lon="-0.62955">
        <ele>97.71</ele>
        <time>2013-10-20T09:11:15Z</time>
      </trkpt>
      <trkpt lat="47.32907" lon="-0.62978">
        <ele>97.71</ele>
        <time>2013-10-20T09:11:21Z</time>
      </trkpt>
      <trkpt lat="47.32873" lon="-0.63002">
        <ele>97.23</ele>
        <time>2013-10-20T09:11:30Z</time>
      </trkpt>
      <trkpt lat="47.32839" lon="-0.63017">
        <ele>97.23</ele>
        <time>2013-10-20T09:11:38Z</time>
      </trkpt>
      <trkpt lat="47.3282" lon="-0.63025">
        <ele>95.79</ele>
        <time>2013-10-20T09:11:43Z</time>
      </trkpt>
      <trkpt lat="47.3282" lon="-0.63039">
        <ele>94.83</ele>
        <time>2013-10-20T09:11:47Z</time>
      </trkpt>
      <trkpt lat="47.32834" lon="-0.63084">
        <ele>95.79</ele>
        <time>2013-10-20T09:11:56Z</time>
      </trkpt>
      <trkpt lat="47.32824" lon="-0.63098">
        <ele>95.31</ele>
        <time>2013-10-20T09:12:02Z</time>
      </trkpt>
      <trkpt lat="47.32814" lon="-0.63105">
        <ele>95.31</ele>
        <time>2013-10-20T09:12:08Z</time>
      </trkpt>
      <trkpt lat="47.328" lon="-0.63113">
        <ele>94.35</ele>
        <time>2013-10-20T09:12:14Z</time>
      </trkpt>
      <trkpt lat="47.3278" lon="-0.6312">
        <ele>94.83</ele>
        <time>2013-10-20T09:12:21Z</time>
      </trkpt>
      <trkpt lat="47.32744" lon="-0.63129">
        <ele>92.9</ele>
        <time>2013-10-20T09:12:30Z</time>
      </trkpt>
      <trkpt lat="47.32723" lon="-0.63134">
        <ele>91.94</ele>
        <time>2013-10-20T09:12:34Z</time>
      </trkpt>
      <trkpt lat="47.3269" lon="-0.63143">
        <ele>90.02</ele>
        <time>2013-10-20T09:12:40Z</time>
      </trkpt>
      <trkpt lat="47.32686" lon="-0.63143">
        <ele>90.02</ele>
        <time>2013-10-20T09:12:41Z</time>
      </trkpt>
      <trkpt lat="47.32678" lon="-0.6314">
        <ele>88.58</ele>
        <time>2013-10-20T09:12:43Z</time>
      </trkpt>
      <trkpt lat="47.32673" lon="-0.63127">
        <ele>87.62</ele>
        <time>2013-10-20T09:12:45Z</time>
      </trkpt>
      <trkpt lat="47.32658" lon="-0.63048">
        <ele>87.62</ele>
        <time>2013-10-20T09:12:55Z</time>
      </trkpt>
      <trkpt lat="47.32648" lon="-0.63002">
        <ele>88.58</ele>
        <time>2013-10-20T09:13:02Z</time>
      </trkpt>
      <trkpt lat="47.32638" lon="-0.62949">
        <ele>87.14</ele>
        <time>2013-10-20T09:13:10Z</time>
      </trkpt>
      <trkpt lat="47.32631" lon="-0.62914">
        <ele>87.14</ele>
        <time>2013-10-20T09:13:17Z</time>
      </trkpt>
      <trkpt lat="47.32627" lon="-0.62892">
        <ele>87.14</ele>
        <time>2013-10-20T09:13:22Z</time>
      </trkpt>
      <trkpt lat="47.32603" lon="-0.62835">
        <ele>86.66</ele>
        <time>2013-10-20T09:13:33Z</time>
      </trkpt>
      <trkpt lat="47.32601" lon="-0.6283">
        <ele>86.18</ele>
        <time>2013-10-20T09:13:34Z</time>
      </trkpt>
      <trkpt lat="47.32595" lon="-0.628">
        <ele>85.21</ele>
        <time>2013-10-20T09:13:40Z</time>
      </trkpt>
      <trkpt lat="47.32607" lon="-0.62766">
        <ele>86.66</ele>
        <time>2013-10-20T09:13:48Z</time>
      </trkpt>
      <trkpt lat="47.32607" lon="-0.62762">
        <ele>86.66</ele>
        <time>2013-10-20T09:13:49Z</time>
      </trkpt>
      <trkpt lat="47.3259" lon="-0.62725">
        <ele>85.69</ele>
        <time>2013-10-20T09:13:58Z</time>
      </trkpt>
      <trkpt lat="47.32575" lon="-0.62695">
        <ele>84.73</ele>
        <time>2013-10-20T09:14:05Z</time>
      </trkpt>
      <trkpt lat="47.32572" lon="-0.6269">
        <ele>84.25</ele>
        <time>2013-10-20T09:14:06Z</time>
      </trkpt>
      <trkpt lat="47.32564" lon="-0.62671">
        <ele>83.77</ele>
        <time>2013-10-20T09:14:10Z</time>
      </trkpt>
      <trkpt lat="47.32543" lon="-0.62677">
        <ele>81.85</ele>
        <time>2013-10-20T09:14:15Z</time>
      </trkpt>
      <trkpt lat="47.32526" lon="-0.62688">
        <ele>81.37</ele>
        <time>2013-10-20T09:14:19Z</time>
      </trkpt>
      <trkpt lat="47.32489" lon="-0.62708">
        <ele>78.97</ele>
        <time>2013-10-20T09:14:26Z</time>
      </trkpt>
      <trkpt lat="47.32484" lon="-0.62711">
        <ele>78.48</ele>
        <time>2013-10-20T09:14:27Z</time>
      </trkpt>
      <trkpt lat="47.32456" lon="-0.62712">
        <ele>77.52</ele>
        <time>2013-10-20T09:14:32Z</time>
      </trkpt>
      <trkpt lat="47.32444" lon="-0.62712">
        <ele>75.12</ele>
        <time>2013-10-20T09:14:36Z</time>
      </trkpt>
      <trkpt lat="47.32444" lon="-0.62712">
        <ele>75.12</ele>
        <time>2013-10-20T09:14:37Z</time>
      </trkpt>
      <trkpt lat="47.32444" lon="-0.62712">
        <ele>75.12</ele>
        <time>2013-10-20T09:14:41Z</time>
      </trkpt>
      <trkpt lat="47.3245" lon="-0.62709">
        <ele>75.12</ele>
        <time>2013-10-20T09:14:45Z</time>
      </trkpt>
      <trkpt lat="47.32455" lon="-0.62706">
        <ele>75.6</ele>
        <time>2013-10-20T09:14:47Z</time>
      </trkpt>
      <trkpt lat="47.32454" lon="-0.62689">
        <ele>76.08</ele>
        <time>2013-10-20T09:14:52Z</time>
      </trkpt>
      <trkpt lat="47.32448" lon="-0.62661">
        <ele>79.93</ele>
        <time>2013-10-20T09:15:01Z</time>
      </trkpt>
      <trkpt lat="47.32443" lon="-0.6264">
        <ele>81.85</ele>
        <time>2013-10-20T09:15:07Z</time>
      </trkpt>
      <trkpt lat="47.32433" lon="-0.62603">
        <ele>82.33</ele>
        <time>2013-10-20T09:15:16Z</time>
      </trkpt>
      <trkpt lat="47.32428" lon="-0.62583">
        <ele>82.33</ele>
        <time>2013-10-20T09:15:22Z</time>
      </trkpt>
      <trkpt lat="47.32426" lon="-0.62575">
        <ele>82.81</ele>
        <time>2013-10-20T09:15:29Z</time>
      </trkpt>
      <trkpt lat="47.32426" lon="-0.62575">
        <ele>83.29</ele>
        <time>2013-10-20T09:15:43Z</time>
      </trkpt>
      <trkpt lat="47.32426" lon="-0.62575">
        <ele>83.29</ele>
        <time>2013-10-20T09:15:52Z</time>
      </trkpt>
      <trkpt lat="47.32417" lon="-0.62578">
        <ele>82.81</ele>
        <time>2013-10-20T09:15:57Z</time>
      </trkpt>
      <trkpt lat="47.32399" lon="-0.62583">
        <ele>82.81</ele>
        <time>2013-10-20T09:16:04Z</time>
      </trkpt>
      <trkpt lat="47.32376" lon="-0.62588">
        <ele>80.41</ele>
        <time>2013-10-20T09:16:09Z</time>
      </trkpt>
      <trkpt lat="47.32371" lon="-0.62589">
        <ele>79.45</ele>
        <time>2013-10-20T09:16:10Z</time>
      </trkpt>
      <trkpt lat="47.32329" lon="-0.62607">
        <ele>76.56</ele>
        <time>2013-10-20T09:16:17Z</time>
      </trkpt>
      <trkpt lat="47.32315" lon="-0.62616">
        <ele>75.12</ele>
        <time>2013-10-20T09:16:19Z</time>
      </trkpt>
      <trkpt lat="47.32288" lon="-0.62634">
        <ele>73.2</ele>
        <time>2013-10-20T09:16:23Z</time>
      </trkpt>
      <trkpt lat="47.32279" lon="-0.62653">
        <ele>72.24</ele>
        <time>2013-10-20T09:16:26Z</time>
      </trkpt>
      <trkpt lat="47.32281" lon="-0.62669">
        <ele>71.76</ele>
        <time>2013-10-20T09:16:28Z</time>
      </trkpt>
      <trkpt lat="47.32285" lon="-0.62685">
        <ele>71.76</ele>
        <time>2013-10-20T09:16:30Z</time>
      </trkpt>
      <trkpt lat="47.32287" lon="-0.62702">
        <ele>71.27</ele>
        <time>2013-10-20T09:16:32Z</time>
      </trkpt>
      <trkpt lat="47.32297" lon="-0.6274">
        <ele>69.83</ele>
        <time>2013-10-20T09:16:36Z</time>
      </trkpt>
      <trkpt lat="47.32305" lon="-0.62757">
        <ele>67.91</ele>
        <time>2013-10-20T09:16:38Z</time>
      </trkpt>
      <trkpt lat="47.32297" lon="-0.62787">
        <ele>66.95</ele>
        <time>2013-10-20T09:16:42Z</time>
      </trkpt>
      <trkpt lat="47.32293" lon="-0.62794">
        <ele>66.47</ele>
        <time>2013-10-20T09:16:43Z</time>
      </trkpt>
      <trkpt lat="47.32267" lon="-0.62842">
        <ele>65.03</ele>
        <time>2013-10-20T09:16:49Z</time>
      </trkpt>
      <trkpt lat="47.3226" lon="-0.62878">
        <ele>63.58</ele>
        <time>2013-10-20T09:16:53Z</time>
      </trkpt>
      <trkpt lat="47.3226" lon="-0.62904">
        <ele>63.1</ele>
        <time>2013-10-20T09:16:56Z</time>
      </trkpt>
      <trkpt lat="47.32269" lon="-0.62925">
        <ele>63.58</ele>
        <time>2013-10-20T09:17:00Z</time>
      </trkpt>
      <trkpt lat="47.32278" lon="-0.62932">
        <ele>64.07</ele>
        <time>2013-10-20T09:17:02Z</time>
      </trkpt>
      <trkpt lat="47.32293" lon="-0.62953">
        <ele>65.51</ele>
        <time>2013-10-20T09:17:06Z</time>
      </trkpt>
      <trkpt lat="47.32331" lon="-0.62992">
        <ele>68.87</ele>
        <time>2013-10-20T09:17:16Z</time>
      </trkpt>
      <trkpt lat="47.32355" lon="-0.63016">
        <ele>70.31</ele>
        <time>2013-10-20T09:17:23Z</time>
      </trkpt>
      <trkpt lat="47.32377" lon="-0.63033">
        <ele>72.24</ele>
        <time>2013-10-20T09:17:30Z</time>
      </trkpt>
      <trkpt lat="47.32404" lon="-0.63044">
        <ele>73.2</ele>
        <time>2013-10-20T09:17:39Z</time>
      </trkpt>
      <trkpt lat="47.32426" lon="-0.63051">
        <ele>75.12</ele>
        <time>2013-10-20T09:17:47Z</time>
      </trkpt>
      <trkpt lat="47.32452" lon="-0.6305">
        <ele>76.08</ele>
        <time>2013-10-20T09:17:56Z</time>
      </trkpt>
      <trkpt lat="47.32457" lon="-0.6305">
        <ele>76.56</ele>
        <time>2013-10-20T09:17:58Z</time>
      </trkpt>
      <trkpt lat="47.32462" lon="-0.63062">
        <ele>77.04</ele>
        <time>2013-10-20T09:18:02Z</time>
      </trkpt>
      <trkpt lat="47.3246" lon="-0.63066">
        <ele>77.04</ele>
        <time>2013-10-20T09:18:03Z</time>
      </trkpt>
      <trkpt lat="47.32451" lon="-0.63077">
        <ele>77.52</ele>
        <time>2013-10-20T09:18:06Z</time>
      </trkpt>
      <trkpt lat="47.32411" lon="-0.63107">
        <ele>76.56</ele>
        <time>2013-10-20T09:18:16Z</time>
      </trkpt>
      <trkpt lat="47.32371" lon="-0.63136">
        <ele>75.6</ele>
        <time>2013-10-20T09:18:25Z</time>
      </trkpt>
      <trkpt lat="47.32353" lon="-0.63151">
        <ele>75.12</ele>
        <time>2013-10-20T09:18:29Z</time>
      </trkpt>
      <trkpt lat="47.32345" lon="-0.6316">
        <ele>74.64</ele>
        <time>2013-10-20T09:18:31Z</time>
      </trkpt>
      <trkpt lat="47.3231" lon="-0.63212">
        <ele>73.68</ele>
        <time>2013-10-20T09:18:40Z</time>
      </trkpt>
      <trkpt lat="47.32282" lon="-0.6323">
        <ele>73.68</ele>
        <time>2013-10-20T09:18:45Z</time>
      </trkpt>
      <trkpt lat="47.32265" lon="-0.63236">
        <ele>73.2</ele>
        <time>2013-10-20T09:18:48Z</time>
      </trkpt>
      <trkpt lat="47.32253" lon="-0.6326">
        <ele>73.2</ele>
        <time>2013-10-20T09:18:52Z</time>
      </trkpt>
      <trkpt lat="47.32254" lon="-0.63268">
        <ele>73.2</ele>
        <time>2013-10-20T09:18:53Z</time>
      </trkpt>
      <trkpt lat="47.32262" lon="-0.63352">
        <ele>73.2</ele>
        <time>2013-10-20T09:19:03Z</time>
      </trkpt>
      <trkpt lat="47.32276" lon="-0.63369">
        <ele>72.24</ele>
        <time>2013-10-20T09:19:07Z</time>
      </trkpt>
      <trkpt lat="47.3228" lon="-0.63366">
        <ele>72.72</ele>
        <time>2013-10-20T09:19:08Z</time>
      </trkpt>
      <trkpt lat="47.3229" lon="-0.63362">
        <ele>72.72</ele>
        <time>2013-10-20T09:19:10Z</time>
      </trkpt>
      <trkpt lat="47.32303" lon="-0.63358">
        <ele>73.2</ele>
        <time>2013-10-20T09:19:13Z</time>
      </trkpt>
      <trkpt lat="47.32321" lon="-0.63352">
        <ele>73.2</ele>
        <time>2013-10-20T09:19:17Z</time>
      </trkpt>
      <trkpt lat="47.3236" lon="-0.6334">
        <ele>73.68</ele>
        <time>2013-10-20T09:19:26Z</time>
      </trkpt>
      <trkpt lat="47.3238" lon="-0.63334">
        <ele>74.16</ele>
        <time>2013-10-20T09:19:31Z</time>
      </trkpt>
      <trkpt lat="47.32392" lon="-0.63353">
        <ele>75.12</ele>
        <time>2013-10-20T09:19:36Z</time>
      </trkpt>
      <trkpt lat="47.32395" lon="-0.63364">
        <ele>75.12</ele>
        <time>2013-10-20T09:19:38Z</time>
      </trkpt>
      <trkpt lat="47.32406" lon="-0.63403">
        <ele>75.6</ele>
        <time>2013-10-20T09:19:44Z</time>
      </trkpt>
      <trkpt lat="47.32411" lon="-0.63423">
        <ele>75.12</ele>
        <time>2013-10-20T09:19:47Z</time>
      </trkpt>
      <trkpt lat="47.32434" lon="-0.63496">
        <ele>74.64</ele>
        <time>2013-10-20T09:19:58Z</time>
      </trkpt>
      <trkpt lat="47.32452" lon="-0.63553">
        <ele>72.24</ele>
        <time>2013-10-20T09:20:06Z</time>
      </trkpt>
      <trkpt lat="47.32457" lon="-0.63568">
        <ele>70.79</ele>
        <time>2013-10-20T09:20:08Z</time>
      </trkpt>
      <trkpt lat="47.32467" lon="-0.636">
        <ele>68.87</ele>
        <time>2013-10-20T09:20:12Z</time>
      </trkpt>
      <trkpt lat="47.3247" lon="-0.63622">
        <ele>66.47</ele>
        <time>2013-10-20T09:20:16Z</time>
      </trkpt>
      <trkpt lat="47.32469" lon="-0.63648">
        <ele>62.14</ele>
        <time>2013-10-20T09:20:20Z</time>
      </trkpt>
      <trkpt lat="47.32448" lon="-0.63672">
        <ele>59.74</ele>
        <time>2013-10-20T09:20:24Z</time>
      </trkpt>
      <trkpt lat="47.32436" lon="-0.63688">
        <ele>58.78</ele>
        <time>2013-10-20T09:20:26Z</time>
      </trkpt>
      <trkpt lat="47.32415" lon="-0.63715">
        <ele>56.86</ele>
        <time>2013-10-20T09:20:30Z</time>
      </trkpt>
      <trkpt lat="47.32397" lon="-0.63735">
        <ele>55.41</ele>
        <time>2013-10-20T09:20:34Z</time>
      </trkpt>
      <trkpt lat="47.3238" lon="-0.63742">
        <ele>54.45</ele>
        <time>2013-10-20T09:20:37Z</time>
      </trkpt>
      <trkpt lat="47.32353" lon="-0.63749">
        <ele>52.05</ele>
        <time>2013-10-20T09:20:41Z</time>
      </trkpt>
      <trkpt lat="47.32325" lon="-0.63768">
        <ele>50.61</ele>
        <time>2013-10-20T09:20:46Z</time>
      </trkpt>
      <trkpt lat="47.32314" lon="-0.63773">
        <ele>50.61</ele>
        <time>2013-10-20T09:20:47Z</time>
      </trkpt>
      <trkpt lat="47.32246" lon="-0.63818">
        <ele>46.76</ele>
        <time>2013-10-20T09:20:55Z</time>
      </trkpt>
      <trkpt lat="47.32238" lon="-0.63823">
        <ele>45.32</ele>
        <time>2013-10-20T09:20:56Z</time>
      </trkpt>
      <trkpt lat="47.32214" lon="-0.63834">
        <ele>42.92</ele>
        <time>2013-10-20T09:20:59Z</time>
      </trkpt>
      <trkpt lat="47.32202" lon="-0.63832">
        <ele>41.95</ele>
        <time>2013-10-20T09:21:01Z</time>
      </trkpt>
      <trkpt lat="47.32156" lon="-0.63813">
        <ele>41.47</ele>
        <time>2013-10-20T09:21:10Z</time>
      </trkpt>
      <trkpt lat="47.32126" lon="-0.63793">
        <ele>40.03</ele>
        <time>2013-10-20T09:21:15Z</time>
      </trkpt>
      <trkpt lat="47.3211" lon="-0.63775">
        <ele>38.59</ele>
        <time>2013-10-20T09:21:17Z</time>
      </trkpt>
      <trkpt lat="47.32073" lon="-0.63755">
        <ele>38.59</ele>
        <time>2013-10-20T09:21:22Z</time>
      </trkpt>
      <trkpt lat="47.32065" lon="-0.63755">
        <ele>37.63</ele>
        <time>2013-10-20T09:21:23Z</time>
      </trkpt>
      <trkpt lat="47.32049" lon="-0.63754">
        <ele>36.67</ele>
        <time>2013-10-20T09:21:25Z</time>
      </trkpt>
      <trkpt lat="47.32015" lon="-0.63753">
        <ele>33.3</ele>
        <time>2013-10-20T09:21:29Z</time>
      </trkpt>
      <trkpt lat="47.31958" lon="-0.63755">
        <ele>31.38</ele>
        <time>2013-10-20T09:21:36Z</time>
      </trkpt>
      <trkpt lat="47.31932" lon="-0.63776">
        <ele>28.02</ele>
        <time>2013-10-20T09:21:40Z</time>
      </trkpt>
      <trkpt lat="47.31925" lon="-0.63782">
        <ele>27.05</ele>
        <time>2013-10-20T09:21:41Z</time>
      </trkpt>
      <trkpt lat="47.31903" lon="-0.63799">
        <ele>25.61</ele>
        <time>2013-10-20T09:21:44Z</time>
      </trkpt>
      <trkpt lat="47.31891" lon="-0.6381">
        <ele>24.65</ele>
        <time>2013-10-20T09:21:46Z</time>
      </trkpt>
      <trkpt lat="47.31881" lon="-0.63818">
        <ele>23.21</ele>
        <time>2013-10-20T09:21:48Z</time>
      </trkpt>
      <trkpt lat="47.31868" lon="-0.63811">
        <ele>24.17</ele>
        <time>2013-10-20T09:21:53Z</time>
      </trkpt>
      <trkpt lat="47.31863" lon="-0.6382">
        <ele>23.69</ele>
        <time>2013-10-20T09:21:56Z</time>
      </trkpt>
      <trkpt lat="47.31863" lon="-0.63826">
        <ele>23.21</ele>
        <time>2013-10-20T09:21:57Z</time>
      </trkpt>
      <trkpt lat="47.31862" lon="-0.63839">
        <ele>23.69</ele>
        <time>2013-10-20T09:21:59Z</time>
      </trkpt>
      <trkpt lat="47.31845" lon="-0.639">
        <ele>22.73</ele>
        <time>2013-10-20T09:22:07Z</time>
      </trkpt>
      <trkpt lat="47.31837" lon="-0.63918">
        <ele>23.21</ele>
        <time>2013-10-20T09:22:09Z</time>
      </trkpt>
      <trkpt lat="47.31811" lon="-0.63978">
        <ele>22.73</ele>
        <time>2013-10-20T09:22:16Z</time>
      </trkpt>
      <trkpt lat="47.31774" lon="-0.64037">
        <ele>22.25</ele>
        <time>2013-10-20T09:22:23Z</time>
      </trkpt>
      <trkpt lat="47.3174" lon="-0.64083">
        <ele>21.77</ele>
        <time>2013-10-20T09:22:29Z</time>
      </trkpt>
      <trkpt lat="47.31706" lon="-0.64133">
        <ele>22.25</ele>
        <time>2013-10-20T09:22:36Z</time>
      </trkpt>
      <trkpt lat="47.31689" lon="-0.64167">
        <ele>21.77</ele>
        <time>2013-10-20T09:22:41Z</time>
      </trkpt>
      <trkpt lat="47.31668" lon="-0.64221">
        <ele>22.73</ele>
        <time>2013-10-20T09:22:48Z</time>
      </trkpt>
      <trkpt lat="47.31652" lon="-0.64276">
        <ele>23.69</ele>
        <time>2013-10-20T09:22:55Z</time>
      </trkpt>
      <trkpt lat="47.31635" lon="-0.64341">
        <ele>23.69</ele>
        <time>2013-10-20T09:23:03Z</time>
      </trkpt>
      <trkpt lat="47.31634" lon="-0.64349">
        <ele>23.69</ele>
        <time>2013-10-20T09:23:04Z</time>
      </trkpt>
      <trkpt lat="47.3163" lon="-0.64382">
        <ele>24.17</ele>
        <time>2013-10-20T09:23:08Z</time>
      </trkpt>
      <trkpt lat="47.31629" lon="-0.64411">
        <ele>23.69</ele>
        <time>2013-10-20T09:23:12Z</time>
      </trkpt>
      <trkpt lat="47.3163" lon="-0.64439">
        <ele>24.65</ele>
        <time>2013-10-20T09:23:16Z</time>
      </trkpt>
      <trkpt lat="47.31631" lon="-0.64468">
        <ele>25.13</ele>
        <time>2013-10-20T09:23:20Z</time>
      </trkpt>
      <trkpt lat="47.31634" lon="-0.64483">
        <ele>25.13</ele>
        <time>2013-10-20T09:23:22Z</time>
      </trkpt>
      <trkpt lat="47.31635" lon="-0.64514">
        <ele>25.13</ele>
        <time>2013-10-20T09:23:26Z</time>
      </trkpt>
      <trkpt lat="47.31641" lon="-0.64567">
        <ele>24.17</ele>
        <time>2013-10-20T09:23:33Z</time>
      </trkpt>
      <trkpt lat="47.31652" lon="-0.64615">
        <ele>24.17</ele>
        <time>2013-10-20T09:23:39Z</time>
      </trkpt>
      <trkpt lat="47.31668" lon="-0.64663">
        <ele>23.69</ele>
        <time>2013-10-20T09:23:45Z</time>
      </trkpt>
      <trkpt lat="47.31692" lon="-0.64719">
        <ele>23.21</ele>
        <time>2013-10-20T09:23:52Z</time>
      </trkpt>
      <trkpt lat="47.317" lon="-0.64735">
        <ele>22.73</ele>
        <time>2013-10-20T09:23:54Z</time>
      </trkpt>
      <trkpt lat="47.31741" lon="-0.64798">
        <ele>22.25</ele>
        <time>2013-10-20T09:24:03Z</time>
      </trkpt>
      <trkpt lat="47.31786" lon="-0.64858">
        <ele>20.81</ele>
        <time>2013-10-20T09:24:12Z</time>
      </trkpt>
      <trkpt lat="47.31828" lon="-0.64912">
        <ele>21.29</ele>
        <time>2013-10-20T09:24:20Z</time>
      </trkpt>
      <trkpt lat="47.31876" lon="-0.64973">
        <ele>20.81</ele>
        <time>2013-10-20T09:24:29Z</time>
      </trkpt>
      <trkpt lat="47.31918" lon="-0.65029">
        <ele>21.29</ele>
        <time>2013-10-20T09:24:37Z</time>
      </trkpt>
      <trkpt lat="47.31956" lon="-0.65077">
        <ele>20.32</ele>
        <time>2013-10-20T09:24:44Z</time>
      </trkpt>
      <trkpt lat="47.32006" lon="-0.65139">
        <ele>20.81</ele>
        <time>2013-10-20T09:24:53Z</time>
      </trkpt>
      <trkpt lat="47.32036" lon="-0.65179">
        <ele>20.32</ele>
        <time>2013-10-20T09:24:59Z</time>
      </trkpt>
      <trkpt lat="47.3205" lon="-0.65176">
        <ele>20.81</ele>
        <time>2013-10-20T09:25:03Z</time>
      </trkpt>
      <trkpt lat="47.32052" lon="-0.65165">
        <ele>20.81</ele>
        <time>2013-10-20T09:25:05Z</time>
      </trkpt>
      <trkpt lat="47.32061" lon="-0.65124">
        <ele>23.69</ele>
        <time>2013-10-20T09:25:13Z</time>
      </trkpt>
      <trkpt lat="47.32063" lon="-0.6512">
        <ele>24.17</ele>
        <time>2013-10-20T09:25:14Z</time>
      </trkpt>
      <trkpt lat="47.32071" lon="-0.65095">
        <ele>25.13</ele>
        <time>2013-10-20T09:25:22Z</time>
      </trkpt>
      <trkpt lat="47.32076" lon="-0.65074">
        <ele>25.61</ele>
        <time>2013-10-20T09:25:29Z</time>
      </trkpt>
      <trkpt lat="47.32077" lon="-0.6505">
        <ele>27.53</ele>
        <time>2013-10-20T09:25:37Z</time>
      </trkpt>
      <trkpt lat="47.32076" lon="-0.65038">
        <ele>28.98</ele>
        <time>2013-10-20T09:25:41Z</time>
      </trkpt>
      <trkpt lat="47.32073" lon="-0.65023">
        <ele>30.9</ele>
        <time>2013-10-20T09:25:47Z</time>
      </trkpt>
      <trkpt lat="47.32068" lon="-0.65004">
        <ele>32.34</ele>
        <time>2013-10-20T09:25:55Z</time>
      </trkpt>
      <trkpt lat="47.32066" lon="-0.64995">
        <ele>33.78</ele>
        <time>2013-10-20T09:25:59Z</time>
      </trkpt>
      <trkpt lat="47.32057" lon="-0.64972">
        <ele>35.23</ele>
        <time>2013-10-20T09:26:09Z</time>
      </trkpt>
      <trkpt lat="47.32052" lon="-0.64955">
        <ele>37.15</ele>
        <time>2013-10-20T09:26:17Z</time>
      </trkpt>
      <trkpt lat="47.32048" lon="-0.64936">
        <ele>38.11</ele>
        <time>2013-10-20T09:26:25Z</time>
      </trkpt>
      <trkpt lat="47.32046" lon="-0.64925">
        <ele>39.07</ele>
        <time>2013-10-20T09:26:29Z</time>
      </trkpt>
      <trkpt lat="47.32046" lon="-0.6492">
        <ele>40.03</ele>
        <time>2013-10-20T09:26:31Z</time>
      </trkpt>
      <trkpt lat="47.32047" lon="-0.64902">
        <ele>40.51</ele>
        <time>2013-10-20T09:26:38Z</time>
      </trkpt>
      <trkpt lat="47.32053" lon="-0.64874">
        <ele>41.47</ele>
        <time>2013-10-20T09:26:47Z</time>
      </trkpt>
      <trkpt lat="47.32053" lon="-0.64843">
        <ele>41.47</ele>
        <time>2013-10-20T09:26:55Z</time>
      </trkpt>
      <trkpt lat="47.32045" lon="-0.64804">
        <ele>40.99</ele>
        <time>2013-10-20T09:27:03Z</time>
      </trkpt>
      <trkpt lat="47.32045" lon="-0.64793">
        <ele>40.99</ele>
        <time>2013-10-20T09:27:05Z</time>
      </trkpt>
      <trkpt lat="47.32055" lon="-0.6478">
        <ele>41.47</ele>
        <time>2013-10-20T09:27:09Z</time>
      </trkpt>
      <trkpt lat="47.32081" lon="-0.64763">
        <ele>43.4</ele>
        <time>2013-10-20T09:27:18Z</time>
      </trkpt>
      <trkpt lat="47.32099" lon="-0.64751">
        <ele>45.8</ele>
        <time>2013-10-20T09:27:25Z</time>
      </trkpt>
      <trkpt lat="47.3211" lon="-0.6474">
        <ele>47.24</ele>
        <time>2013-10-20T09:27:30Z</time>
      </trkpt>
      <trkpt lat="47.32124" lon="-0.64724">
        <ele>49.65</ele>
        <time>2013-10-20T09:27:38Z</time>
      </trkpt>
      <trkpt lat="47.32132" lon="-0.64709">
        <ele>51.09</ele>
        <time>2013-10-20T09:27:45Z</time>
      </trkpt>
      <trkpt lat="47.32139" lon="-0.64692">
        <ele>53.01</ele>
        <time>2013-10-20T09:27:53Z</time>
      </trkpt>
      <trkpt lat="47.3214" lon="-0.6469">
        <ele>53.01</ele>
        <time>2013-10-20T09:27:54Z</time>
      </trkpt>
      <trkpt lat="47.32141" lon="-0.64685">
        <ele>53.01</ele>
        <time>2013-10-20T09:27:56Z</time>
      </trkpt>
      <trkpt lat="47.32144" lon="-0.64679">
        <ele>53.97</ele>
        <time>2013-10-20T09:28:00Z</time>
      </trkpt>
      <trkpt lat="47.32148" lon="-0.64672">
        <ele>54.93</ele>
        <time>2013-10-20T09:28:04Z</time>
      </trkpt>
      <trkpt lat="47.3215" lon="-0.64668">
        <ele>54.93</ele>
        <time>2013-10-20T09:28:06Z</time>
      </trkpt>
      <trkpt lat="47.3215" lon="-0.64664">
        <ele>55.41</ele>
        <time>2013-10-20T09:28:13Z</time>
      </trkpt>
      <trkpt lat="47.3215" lon="-0.64664">
        <ele>55.89</ele>
        <time>2013-10-20T09:28:25Z</time>
      </trkpt>
      <trkpt lat="47.3215" lon="-0.64664">
        <ele>55.89</ele>
        <time>2013-10-20T09:28:38Z</time>
      </trkpt>
      <trkpt lat="47.3215" lon="-0.64663">
        <ele>55.89</ele>
        <time>2013-10-20T09:28:51Z</time>
      </trkpt>
      <trkpt lat="47.3215" lon="-0.64663">
        <ele>55.89</ele>
        <time>2013-10-20T09:29:02Z</time>
      </trkpt>
      <trkpt lat="47.3215" lon="-0.64663">
        <ele>55.41</ele>
        <time>2013-10-20T09:29:08Z</time>
      </trkpt>
      <trkpt lat="47.32145" lon="-0.64653">
        <ele>55.41</ele>
        <time>2013-10-20T09:29:12Z</time>
      </trkpt>
      <trkpt lat="47.32142" lon="-0.64636">
        <ele>53.97</ele>
        <time>2013-10-20T09:29:15Z</time>
      </trkpt>
      <trkpt lat="47.32141" lon="-0.64612">
        <ele>53.97</ele>
        <time>2013-10-20T09:29:19Z</time>
      </trkpt>
      <trkpt lat="47.32153" lon="-0.64566">
        <ele>53.97</ele>
        <time>2013-10-20T09:29:26Z</time>
      </trkpt>
      <trkpt lat="47.32164" lon="-0.6455">
        <ele>54.45</ele>
        <time>2013-10-20T09:29:29Z</time>
      </trkpt>
      <trkpt lat="47.3218" lon="-0.64533">
        <ele>54.45</ele>
        <time>2013-10-20T09:29:33Z</time>
      </trkpt>
      <trkpt lat="47.32195" lon="-0.64531">
        <ele>55.89</ele>
        <time>2013-10-20T09:29:37Z</time>
      </trkpt>
      <trkpt lat="47.322" lon="-0.64537">
        <ele>56.86</ele>
        <time>2013-10-20T09:29:39Z</time>
      </trkpt>
      <trkpt lat="47.32207" lon="-0.64546">
        <ele>58.3</ele>
        <time>2013-10-20T09:29:42Z</time>
      </trkpt>
      <trkpt lat="47.32219" lon="-0.64561">
        <ele>60.22</ele>
        <time>2013-10-20T09:29:48Z</time>
      </trkpt>
      <trkpt lat="47.32233" lon="-0.64568">
        <ele>61.66</ele>
        <time>2013-10-20T09:29:54Z</time>
      </trkpt>
      <trkpt lat="47.32239" lon="-0.64568">
        <ele>62.62</ele>
        <time>2013-10-20T09:29:56Z</time>
      </trkpt>
      <trkpt lat="47.32242" lon="-0.64569">
        <ele>62.62</ele>
        <time>2013-10-20T09:29:58Z</time>
      </trkpt>
      <trkpt lat="47.3225" lon="-0.64577">
        <ele>64.07</ele>
        <time>2013-10-20T09:30:02Z</time>
      </trkpt>
      <trkpt lat="47.3226" lon="-0.64578">
        <ele>64.55</ele>
        <time>2013-10-20T09:30:07Z</time>
      </trkpt>
      <trkpt lat="47.32275" lon="-0.6459">
        <ele>65.99</ele>
        <time>2013-10-20T09:30:16Z</time>
      </trkpt>
      <trkpt lat="47.32286" lon="-0.64612">
        <ele>66.95</ele>
        <time>2013-10-20T09:30:24Z</time>
      </trkpt>
      <trkpt lat="47.32299" lon="-0.64642">
        <ele>67.91</ele>
        <time>2013-10-20T09:30:33Z</time>
      </trkpt>
      <trkpt lat="47.32315" lon="-0.64677">
        <ele>67.43</ele>
        <time>2013-10-20T09:30:41Z</time>
      </trkpt>
      <trkpt lat="47.32326" lon="-0.64695">
        <ele>67.43</ele>
        <time>2013-10-20T09:30:45Z</time>
      </trkpt>
      <trkpt lat="47.32337" lon="-0.64707">
        <ele>66.95</ele>
        <time>2013-10-20T09:30:48Z</time>
      </trkpt>
      <trkpt lat="47.32373" lon="-0.64737">
        <ele>67.43</ele>
        <time>2013-10-20T09:30:57Z</time>
      </trkpt>
      <trkpt lat="47.32387" lon="-0.64755">
        <ele>67.91</ele>
        <time>2013-10-20T09:31:03Z</time>
      </trkpt>
      <trkpt lat="47.32391" lon="-0.64766">
        <ele>66.95</ele>
        <time>2013-10-20T09:31:05Z</time>
      </trkpt>
      <trkpt lat="47.32401" lon="-0.64767">
        <ele>66.95</ele>
        <time>2013-10-20T09:31:10Z</time>
      </trkpt>
      <trkpt lat="47.32401" lon="-0.64753">
        <ele>67.43</ele>
        <time>2013-10-20T09:31:14Z</time>
      </trkpt>
      <trkpt lat="47.32406" lon="-0.64748">
        <ele>67.91</ele>
        <time>2013-10-20T09:31:16Z</time>
      </trkpt>
      <trkpt lat="47.32422" lon="-0.64719">
        <ele>69.35</ele>
        <time>2013-10-20T09:31:24Z</time>
      </trkpt>
      <trkpt lat="47.3243" lon="-0.64695">
        <ele>70.79</ele>
        <time>2013-10-20T09:31:31Z</time>
      </trkpt>
      <trkpt lat="47.32437" lon="-0.64677">
        <ele>72.24</ele>
        <time>2013-10-20T09:31:38Z</time>
      </trkpt>
      <trkpt lat="47.32445" lon="-0.64665">
        <ele>74.16</ele>
        <time>2013-10-20T09:31:44Z</time>
      </trkpt>
      <trkpt lat="47.3245" lon="-0.64664">
        <ele>75.6</ele>
        <time>2013-10-20T09:31:49Z</time>
      </trkpt>
      <trkpt lat="47.32457" lon="-0.6468">
        <ele>76.08</ele>
        <time>2013-10-20T09:31:57Z</time>
      </trkpt>
      <trkpt lat="47.32464" lon="-0.64694">
        <ele>76.08</ele>
        <time>2013-10-20T09:32:03Z</time>
      </trkpt>
      <trkpt lat="47.32471" lon="-0.64713">
        <ele>77.04</ele>
        <time>2013-10-20T09:32:11Z</time>
      </trkpt>
      <trkpt lat="47.32479" lon="-0.64728">
        <ele>77.52</ele>
        <time>2013-10-20T09:32:18Z</time>
      </trkpt>
      <trkpt lat="47.32488" lon="-0.6475">
        <ele>78.48</ele>
        <time>2013-10-20T09:32:26Z</time>
      </trkpt>
      <trkpt lat="47.32499" lon="-0.64771">
        <ele>78.48</ele>
        <time>2013-10-20T09:32:33Z</time>
      </trkpt>
      <trkpt lat="47.32515" lon="-0.64793">
        <ele>78.48</ele>
        <time>2013-10-20T09:32:40Z</time>
      </trkpt>
      <trkpt lat="47.32531" lon="-0.64822">
        <ele>79.45</ele>
        <time>2013-10-20T09:32:49Z</time>
      </trkpt>
      <trkpt lat="47.32546" lon="-0.64854">
        <ele>79.45</ele>
        <time>2013-10-20T09:32:58Z</time>
      </trkpt>
      <trkpt lat="47.32562" lon="-0.64882">
        <ele>79.93</ele>
        <time>2013-10-20T09:33:06Z</time>
      </trkpt>
      <trkpt lat="47.32583" lon="-0.64927">
        <ele>78.48</ele>
        <time>2013-10-20T09:33:15Z</time>
      </trkpt>
      <trkpt lat="47.32604" lon="-0.64969">
        <ele>76.56</ele>
        <time>2013-10-20T09:33:21Z</time>
      </trkpt>
      <trkpt lat="47.3262" lon="-0.65005">
        <ele>74.16</ele>
        <time>2013-10-20T09:33:25Z</time>
      </trkpt>
      <trkpt lat="47.32638" lon="-0.65033">
        <ele>70.31</ele>
        <time>2013-10-20T09:33:29Z</time>
      </trkpt>
      <trkpt lat="47.32643" lon="-0.65043">
        <ele>67.43</ele>
        <time>2013-10-20T09:33:32Z</time>
      </trkpt>
      <trkpt lat="47.32646" lon="-0.6505">
        <ele>66.47</ele>
        <time>2013-10-20T09:33:34Z</time>
      </trkpt>
      <trkpt lat="47.32644" lon="-0.65079">
        <ele>63.58</ele>
        <time>2013-10-20T09:33:39Z</time>
      </trkpt>
      <trkpt lat="47.32641" lon="-0.65085">
        <ele>63.58</ele>
        <time>2013-10-20T09:33:40Z</time>
      </trkpt>
      <trkpt lat="47.32635" lon="-0.65109">
        <ele>60.7</ele>
        <time>2013-10-20T09:33:45Z</time>
      </trkpt>
      <trkpt lat="47.3264" lon="-0.65118">
        <ele>59.26</ele>
        <time>2013-10-20T09:33:50Z</time>
      </trkpt>
      <trkpt lat="47.32644" lon="-0.65112">
        <ele>59.26</ele>
        <time>2013-10-20T09:33:52Z</time>
      </trkpt>
      <trkpt lat="47.32646" lon="-0.65098">
        <ele>59.74</ele>
        <time>2013-10-20T09:33:56Z</time>
      </trkpt>
      <trkpt lat="47.32661" lon="-0.65081">
        <ele>60.7</ele>
        <time>2013-10-20T09:34:03Z</time>
      </trkpt>
      <trkpt lat="47.32672" lon="-0.65067">
        <ele>59.26</ele>
        <time>2013-10-20T09:34:07Z</time>
      </trkpt>
      <trkpt lat="47.32679" lon="-0.65056">
        <ele>58.3</ele>
        <time>2013-10-20T09:34:09Z</time>
      </trkpt>
      <trkpt lat="47.32689" lon="-0.65038">
        <ele>57.34</ele>
        <time>2013-10-20T09:34:14Z</time>
      </trkpt>
      <trkpt lat="47.32697" lon="-0.65045">
        <ele>56.37</ele>
        <time>2013-10-20T09:34:18Z</time>
      </trkpt>
      <trkpt lat="47.327" lon="-0.65052">
        <ele>55.89</ele>
        <time>2013-10-20T09:34:20Z</time>
      </trkpt>
      <trkpt lat="47.32701" lon="-0.65057">
        <ele>55.89</ele>
        <time>2013-10-20T09:34:21Z</time>
      </trkpt>
      <trkpt lat="47.32704" lon="-0.65071">
        <ele>54.45</ele>
        <time>2013-10-20T09:34:23Z</time>
      </trkpt>
      <trkpt lat="47.32711" lon="-0.65105">
        <ele>51.09</ele>
        <time>2013-10-20T09:34:27Z</time>
      </trkpt>
      <trkpt lat="47.32718" lon="-0.65141">
        <ele>47.72</ele>
        <time>2013-10-20T09:34:31Z</time>
      </trkpt>
      <trkpt lat="47.32735" lon="-0.6517">
        <ele>44.36</ele>
        <time>2013-10-20T09:34:36Z</time>
      </trkpt>
      <trkpt lat="47.32748" lon="-0.65186">
        <ele>43.4</ele>
        <time>2013-10-20T09:34:40Z</time>
      </trkpt>
      <trkpt lat="47.32756" lon="-0.65187">
        <ele>44.84</ele>
        <time>2013-10-20T09:34:44Z</time>
      </trkpt>
      <trkpt lat="47.32759" lon="-0.6518">
        <ele>44.84</ele>
        <time>2013-10-20T09:34:46Z</time>
      </trkpt>
      <trkpt lat="47.32773" lon="-0.65143">
        <ele>45.8</ele>
        <time>2013-10-20T09:34:55Z</time>
      </trkpt>
      <trkpt lat="47.32782" lon="-0.6512">
        <ele>46.76</ele>
        <time>2013-10-20T09:35:01Z</time>
      </trkpt>
      <trkpt lat="47.32791" lon="-0.65107">
        <ele>47.72</ele>
        <time>2013-10-20T09:35:06Z</time>
      </trkpt>
      <trkpt lat="47.328" lon="-0.65113">
        <ele>48.68</ele>
        <time>2013-10-20T09:35:10Z</time>
      </trkpt>
      <trkpt lat="47.32803" lon="-0.65118">
        <ele>50.13</ele>
        <time>2013-10-20T09:35:12Z</time>
      </trkpt>
      <trkpt lat="47.32812" lon="-0.65114">
        <ele>51.09</ele>
        <time>2013-10-20T09:35:18Z</time>
      </trkpt>
      <trkpt lat="47.32821" lon="-0.65101">
        <ele>53.01</ele>
        <time>2013-10-20T09:35:25Z</time>
      </trkpt>
      <trkpt lat="47.32834" lon="-0.65083">
        <ele>53.49</ele>
        <time>2013-10-20T09:35:33Z</time>
      </trkpt>
      <trkpt lat="47.32847" lon="-0.65064">
        <ele>53.49</ele>
        <time>2013-10-20T09:35:41Z</time>
      </trkpt>
      <trkpt lat="47.32864" lon="-0.65042">
        <ele>54.45</ele>
        <time>2013-10-20T09:35:51Z</time>
      </trkpt>
      <trkpt lat="47.32877" lon="-0.65023">
        <ele>55.89</ele>
        <time>2013-10-20T09:36:00Z</time>
      </trkpt>
      <trkpt lat="47.32891" lon="-0.65004">
        <ele>56.86</ele>
        <time>2013-10-20T09:36:09Z</time>
      </trkpt>
      <trkpt lat="47.32903" lon="-0.64991">
        <ele>57.82</ele>
        <time>2013-10-20T09:36:16Z</time>
      </trkpt>
      <trkpt lat="47.32913" lon="-0.64979">
        <ele>59.26</ele>
        <time>2013-10-20T09:36:23Z</time>
      </trkpt>
      <trkpt lat="47.32923" lon="-0.64967">
        <ele>60.22</ele>
        <time>2013-10-20T09:36:29Z</time>
      </trkpt>
      <trkpt lat="47.32937" lon="-0.64946">
        <ele>60.7</ele>
        <time>2013-10-20T09:36:38Z</time>
      </trkpt>
      <trkpt lat="47.3295" lon="-0.64927">
        <ele>61.18</ele>
        <time>2013-10-20T09:36:46Z</time>
      </trkpt>
      <trkpt lat="47.3296" lon="-0.64913">
        <ele>62.14</ele>
        <time>2013-10-20T09:36:52Z</time>
      </trkpt>
      <trkpt lat="47.32968" lon="-0.64917">
        <ele>63.58</ele>
        <time>2013-10-20T09:36:57Z</time>
      </trkpt>
      <trkpt lat="47.32971" lon="-0.64923">
        <ele>65.03</ele>
        <time>2013-10-20T09:37:03Z</time>
      </trkpt>
      <trkpt lat="47.32972" lon="-0.64927">
        <ele>65.99</ele>
        <time>2013-10-20T09:37:10Z</time>
      </trkpt>
      <trkpt lat="47.32974" lon="-0.64935">
        <ele>66.47</ele>
        <time>2013-10-20T09:37:16Z</time>
      </trkpt>
      <trkpt lat="47.32977" lon="-0.64946">
        <ele>68.39</ele>
        <time>2013-10-20T09:37:24Z</time>
      </trkpt>
      <trkpt lat="47.3298" lon="-0.64952">
        <ele>70.31</ele>
        <time>2013-10-20T09:37:30Z</time>
      </trkpt>
      <trkpt lat="47.32984" lon="-0.64962">
        <ele>70.79</ele>
        <time>2013-10-20T09:37:37Z</time>
      </trkpt>
      <trkpt lat="47.32985" lon="-0.64966">
        <ele>71.27</ele>
        <time>2013-10-20T09:37:41Z</time>
      </trkpt>
      <trkpt lat="47.32987" lon="-0.64972">
        <ele>71.76</ele>
        <time>2013-10-20T09:37:48Z</time>
      </trkpt>
      <trkpt lat="47.32995" lon="-0.64991">
        <ele>72.72</ele>
        <time>2013-10-20T09:37:56Z</time>
      </trkpt>
      <trkpt lat="47.33003" lon="-0.65016">
        <ele>73.2</ele>
        <time>2013-10-20T09:38:06Z</time>
      </trkpt>
      <trkpt lat="47.3301" lon="-0.65036">
        <ele>74.64</ele>
        <time>2013-10-20T09:38:13Z</time>
      </trkpt>
      <trkpt lat="47.33018" lon="-0.65063">
        <ele>75.6</ele>
        <time>2013-10-20T09:38:22Z</time>
      </trkpt>
      <trkpt lat="47.33028" lon="-0.65095">
        <ele>76.56</ele>
        <time>2013-10-20T09:38:33Z</time>
      </trkpt>
      <trkpt lat="47.3304" lon="-0.65111">
        <ele>77.52</ele>
        <time>2013-10-20T09:38:40Z</time>
      </trkpt>
      <trkpt lat="47.33055" lon="-0.65124">
        <ele>77.04</ele>
        <time>2013-10-20T09:38:47Z</time>
      </trkpt>
      <trkpt lat="47.33071" lon="-0.65153">
        <ele>77.52</ele>
        <time>2013-10-20T09:38:55Z</time>
      </trkpt>
      <trkpt lat="47.3309" lon="-0.65187">
        <ele>78</ele>
        <time>2013-10-20T09:39:03Z</time>
      </trkpt>
      <trkpt lat="47.33103" lon="-0.65218">
        <ele>78.48</ele>
        <time>2013-10-20T09:39:11Z</time>
      </trkpt>
      <trkpt lat="47.33119" lon="-0.65256">
        <ele>78.97</ele>
        <time>2013-10-20T09:39:20Z</time>
      </trkpt>
      <trkpt lat="47.33137" lon="-0.65298">
        <ele>80.41</ele>
        <time>2013-10-20T09:39:29Z</time>
      </trkpt>
      <trkpt lat="47.33164" lon="-0.65345">
        <ele>79.93</ele>
        <time>2013-10-20T09:39:40Z</time>
      </trkpt>
      <trkpt lat="47.3318" lon="-0.65374">
        <ele>80.89</ele>
        <time>2013-10-20T09:39:48Z</time>
      </trkpt>
      <trkpt lat="47.33187" lon="-0.65401">
        <ele>80.89</ele>
        <time>2013-10-20T09:39:55Z</time>
      </trkpt>
      <trkpt lat="47.33173" lon="-0.65411">
        <ele>81.37</ele>
        <time>2013-10-20T09:40:00Z</time>
      </trkpt>
      <trkpt lat="47.33167" lon="-0.65415">
        <ele>81.37</ele>
        <time>2013-10-20T09:40:02Z</time>
      </trkpt>
      <trkpt lat="47.33163" lon="-0.65439">
        <ele>80.41</ele>
        <time>2013-10-20T09:40:07Z</time>
      </trkpt>
      <trkpt lat="47.33168" lon="-0.65493">
        <ele>80.89</ele>
        <time>2013-10-20T09:40:16Z</time>
      </trkpt>
      <trkpt lat="47.33176" lon="-0.65521">
        <ele>81.37</ele>
        <time>2013-10-20T09:40:22Z</time>
      </trkpt>
      <trkpt lat="47.33193" lon="-0.65552">
        <ele>80.89</ele>
        <time>2013-10-20T09:40:30Z</time>
      </trkpt>
      <trkpt lat="47.33199" lon="-0.65561">
        <ele>80.89</ele>
        <time>2013-10-20T09:40:33Z</time>
      </trkpt>
      <trkpt lat="47.33208" lon="-0.65554">
        <ele>81.85</ele>
        <time>2013-10-20T09:40:39Z</time>
      </trkpt>
      <trkpt lat="47.33215" lon="-0.65548">
        <ele>82.33</ele>
        <time>2013-10-20T09:40:44Z</time>
      </trkpt>
      <trkpt lat="47.33222" lon="-0.65547">
        <ele>81.37</ele>
        <time>2013-10-20T09:40:48Z</time>
      </trkpt>
      <trkpt lat="47.33232" lon="-0.65543">
        <ele>81.85</ele>
        <time>2013-10-20T09:40:56Z</time>
      </trkpt>
      <trkpt lat="47.33232" lon="-0.65542">
        <ele>81.85</ele>
        <time>2013-10-20T09:41:04Z</time>
      </trkpt>
      <trkpt lat="47.33232" lon="-0.65542">
        <ele>81.85</ele>
        <time>2013-10-20T09:41:16Z</time>
      </trkpt>
      <trkpt lat="47.33237" lon="-0.65537">
        <ele>81.85</ele>
        <time>2013-10-20T09:41:21Z</time>
      </trkpt>
      <trkpt lat="47.33265" lon="-0.65519">
        <ele>82.81</ele>
        <time>2013-10-20T09:41:29Z</time>
      </trkpt>
      <trkpt lat="47.33302" lon="-0.65503">
        <ele>83.29</ele>
        <time>2013-10-20T09:41:38Z</time>
      </trkpt>
      <trkpt lat="47.33345" lon="-0.65491">
        <ele>83.77</ele>
        <time>2013-10-20T09:41:48Z</time>
      </trkpt>
      <trkpt lat="47.3335" lon="-0.6549">
        <ele>83.77</ele>
        <time>2013-10-20T09:41:49Z</time>
      </trkpt>
      <trkpt lat="47.33379" lon="-0.65487">
        <ele>85.21</ele>
        <time>2013-10-20T09:41:56Z</time>
      </trkpt>
      <trkpt lat="47.33411" lon="-0.65488">
        <ele>87.62</ele>
        <time>2013-10-20T09:42:05Z</time>
      </trkpt>
      <trkpt lat="47.33417" lon="-0.65491">
        <ele>88.1</ele>
        <time>2013-10-20T09:42:07Z</time>
      </trkpt>
      <trkpt lat="47.33445" lon="-0.65508">
        <ele>89.54</ele>
        <time>2013-10-20T09:42:16Z</time>
      </trkpt>
      <trkpt lat="47.33478" lon="-0.65527">
        <ele>90.5</ele>
        <time>2013-10-20T09:42:26Z</time>
      </trkpt>
      <trkpt lat="47.33507" lon="-0.65546">
        <ele>90.98</ele>
        <time>2013-10-20T09:42:34Z</time>
      </trkpt>
      <trkpt lat="47.33542" lon="-0.65573">
        <ele>90.5</ele>
        <time>2013-10-20T09:42:42Z</time>
      </trkpt>
      <trkpt lat="47.33558" lon="-0.65587">
        <ele>90.5</ele>
        <time>2013-10-20T09:42:46Z</time>
      </trkpt>
      <trkpt lat="47.33578" lon="-0.65606">
        <ele>90.5</ele>
        <time>2013-10-20T09:42:51Z</time>
      </trkpt>
      <trkpt lat="47.33602" lon="-0.65627">
        <ele>90.02</ele>
        <time>2013-10-20T09:42:57Z</time>
      </trkpt>
      <trkpt lat="47.33629" lon="-0.65634">
        <ele>90.98</ele>
        <time>2013-10-20T09:43:04Z</time>
      </trkpt>
      <trkpt lat="47.33655" lon="-0.65636">
        <ele>91.94</ele>
        <time>2013-10-20T09:43:11Z</time>
      </trkpt>
      <trkpt lat="47.33686" lon="-0.65633">
        <ele>93.39</ele>
        <time>2013-10-20T09:43:20Z</time>
      </trkpt>
      <trkpt lat="47.33715" lon="-0.65624">
        <ele>94.35</ele>
        <time>2013-10-20T09:43:29Z</time>
      </trkpt>
      <trkpt lat="47.33741" lon="-0.65615">
        <ele>94.83</ele>
        <time>2013-10-20T09:43:36Z</time>
      </trkpt>
      <trkpt lat="47.33774" lon="-0.6561">
        <ele>94.83</ele>
        <time>2013-10-20T09:43:45Z</time>
      </trkpt>
      <trkpt lat="47.3379" lon="-0.65628">
        <ele>95.31</ele>
        <time>2013-10-20T09:43:51Z</time>
      </trkpt>
      <trkpt lat="47.338" lon="-0.65674">
        <ele>94.83</ele>
        <time>2013-10-20T09:43:59Z</time>
      </trkpt>
      <trkpt lat="47.33802" lon="-0.6568">
        <ele>94.35</ele>
        <time>2013-10-20T09:44:00Z</time>
      </trkpt>
      <trkpt lat="47.33809" lon="-0.65721">
        <ele>94.35</ele>
        <time>2013-10-20T09:44:08Z</time>
      </trkpt>
      <trkpt lat="47.33817" lon="-0.65757">
        <ele>94.83</ele>
        <time>2013-10-20T09:44:15Z</time>
      </trkpt>
      <trkpt lat="47.33832" lon="-0.6581">
        <ele>95.31</ele>
        <time>2013-10-20T09:44:24Z</time>
      </trkpt>
      <trkpt lat="47.33849" lon="-0.65868">
        <ele>95.79</ele>
        <time>2013-10-20T09:44:34Z</time>
      </trkpt>
      <trkpt lat="47.33868" lon="-0.65922">
        <ele>96.75</ele>
        <time>2013-10-20T09:44:43Z</time>
      </trkpt>
      <trkpt lat="47.33901" lon="-0.66">
        <ele>95.31</ele>
        <time>2013-10-20T09:44:55Z</time>
      </trkpt>
      <trkpt lat="47.33909" lon="-0.6602">
        <ele>95.79</ele>
        <time>2013-10-20T09:44:58Z</time>
      </trkpt>
      <trkpt lat="47.33927" lon="-0.66066">
        <ele>95.31</ele>
        <time>2013-10-20T09:45:05Z</time>
      </trkpt>
      <trkpt lat="47.33954" lon="-0.66142">
        <ele>95.31</ele>
        <time>2013-10-20T09:45:15Z</time>
      </trkpt>
      <trkpt lat="47.33957" lon="-0.6615">
        <ele>94.83</ele>
        <time>2013-10-20T09:45:16Z</time>
      </trkpt>
      <trkpt lat="47.33961" lon="-0.66166">
        <ele>94.83</ele>
        <time>2013-10-20T09:45:18Z</time>
      </trkpt>
      <trkpt lat="47.33985" lon="-0.6624">
        <ele>94.83</ele>
        <time>2013-10-20T09:45:27Z</time>
      </trkpt>
      <trkpt lat="47.33997" lon="-0.66313">
        <ele>93.87</ele>
        <time>2013-10-20T09:45:35Z</time>
      </trkpt>
      <trkpt lat="47.33997" lon="-0.66408">
        <ele>93.39</ele>
        <time>2013-10-20T09:45:45Z</time>
      </trkpt>
      <trkpt lat="47.33987" lon="-0.66525">
        <ele>92.42</ele>
        <time>2013-10-20T09:45:57Z</time>
      </trkpt>
      <trkpt lat="47.33983" lon="-0.66613">
        <ele>91.94</ele>
        <time>2013-10-20T09:46:06Z</time>
      </trkpt>
      <trkpt lat="47.33986" lon="-0.66674">
        <ele>91.46</ele>
        <time>2013-10-20T09:46:13Z</time>
      </trkpt>
      <trkpt lat="47.33988" lon="-0.66705">
        <ele>90.98</ele>
        <time>2013-10-20T09:46:17Z</time>
      </trkpt>
      <trkpt lat="47.34" lon="-0.6672">
        <ele>90.98</ele>
        <time>2013-10-20T09:46:21Z</time>
      </trkpt>
      <trkpt lat="47.34004" lon="-0.66716">
        <ele>90.98</ele>
        <time>2013-10-20T09:46:22Z</time>
      </trkpt>
      <trkpt lat="47.34012" lon="-0.66709">
        <ele>90.98</ele>
        <time>2013-10-20T09:46:24Z</time>
      </trkpt>
      <trkpt lat="47.34032" lon="-0.667">
        <ele>90.5</ele>
        <time>2013-10-20T09:46:28Z</time>
      </trkpt>
      <trkpt lat="47.34088" lon="-0.66691">
        <ele>90.02</ele>
        <time>2013-10-20T09:46:39Z</time>
      </trkpt>
      <trkpt lat="47.3411" lon="-0.66681">
        <ele>90.5</ele>
        <time>2013-10-20T09:46:43Z</time>
      </trkpt>
      <trkpt lat="47.34126" lon="-0.66659">
        <ele>89.54</ele>
        <time>2013-10-20T09:46:47Z</time>
      </trkpt>
      <trkpt lat="47.34138" lon="-0.6664">
        <ele>88.1</ele>
        <time>2013-10-20T09:46:50Z</time>
      </trkpt>
      <trkpt lat="47.34154" lon="-0.66625">
        <ele>88.58</ele>
        <time>2013-10-20T09:46:53Z</time>
      </trkpt>
      <trkpt lat="47.3418" lon="-0.66612">
        <ele>87.14</ele>
        <time>2013-10-20T09:46:57Z</time>
      </trkpt>
      <trkpt lat="47.34236" lon="-0.66595">
        <ele>85.69</ele>
        <time>2013-10-20T09:47:05Z</time>
      </trkpt>
      <trkpt lat="47.34289" lon="-0.66577">
        <ele>82.81</ele>
        <time>2013-10-20T09:47:12Z</time>
      </trkpt>
      <trkpt lat="47.34339" lon="-0.66561">
        <ele>81.37</ele>
        <time>2013-10-20T09:47:18Z</time>
      </trkpt>
      <trkpt lat="47.34366" lon="-0.66554">
        <ele>79.45</ele>
        <time>2013-10-20T09:47:21Z</time>
      </trkpt>
      <trkpt lat="47.34384" lon="-0.66549">
        <ele>78.48</ele>
        <time>2013-10-20T09:47:23Z</time>
      </trkpt>
      <trkpt lat="47.34419" lon="-0.66541">
        <ele>74.64</ele>
        <time>2013-10-20T09:47:27Z</time>
      </trkpt>
      <trkpt lat="47.34456" lon="-0.66523">
        <ele>69.35</ele>
        <time>2013-10-20T09:47:32Z</time>
      </trkpt>
      <trkpt lat="47.34484" lon="-0.6651">
        <ele>65.51</ele>
        <time>2013-10-20T09:47:35Z</time>
      </trkpt>
      <trkpt lat="47.34504" lon="-0.66501">
        <ele>61.66</ele>
        <time>2013-10-20T09:47:37Z</time>
      </trkpt>
      <trkpt lat="47.34533" lon="-0.66489">
        <ele>57.34</ele>
        <time>2013-10-20T09:47:40Z</time>
      </trkpt>
      <trkpt lat="47.34559" lon="-0.66479">
        <ele>54.45</ele>
        <time>2013-10-20T09:47:43Z</time>
      </trkpt>
      <trkpt lat="47.34577" lon="-0.66469">
        <ele>52.05</ele>
        <time>2013-10-20T09:47:46Z</time>
      </trkpt>
      <trkpt lat="47.34587" lon="-0.6646">
        <ele>50.61</ele>
        <time>2013-10-20T09:47:51Z</time>
      </trkpt>
      <trkpt lat="47.34588" lon="-0.66457">
        <ele>50.61</ele>
        <time>2013-10-20T09:47:54Z</time>
      </trkpt>
      <trkpt lat="47.34596" lon="-0.66449">
        <ele>48.68</ele>
        <time>2013-10-20T09:48:02Z</time>
      </trkpt>
      <trkpt lat="47.34597" lon="-0.66448">
        <ele>48.2</ele>
        <time>2013-10-20T09:48:03Z</time>
      </trkpt>
      <trkpt lat="47.34599" lon="-0.66446">
        <ele>47.72</ele>
        <time>2013-10-20T09:48:05Z</time>
      </trkpt>
      <trkpt lat="47.34602" lon="-0.66443">
        <ele>47.24</ele>
        <time>2013-10-20T09:48:08Z</time>
      </trkpt>
      <trkpt lat="47.3461" lon="-0.66439">
        <ele>45.8</ele>
        <time>2013-10-20T09:48:16Z</time>
      </trkpt>
      <trkpt lat="47.34612" lon="-0.66438">
        <ele>44.36</ele>
        <time>2013-10-20T09:48:22Z</time>
      </trkpt>
      <trkpt lat="47.34614" lon="-0.66436">
        <ele>42.44</ele>
        <time>2013-10-20T09:48:27Z</time>
      </trkpt>
      <trkpt lat="47.34623" lon="-0.66431">
        <ele>41.47</ele>
        <time>2013-10-20T09:48:33Z</time>
      </trkpt>
      <trkpt lat="47.34627" lon="-0.66427">
        <ele>40.51</ele>
        <time>2013-10-20T09:48:39Z</time>
      </trkpt>
      <trkpt lat="47.34633" lon="-0.6642">
        <ele>39.07</ele>
        <time>2013-10-20T09:48:45Z</time>
      </trkpt>
      <trkpt lat="47.3465" lon="-0.6641">
        <ele>37.63</ele>
        <time>2013-10-20T09:48:51Z</time>
      </trkpt>
      <trkpt lat="47.34666" lon="-0.66403">
        <ele>37.15</ele>
        <time>2013-10-20T09:48:57Z</time>
      </trkpt>
      <trkpt lat="47.34671" lon="-0.66397">
        <ele>36.67</ele>
        <time>2013-10-20T09:49:03Z</time>
      </trkpt>
      <trkpt lat="47.34686" lon="-0.66388">
        <ele>34.74</ele>
        <time>2013-10-20T09:49:10Z</time>
      </trkpt>
      <trkpt lat="47.34701" lon="-0.66381">
        <ele>33.3</ele>
        <time>2013-10-20T09:49:17Z</time>
      </trkpt>
      <trkpt lat="47.34714" lon="-0.66375">
        <ele>31.38</ele>
        <time>2013-10-20T09:49:23Z</time>
      </trkpt>
      <trkpt lat="47.34729" lon="-0.66371">
        <ele>30.9</ele>
        <time>2013-10-20T09:49:29Z</time>
      </trkpt>
      <trkpt lat="47.34741" lon="-0.66369">
        <ele>29.46</ele>
        <time>2013-10-20T09:49:35Z</time>
      </trkpt>
      <trkpt lat="47.34746" lon="-0.66368">
        <ele>28.98</ele>
        <time>2013-10-20T09:49:43Z</time>
      </trkpt>
      <trkpt lat="47.34748" lon="-0.66369">
        <ele>28.98</ele>
        <time>2013-10-20T09:49:49Z</time>
      </trkpt>
      <trkpt lat="47.34751" lon="-0.66369">
        <ele>28.98</ele>
        <time>2013-10-20T09:49:52Z</time>
      </trkpt>
      <trkpt lat="47.34768" lon="-0.66374">
        <ele>28.98</ele>
        <time>2013-10-20T09:49:59Z</time>
      </trkpt>
      <trkpt lat="47.3478" lon="-0.66378">
        <ele>28.98</ele>
        <time>2013-10-20T09:50:04Z</time>
      </trkpt>
      <trkpt lat="47.3479" lon="-0.66384">
        <ele>28.5</ele>
        <time>2013-10-20T09:50:10Z</time>
      </trkpt>
      <trkpt lat="47.34796" lon="-0.66384">
        <ele>28.5</ele>
        <time>2013-10-20T09:50:17Z</time>
      </trkpt>
      <trkpt lat="47.34797" lon="-0.66383">
        <ele>28.5</ele>
        <time>2013-10-20T09:50:18Z</time>
      </trkpt>
      <trkpt lat="47.348" lon="-0.66382">
        <ele>28.98</ele>
        <time>2013-10-20T09:50:20Z</time>
      </trkpt>
      <trkpt lat="47.34809" lon="-0.6639">
        <ele>28.5</ele>
        <time>2013-10-20T09:50:26Z</time>
      </trkpt>
      <trkpt lat="47.34824" lon="-0.66393">
        <ele>28.02</ele>
        <time>2013-10-20T09:50:33Z</time>
      </trkpt>
      <trkpt lat="47.34845" lon="-0.66396">
        <ele>26.57</ele>
        <time>2013-10-20T09:50:42Z</time>
      </trkpt>
      <trkpt lat="47.34861" lon="-0.664">
        <ele>25.13</ele>
        <time>2013-10-20T09:50:48Z</time>
      </trkpt>
      <trkpt lat="47.34878" lon="-0.664">
        <ele>24.65</ele>
        <time>2013-10-20T09:50:56Z</time>
      </trkpt>
      <trkpt lat="47.34881" lon="-0.664">
        <ele>25.13</ele>
        <time>2013-10-20T09:50:58Z</time>
      </trkpt>
      <trkpt lat="47.34887" lon="-0.664">
        <ele>24.17</ele>
        <time>2013-10-20T09:51:04Z</time>
      </trkpt>
      <trkpt lat="47.34888" lon="-0.664">
        <ele>24.17</ele>
        <time>2013-10-20T09:51:10Z</time>
      </trkpt>
      <trkpt lat="47.34899" lon="-0.66398">
        <ele>23.69</ele>
        <time>2013-10-20T09:51:17Z</time>
      </trkpt>
      <trkpt lat="47.34908" lon="-0.66399">
        <ele>23.69</ele>
        <time>2013-10-20T09:51:23Z</time>
      </trkpt>
      <trkpt lat="47.34912" lon="-0.664">
        <ele>23.21</ele>
        <time>2013-10-20T09:51:28Z</time>
      </trkpt>
      <trkpt lat="47.34912" lon="-0.664">
        <ele>23.69</ele>
        <time>2013-10-20T09:51:29Z</time>
      </trkpt>
      <trkpt lat="47.34922" lon="-0.664">
        <ele>23.21</ele>
        <time>2013-10-20T09:51:37Z</time>
      </trkpt>
      <trkpt lat="47.34925" lon="-0.664">
        <ele>23.69</ele>
        <time>2013-10-20T09:51:42Z</time>
      </trkpt>
      <trkpt lat="47.34931" lon="-0.664">
        <ele>23.21</ele>
        <time>2013-10-20T09:51:49Z</time>
      </trkpt>
      <trkpt lat="47.34935" lon="-0.66399">
        <ele>23.69</ele>
        <time>2013-10-20T09:51:53Z</time>
      </trkpt>
      <trkpt lat="47.3494" lon="-0.664">
        <ele>23.69</ele>
        <time>2013-10-20T09:52:00Z</time>
      </trkpt>
      <trkpt lat="47.34941" lon="-0.66401">
        <ele>23.21</ele>
        <time>2013-10-20T09:52:01Z</time>
      </trkpt>
      <trkpt lat="47.34952" lon="-0.66401">
        <ele>23.21</ele>
        <time>2013-10-20T09:52:05Z</time>
      </trkpt>
      <trkpt lat="47.34985" lon="-0.66398">
        <ele>22.73</ele>
        <time>2013-10-20T09:52:17Z</time>
      </trkpt>
      <trkpt lat="47.35005" lon="-0.66395">
        <ele>22.25</ele>
        <time>2013-10-20T09:52:24Z</time>
      </trkpt>
      <trkpt lat="47.35028" lon="-0.66391">
        <ele>21.77</ele>
        <time>2013-10-20T09:52:31Z</time>
      </trkpt>
      <trkpt lat="47.35061" lon="-0.66381">
        <ele>21.29</ele>
        <time>2013-10-20T09:52:40Z</time>
      </trkpt>
      <trkpt lat="47.35073" lon="-0.66375">
        <ele>21.29</ele>
        <time>2013-10-20T09:52:43Z</time>
      </trkpt>
      <trkpt lat="47.35086" lon="-0.66366">
        <ele>21.77</ele>
        <time>2013-10-20T09:52:46Z</time>
      </trkpt>
      <trkpt lat="47.35102" lon="-0.66361">
        <ele>21.77</ele>
        <time>2013-10-20T09:52:50Z</time>
      </trkpt>
      <trkpt lat="47.3511" lon="-0.66361">
        <ele>21.29</ele>
        <time>2013-10-20T09:52:52Z</time>
      </trkpt>
      <trkpt lat="47.35137" lon="-0.66364">
        <ele>22.25</ele>
        <time>2013-10-20T09:52:58Z</time>
      </trkpt>
      <trkpt lat="47.35146" lon="-0.66368">
        <ele>22.73</ele>
        <time>2013-10-20T09:53:00Z</time>
      </trkpt>
      <trkpt lat="47.3517" lon="-0.66378">
        <ele>23.69</ele>
        <time>2013-10-20T09:53:06Z</time>
      </trkpt>
      <trkpt lat="47.35203" lon="-0.66402">
        <ele>25.13</ele>
        <time>2013-10-20T09:53:15Z</time>
      </trkpt>
      <trkpt lat="47.35245" lon="-0.66439">
        <ele>24.17</ele>
        <time>2013-10-20T09:53:25Z</time>
      </trkpt>
      <trkpt lat="47.35282" lon="-0.66469">
        <ele>21.77</ele>
        <time>2013-10-20T09:53:32Z</time>
      </trkpt>
      <trkpt lat="47.35304" lon="-0.66464">
        <ele>21.29</ele>
        <time>2013-10-20T09:53:37Z</time>
      </trkpt>
      <trkpt lat="47.35312" lon="-0.66454">
        <ele>20.32</ele>
        <time>2013-10-20T09:53:39Z</time>
      </trkpt>
      <trkpt lat="47.35355" lon="-0.66418">
        <ele>20.81</ele>
        <time>2013-10-20T09:53:48Z</time>
      </trkpt>
      <trkpt lat="47.35389" lon="-0.66398">
        <ele>21.29</ele>
        <time>2013-10-20T09:53:55Z</time>
      </trkpt>
      <trkpt lat="47.354" lon="-0.66393">
        <ele>21.29</ele>
        <time>2013-10-20T09:53:58Z</time>
      </trkpt>
      <trkpt lat="47.35406" lon="-0.66408">
        <ele>21.29</ele>
        <time>2013-10-20T09:54:03Z</time>
      </trkpt>
      <trkpt lat="47.35404" lon="-0.66415">
        <ele>21.29</ele>
        <time>2013-10-20T09:54:05Z</time>
      </trkpt>
      <trkpt lat="47.35396" lon="-0.66437">
        <ele>21.29</ele>
        <time>2013-10-20T09:54:13Z</time>
      </trkpt>
      <trkpt lat="47.35402" lon="-0.66446">
        <ele>20.81</ele>
        <time>2013-10-20T09:54:17Z</time>
      </trkpt>
      <trkpt lat="47.35404" lon="-0.66448">
        <ele>20.81</ele>
        <time>2013-10-20T09:54:23Z</time>
      </trkpt>
      <trkpt lat="47.35404" lon="-0.66448">
        <ele>20.32</ele>
        <time>2013-10-20T09:54:34Z</time>
      </trkpt>
      <trkpt lat="47.35404" lon="-0.66448">
        <ele>20.32</ele>
        <time>2013-10-20T09:54:46Z</time>
      </trkpt>
      <trkpt lat="47.35404" lon="-0.66448">
        <ele>20.32</ele>
        <time>2013-10-20T09:54:47Z</time>
      </trkpt>
      <trkpt lat="47.35397" lon="-0.66453">
        <ele>20.81</ele>
        <time>2013-10-20T09:54:53Z</time>
      </trkpt>
      <trkpt lat="47.35396" lon="-0.66456">
        <ele>20.32</ele>
        <time>2013-10-20T09:54:58Z</time>
      </trkpt>
      <trkpt lat="47.35396" lon="-0.66456">
        <ele>20.32</ele>
        <time>2013-10-20T09:55:07Z</time>
      </trkpt>
      <trkpt lat="47.35396" lon="-0.66456">
        <ele>18.4</ele>
        <time>2013-10-20T09:55:17Z</time>
      </trkpt>
      <trkpt lat="47.35396" lon="-0.66456">
        <ele>20.32</ele>
        <time>2013-10-20T09:55:36Z</time>
      </trkpt>
      <trkpt lat="47.35396" lon="-0.66456">
        <ele>20.32</ele>
        <time>2013-10-20T09:55:50Z</time>
      </trkpt>
    </trkseg>
  </trk>
</gpx>